[[{"header":{"parameterUnit":"m.s-1","parameterCategory":1,"la1":31.0,"la2":29.5877,"lo1":-88.7671,"lo2":-86.6584,"dy":0.0162,"dx":0.0185,"nx":115,"ny":88,"refTime":"2023-05-16T18:00:00:Z","depth":0,"parameterNumber":2,"parameterNumberName":"U-component_of_WINDS"},"data":[0.0,0.0,0.0,0.0,0.0,0.0,0.0,0.0,0.0,0.0,0.0,0.0,0.0,0.0,0.0,0.0,0.0,0.0,0.0,0.0,0.0,0.0,0.0,0.0,0.0,0.0,0.0,0.0,0.0,0.0,0.0,0.0,0.0,0.0,0.0,0.0,0.0,0.0,0.0,0.0,0.0,0.0,0.0,0.0,0.0,0.0,0.0,0.0,0.0,0.0,0.0,0.0,0.0,0.0,0.0,0.0,0.0,0.0,0.0,0.0,0.0,0.0,0.0,0.0,0.0,0.0,0.0,0.0,0.0,0.0,0.0,0.0,0.0,0.0,0.0,0.0,0.0,0.0,0.0,0.0,0.0,0.0,0.0,0.0,0.0,0.0,0.0,0.0,0.0,0.0,0.0,0.0,0.0,0.0,0.0,0.0,0.0,0.0,0.0,0.0,0.0,0.0,0.0,0.0,0.0,0.0,0.0,0.0,0.0,0.0,0.0,0.0,0.0,0.0,0.0,0.0,0.0,0.0,0.0,0.0,0.0,0.0,0.0,0.0,0.0,0.0,0.0,0.0,0.0,0.0,0.0,0.0,0.0,0.0,0.0,0.0,0.0,0.0,0.0,0.0,0.0,0.0,0.0,0.0,0.0,0.0,0.0,0.0,0.0,0.0,0.0,0.0,0.0,0.0,0.0,0.0,0.0,0.0,0.0,0.0,0.0,0.0,0.0,0.0,0.0,0.0,0.0,0.0,0.0,0.0,0.0,0.0,0.0,0.0,0.0,0.0,0.0,0.0,0.0,0.0,0.0,0.0,0.0,0.0,0.0,0.0,0.0,0.0,0.0,0.0,0.0,0.0,0.0,0.0,0.0,0.0,0.0,0.0,0.0,0.0,0.0,0.0,0.0,0.0,0.0,0.0,0.0,0.0,0.0,0.0,0.0,0.0,0.0,0.0,0.0,0.0,0.0,0.0,0.0,0.0,0.0,0.0,0.0,0.0,0.0,0.0,0.0,0.0,0.0,0.0,0.0,0.0,0.0,0.0,0.0,0.0,0.0,0.0,0.0,0.0,0.0,0.0,0.0,0.0,0.0,0.0,0.0,0.0,0.0,0.0,0.0,0.0,0.0,0.0,0.0,0.0,0.0,0.0,0.0,0.0,0.0,0.0,0.0,0.0,0.0,0.0,0.0,0.0,0.0,0.0,0.0,0.0,0.0,0.0,0.0,0.0,0.0,0.0,0.0,0.0,0.0,0.0,0.0,0.0,0.0,0.0,0.0,0.0,0.0,0.0,0.0,0.0,0.0,0.0,0.0,0.0,0.0,0.0,0.0,0.0,0.0,0.0,0.0,0.0,0.0,0.0,0.0,0.0,0.0,0.0,0.0,0.0,0.0,0.0,0.0,0.0,0.0,0.0,0.0,0.0,0.0,0.0,0.0,0.0,0.0,0.0,0.0,0.0,0.0,0.0,0.0,0.0,0.0,0.0,0.0,0.0,0.0,0.0,0.0,0.0,0.0,0.0,0.0,0.0,0.0,0.0,0.0,0.0,0.0,0.0,0.0,0.0,0.0,0.0,0.0,0.0,0.0,0.0,0.0,0.0,0.0,0.0,0.0,0.0,0.0,0.0,0.0,0.0,0.0,0.0,0.0,0.0,0.0,0.0,0.0,0.0,0.0,0.0,0.0,0.0,0.0,0.0,0.0,0.0,0.0,0.0,0.0,0.0,0.0,0.0,0.0,0.0,0.0,0.0,0.0,0.0,0.0,0.0,0.0,0.0,0.0,0.0,0.0,0.0,0.0,0.0,0.0,0.0,0.0,0.0,0.0,0.0,0.0,0.0,0.0,0.0,0.0,0.0,0.0,0.0,0.0,0.0,0.0,0.0,0.0,0.0,0.0,0.0,0.0,0.0,0.0,0.0,0.0,0.0,0.0,0.0,0.0,0.0,0.0,0.0,0.0,0.0,0.0,0.0,0.0,0.0,0.0,0.0,0.0,0.0,0.0,0.0,0.0,0.0,0.0,0.0,0.0,0.0,0.0,0.0,0.0,0.0,0.0,0.0,0.0,0.0,0.0,0.0,0.0,0.0,0.0,0.0,0.0,0.0,0.0,0.0,0.0,0.0,0.0,0.0,0.0,0.0,0.0,0.0,0.0,0.0,0.0,0.0,0.0,0.0,0.0,0.0,0.0,0.0,0.0,0.0,0.0,0.0,0.0,0.0,0.0,0.0,0.0,0.0,0.0,0.0,0.0,0.0,0.0,0.0,0.0,0.0,0.0,0.0,0.0,0.0,0.0,0.0,0.0,0.0,0.0,0.0,0.0,0.0,0.0,0.0,0.0,0.0,0.0,0.0,0.0,0.0,0.0,0.0,0.0,0.0,0.0,0.0,0.0,0.0,0.0,0.0,0.0,0.0,0.0,0.0,0.0,0.0,0.0,0.0,0.0,0.0,0.0,0.0,0.0,0.0,0.0,0.0,0.0,0.0,0.0,0.0,0.0,0.0,0.0,0.0,0.0,0.0,0.0,0.0,0.0,0.0,0.0,0.0,0.0,0.0,0.0,0.0,0.0,0.0,0.0,0.0,0.0,0.0,0.0,0.0,0.0,0.0,0.0,0.0,0.0,0.0,0.0,0.0,0.0,0.0,0.0,0.0,0.0,0.0,0.0,0.0,0.0,0.0,0.0,0.0,0.0,0.0,0.0,0.0,0.0,0.0,0.0,0.0,0.0,0.0,0.0,0.0,0.0,0.0,0.0,0.0,0.0,0.0,0.0,0.0,0.0,0.0,0.0,0.0,0.0,0.0,0.0,0.0,0.0,0.0,0.0,0.0,0.0,0.0,0.0,0.0,0.0,0.0,0.0,0.0,0.0,0.0,0.0,0.0,0.0,0.0,0.0,0.0,0.0,0.0,0.0,0.0,0.0,0.0,0.0,0.0,0.0,0.0,0.0,0.0,0.0,0.0,0.0,0.0,0.0,0.0,0.0,0.0,0.0,0.0,0.0,0.0,0.0,0.0,0.0,0.0,0.0,0.0,0.0,0.0,0.0,0.0,0.0,0.0,0.0,0.0,0.0,0.0,0.0,0.0,0.0,0.0,0.0,0.0,0.0,0.0,0.0,0.0,0.0,0.0,0.0,0.0,0.0,0.0,0.0,0.0,0.0,0.0,0.0,0.0,0.0,0.0,0.0,0.0,0.0,0.0,0.0,0.0,0.0,0.0,0.0,0.0,0.0,0.0,0.0,0.0,0.0,0.0,0.0,0.0,0.0,0.0,0.0,0.0,0.0,0.0,0.0,0.0,0.0,0.0,0.0,0.0,0.0,0.0,0.0,0.0,0.0,0.0,0.0,0.0,0.0,0.0,0.0,0.0,0.0,0.0,0.0,0.0,0.0,0.0,0.0,0.0,0.0,0.0,0.0,0.0,0.0,0.0,0.0,0.0,0.0,0.0,0.0,0.0,0.0,0.0,0.0,0.0,0.0,0.0,0.0,0.0,0.0,0.0,0.0,0.0,0.0,0.0,0.0,0.0,0.0,0.0,0.0,0.0,0.0,0.0,0.0,0.0,0.0,0.0,0.0,0.0,0.0,0.0,0.0,0.0,0.0,0.0,0.0,0.0,0.0,0.0,0.0,0.0,0.0,0.0,0.0,0.0,0.0,0.0,0.0,0.0,0.0,0.0,0.0,0.0,0.0,0.0,0.0,0.0,0.0,0.0,0.0,0.0,0.0,0.0,0.0,0.0,0.0,0.0,0.0,0.0,0.0,0.0,0.0,0.0,0.0,0.0,0.0,0.0,0.0,0.0,0.0,0.0,0.0,0.0,0.0,0.0,0.0,0.0,0.0,0.0,0.0,0.0,0.0,0.0,0.0,0.0,0.0,0.0,0.0,0.0,0.0,0.0,0.0,0.0,0.0,0.0,0.0,0.0,0.0,0.0,0.0,0.0,0.0,0.0,0.0,0.0,0.0,0.0,0.0,0.0,0.0,0.0,0.0,0.0,0.0,0.0,0.0,0.0,0.0,0.0,0.0,0.0,0.0,0.0,0.0,0.0,0.0,0.0,0.0,0.0,0.0,0.0,0.0,0.0,0.0,0.0,0.0,0.0,0.0,0.0,0.0,0.0,0.0,0.0,0.0,0.0,0.0,0.0,0.0,0.0,0.0,0.0,0.0,0.0,0.0,0.0,0.0,0.0,0.0,0.0,0.0,0.0,0.0,0.0,0.0,0.0,0.0,0.0,0.0,0.0,0.0,0.0,0.0,0.0,0.0,0.0,0.0,0.0,-0.4291,0.0,0.0,0.0,0.0,0.0,0.0,0.0,0.0,0.0,0.0,0.0,0.0,0.0,0.0,0.0,0.0,0.0,0.0,0.0,0.0,0.0,0.0,0.0,0.0,0.0,0.0,0.0,0.0,0.0,0.0,0.0,0.0,0.0,0.0,0.0,0.0,0.0,0.0,0.0,0.0,0.0,0.0,0.0,0.0,0.0,0.0,0.0,0.0,0.0,0.0,0.0,0.0,0.0,0.0,0.0,0.0,0.0,0.0,0.0,0.0,0.0,0.0,0.0,0.0,0.0,0.0,0.0,0.0,0.0,0.0,0.0,0.0,0.0,0.0,0.0,0.0,0.0,0.0,0.0,0.0,0.0,0.0,0.0,0.0,0.0,0.0,0.0,0.0,0.0,0.0,0.0,0.0,0.0,0.0,0.0,0.0,0.0,0.0,0.0,0.0,0.0,0.0,0.0,0.0,0.0,0.0,0.0,0.0,0.0,0.0,-0.3398,-0.402,-0.3976,-0.3785,-0.3453,0.0,0.0,0.0,0.0,0.0,0.0,0.0,0.0,0.0,0.0,0.0,0.0,0.0,0.0,0.0,0.0,0.0,0.0,0.0,0.0,0.0,0.0,0.0,0.0,0.0,0.0,0.0,0.0,0.0,0.0,0.0,0.0,0.0,0.0,0.0,0.0,0.0,0.0,0.0,0.0,0.0,0.0,0.0,0.0,0.0,0.0,0.0,0.0,0.0,0.0,0.0,0.0,0.0,0.0,0.0,0.0,0.0,0.0,0.0,0.0,0.0,0.0,0.0,0.0,0.0,0.0,0.0,0.0,0.0,0.0,0.0,0.0,0.0,0.0,0.0,0.0,0.0,0.0,0.0,0.0,0.0,0.0,0.0,0.0,0.0,0.0,0.0,0.0,0.0,0.0,0.0,0.0,0.0,0.0,0.0,0.0,0.0,0.0,0.0,0.0,0.0,0.0,0.0,0.0,0.0,0.0,0.0,0.0,0.0,0.0,0.0,0.0,-0.3711,-0.3571,-0.3375,0.0,0.0,0.0,0.0,0.0,0.0,0.0,0.0,0.0,0.0,0.0,0.0,0.0,0.0,0.0,0.0,0.0,0.0,0.0,0.0,0.0,0.0,0.0,0.0,0.0,0.0,0.0,0.0,0.0,0.0,0.0,0.0,0.0,0.0,0.0,0.0,0.0,0.0,0.0,0.0,0.0,0.0,0.0,0.0,0.0,0.0,0.0,0.0,0.0,0.0,0.0,0.0,0.0,0.0,0.0,0.0,0.0,0.0,0.0,0.0,0.0,0.0,0.0,0.0,0.0,0.0,0.0,0.0,0.0,0.0,0.0,0.0,0.0,0.0,0.0,0.0,0.0,0.0,0.0,0.0,0.0,0.0,0.0,0.0,0.0,0.0,0.0,0.0,0.0,0.0,0.0,0.0,0.0,0.0,0.0,0.0,0.0,0.0,0.0,0.0,0.0,0.0,0.0,0.0,0.0,0.0,0.0,0.0,0.0,0.0,-0.3524,-0.4188,-0.4108,0.0,-0.4578,0.0,0.0,0.0,0.0,0.0,0.0,0.0,0.0,0.0,0.0,0.0,0.0,0.0,0.0,0.0,0.0,0.0,0.0,0.0,0.0,0.0,0.0,0.0,0.0,0.0,0.0,0.0,0.0,0.0,0.0,0.0,0.0,0.0,0.0,0.0,0.0,0.0,0.0,0.0,0.0,0.0,0.0,0.0,0.0,0.0,0.0,0.0,0.0,0.0,0.0,0.0,0.0,0.0,0.0,0.0,0.0,0.0,0.0,0.0,0.0,0.0,0.0,0.0,0.0,0.0,0.0,0.0,0.0,0.0,0.0,0.0,0.0,0.0,0.0,0.0,0.0,0.0,0.0,0.0,0.0,0.0,0.0,0.0,0.0,0.0,0.0,0.0,0.0,0.0,0.0,0.0,0.0,0.0,0.0,0.0,0.0,0.0,0.0,0.0,0.0,0.0,0.0,0.0,0.0,0.0,0.0,0.0,0.0,0.0,0.0,-0.3126,-0.4112,-0.3799,-0.3928,0.0,0.0,0.0,0.0,0.0,0.0,0.0,0.0,0.0,0.0,0.0,0.0,0.0,0.0,0.0,0.0,0.0,0.0,0.0,0.0,0.0,0.0,0.0,0.0,0.0,0.0,0.0,0.0,0.0,0.0,0.0,0.0,0.0,0.0,0.0,0.0,0.0,0.0,0.0,0.0,0.0,0.0,0.0,0.0,0.0,0.0,0.0,0.0,0.0,0.0,0.0,0.0,0.0,0.0,0.0,0.0,0.0,0.0,0.0,0.0,0.0,0.0,0.0,0.0,0.0,0.0,0.0,0.0,0.0,0.0,0.0,0.0,0.0,0.0,0.0,0.0,0.0,0.0,0.0,0.0,0.0,0.0,0.0,0.0,0.0,0.0,0.0,0.0,0.0,0.0,0.0,0.0,0.0,0.0,0.0,0.0,0.0,0.0,0.0,0.0,0.0,0.0,0.0,0.0,0.0,0.0,0.0,0.0,0.0,0.0,-0.2549,-0.2993,-0.4028,-0.3932,-0.4096,-0.4631,0.0,0.0,0.0,0.0,0.0,0.0,0.0,0.0,0.0,0.0,0.0,0.0,0.0,0.0,0.0,0.0,0.0,0.0,0.0,0.0,0.0,0.0,0.0,0.0,0.0,0.0,0.0,0.0,0.0,0.0,0.0,0.0,0.0,0.0,0.0,0.0,0.0,0.0,0.0,0.0,0.0,0.0,0.0,0.0,0.0,0.0,0.0,0.0,0.0,0.0,0.0,0.0,0.0,0.0,0.0,0.0,0.0,0.0,0.0,0.0,0.0,0.0,0.0,0.0,0.0,0.0,0.0,0.0,0.0,0.0,0.0,0.0,0.0,0.0,0.0,0.0,0.0,0.0,0.0,0.0,0.0,0.0,0.0,0.0,0.0,0.0,0.0,0.0,0.0,0.0,0.0,0.0,0.0,0.0,0.0,0.0,0.0,0.0,0.0,0.0,0.0,0.0,0.0,0.0,0.0,0.0,0.0,0.0,-0.2865,-0.2946,-0.3432,-0.4324,-0.4845,-0.5149,0.0,0.0,0.0,0.0,0.0,0.0,0.0,0.0,0.0,0.0,0.0,0.0,0.0,0.0,0.0,0.0,0.0,0.0,0.0,0.0,0.0,0.0,0.0,0.0,0.0,0.0,0.0,0.0,0.0,0.0,0.0,0.0,0.0,0.0,0.0,0.0,0.0,0.0,0.0,0.0,0.0,0.0,0.0,0.0,0.0,0.0,0.0,0.0,0.0,0.0,0.0,0.0,0.0,0.0,0.0,0.0,0.0,0.0,0.0,0.0,0.0,0.0,0.0,0.0,0.0,0.0,0.0,0.0,0.0,0.0,0.0,0.0,0.0,0.0,0.0,0.0,0.0,0.0,0.0,0.0,0.0,0.0,0.0,0.0,0.0,0.0,0.0,0.0,0.0,0.0,0.0,0.0,0.0,0.0,0.0,0.0,0.0,0.0,0.0,0.0,0.0,0.0,0.0,0.0,0.0,0.0,0.0,0.0,0.0,-0.264,-0.3037,-0.3435,-0.3873,-0.4487,-0.5014,0.0,0.0,0.0,0.0,0.0,0.0,0.0,0.0,0.0,0.0,0.0,0.0,0.0,0.0,0.0,0.0,0.0,0.0,0.0,0.0,0.0,0.0,0.0,0.0,0.0,0.0,0.0,0.0,0.0,0.0,0.0,0.0,0.0,0.0,0.0,0.0,0.0,0.0,0.0,0.0,0.0,0.0,0.0,0.0,0.0,0.0,0.0,0.0,0.0,0.0,0.0,0.0,0.0,0.0,0.0,0.0,0.0,0.0,0.0,0.0,0.0,0.0,0.0,0.0,0.0,0.0,0.0,0.0,0.0,0.0,0.0,0.0,0.0,0.0,0.0,0.0,0.0,0.0,0.0,0.0,0.0,0.0,0.0,0.0,0.0,0.0,0.0,0.0,0.0,0.0,0.0,0.0,0.0,0.0,0.0,0.0,0.0,0.0,0.0,0.0,0.0,0.0,0.0,0.0,0.0,0.0,0.0,0.0,0.0,-0.2373,0.0,-0.3391,-0.3697,-0.4264,-0.4923,0.0,0.0,0.0,0.0,0.0,0.0,0.0,0.0,0.0,0.0,0.0,0.0,0.0,0.0,0.0,0.0,0.0,0.0,0.0,0.0,0.0,0.0,0.0,0.0,0.0,0.0,0.0,0.0,0.0,0.0,0.0,0.0,0.0,0.0,0.0,0.0,0.0,0.0,0.0,0.0,0.0,0.0,0.0,0.0,0.0,0.0,0.0,0.0,0.0,0.0,0.0,0.0,0.0,0.0,0.0,0.0,0.0,0.0,0.0,0.0,0.0,0.0,0.0,0.0,0.0,0.0,0.0,0.0,0.0,0.0,0.0,0.0,0.0,0.0,0.0,0.0,0.0,0.0,0.0,0.0,0.0,0.0,0.0,0.0,0.0,0.0,0.0,0.0,0.0,0.0,0.0,0.0,0.0,0.0,0.0,0.0,0.0,0.0,0.0,0.0,0.0,0.0,0.0,0.0,0.0,0.0,0.0,0.0,-0.1981,-0.202,-0.2598,-0.3226,-0.3873,-0.432,-0.5019,0.0,0.0,0.0,0.0,0.0,0.0,0.0,0.0,0.0,0.0,0.0,0.0,0.0,0.0,0.0,0.0,0.0,0.0,0.0,0.0,0.0,0.0,0.0,0.0,0.0,0.0,0.0,0.0,0.0,0.0,0.0,0.0,0.0,0.0,0.0,0.0,0.0,0.0,0.0,0.0,0.0,0.0,0.0,0.0,0.0,0.0,0.0,0.0,0.0,0.0,0.0,0.0,0.0,0.0,0.0,0.0,0.0,0.0,0.0,0.0,0.0,0.0,0.0,0.0,0.0,0.0,0.0,0.0,0.0,0.0,0.0,0.0,0.0,0.0,0.0,0.0,0.0,0.0,0.0,0.0,0.0,0.0,0.0,0.0,0.0,0.0,0.0,0.0,0.0,0.0,0.0,0.0,0.0,0.0,0.0,0.0,0.0,0.0,0.0,0.0,0.0,0.0,0.0,0.0,0.0,0.0,0.0,0.0,0.0,-0.1921,-0.2398,-0.296,-0.3672,-0.4183,-0.4902,0.0,0.0,0.0,0.0,0.0,0.0,0.0,0.0,0.0,0.0,0.0,0.0,0.0,0.0,0.0,0.0,0.0,0.0,0.0,0.0,0.0,0.0,0.0,0.0,0.0,0.0,0.0,0.0,0.0,0.0,0.0,0.0,0.0,0.0,0.0,0.0,0.0,0.0,0.0,0.0,0.0,0.0,0.0,0.0,0.0,0.0,0.0,0.0,0.0,0.0,0.0,0.0,0.0,0.0,0.0,0.0,0.0,0.0,0.0,0.0,0.0,0.0,0.0,0.0,0.0,0.0,0.0,0.0,0.0,0.0,0.0,0.0,0.0,0.0,0.0,0.0,0.0,0.0,0.0,0.0,0.0,0.0,0.0,0.0,0.0,0.0,0.0,0.0,0.0,0.0,0.0,0.0,0.0,0.0,0.0,0.0,0.0,0.0,0.0,0.0,0.0,0.0,0.0,0.0,0.0,0.0,0.0,0.0,0.0,-0.1711,-0.2193,-0.2708,-0.3278,-0.3946,-0.4661,-0.5453,0.0,0.0,0.0,0.0,0.0,0.0,0.0,0.0,0.0,0.0,0.0,0.0,0.0,0.0,0.0,0.0,0.0,0.0,0.0,0.0,0.0,0.0,0.0,0.0,0.0,0.0,0.0,0.0,0.0,0.0,0.0,0.0,0.0,0.0,0.0,0.0,0.0,0.0,0.0,0.0,0.0,0.0,0.0,0.0,0.0,0.0,0.0,0.0,0.0,0.0,0.0,0.0,0.0,0.0,0.0,0.0,0.0,0.0,0.0,0.0,0.0,0.0,0.0,0.0,0.0,0.0,0.0,0.0,0.0,0.0,0.0,0.0,0.0,0.0,0.0,0.0,0.0,0.0,0.0,0.0,0.0,0.0,0.0,0.0,0.0,0.0,0.0,0.0,0.0,0.0,0.0,0.0,0.0,0.0,0.0,0.0,0.0,0.0,0.0,0.0,0.0,0.0,0.0,0.0,0.0,0.0,0.0,0.0,-0.1413,-0.2075,-0.2573,-0.2841,-0.3629,-0.4374,0.0,0.0,0.0,0.0,0.0,0.0,0.0,0.0,0.0,0.0,0.0,0.0,0.0,0.0,0.0,0.0,0.0,0.0,0.0,0.0,0.0,0.0,0.0,0.0,0.0,0.0,0.0,0.0,0.0,0.0,0.0,0.0,0.0,0.0,0.0,0.0,0.0,0.0,0.0,0.0,0.0,0.0,0.0,0.0,0.0,0.0,0.0,0.0,0.0,0.0,0.0,0.0,0.0,0.0,0.0,0.0,0.0,0.0,0.0,0.0,0.0,0.0,0.0,0.0,0.0,0.0,0.0,0.0,0.0,0.0,0.0,0.0,0.0,0.0,0.0,0.0,0.0,0.0,0.0,0.0,0.0,0.0,0.0,0.0,0.0,0.0,0.0,0.0,0.0,0.0,0.0,0.0,0.0,0.0,0.0,0.0,0.0,0.0,0.0,0.0,0.0,0.0,0.0,0.0,0.0,0.0,0.0,0.0,0.0,-0.1887,-0.2627,-0.3073,-0.3273,-0.3387,-0.3978,0.0,0.0,0.0,0.0,0.0,0.0,0.0,0.0,0.0,0.0,0.0,0.0,0.0,0.0,0.0,0.0,0.0,0.0,0.0,0.0,0.0,0.0,0.0,0.0,0.0,0.0,0.0,0.0,0.0,0.0,0.0,0.0,0.0,0.0,0.0,0.0,0.0,0.0,0.0,0.0,0.0,0.0,0.0,0.0,0.0,0.0,0.0,0.0,0.0,0.0,0.0,0.0,0.0,0.0,0.0,0.0,0.0,0.0,0.0,0.0,0.0,0.0,0.0,0.0,0.0,0.0,0.0,0.0,0.0,0.0,0.0,0.0,0.0,0.0,0.0,0.0,0.0,0.0,0.0,0.0,0.0,0.0,0.0,0.0,0.0,0.0,0.0,0.0,0.0,0.0,0.0,0.0,0.0,0.0,0.0,0.0,0.0,0.0,0.0,0.0,0.0,0.0,0.0,0.0,0.0,0.0,0.0,0.0,-0.0628,-0.143,-0.2381,-0.3089,-0.3383,-0.3348,-0.3803,0.0,0.0,0.0,0.0,0.0,0.0,0.0,0.0,0.0,0.0,0.0,0.0,0.0,0.0,0.0,0.0,0.0,0.0,0.0,0.0,0.0,0.0,0.0,0.0,0.0,0.0,0.0,0.0,0.0,0.0,0.0,0.0,0.0,0.0,0.0,0.0,0.0,0.0,0.0,0.0,0.0,0.0,0.0,0.0,0.0,0.0,0.0,0.0,0.0,0.0,0.0,0.0,0.0,0.0,0.0,0.0,0.0,0.0,0.0,0.0,0.0,0.0,0.0,0.0,0.0,0.0,0.0,0.0,0.0,0.0,0.0,0.0,0.0,0.0,0.0,0.0,0.0,0.0,0.0,0.0,0.0,0.0,0.0,0.0,0.0,0.0,0.0,0.0,0.0,0.0,0.0,0.0,0.0,0.0,0.0,0.0,0.0,0.0,0.0,0.0,0.0,0.0,0.0,0.0,0.0,0.0,0.0,0.0,-0.0713,-0.0838,-0.2165,-0.3116,-0.3523,-0.3411,-0.3522,0.0,0.0,0.0,0.0,0.0,0.0,0.0,0.0,0.0,0.0,0.0,0.0,0.0,0.0,0.0,0.0,0.0,0.0,0.0,0.0,0.0,0.0,0.0,0.0,0.0,0.0,0.0,0.0,0.0,0.0,0.0,0.0,0.0,0.0,0.0,0.0,0.0,0.0,0.0,0.0,0.0,0.0,0.0,0.0,0.0,0.0,0.0,0.0,0.0,0.0,0.0,0.0,0.0,0.0,0.0,0.0,0.0,0.0,0.0,0.0,0.0,0.0,0.0,0.0,0.0,0.0,0.0,0.0,0.0,0.0,0.0,0.0,0.0,0.0,0.0,0.0,0.0,0.0,0.0,0.0,0.0,0.0,0.0,0.0,0.0,0.0,0.0,0.0,0.0,0.0,0.0,0.0,0.0,0.0,0.0,0.0,0.0,0.0,0.0,0.0,0.0,0.0,0.0,0.0,0.0,0.0,0.0,0.0,-0.1811,-0.2999,-0.418,-0.5109,-0.5644,-0.3197,-0.1954,0.0,0.0,0.0,0.0,0.0,0.0,0.0,0.0,0.0,0.0,0.0,0.0,0.0,0.0,0.0,0.0,0.0,0.0,0.0,0.0,0.0,0.0,0.0,0.0,0.0,0.0,0.0,0.0,0.0,0.0,0.0,0.0,0.0,0.0,0.0,0.0,0.0,0.0,0.0,0.0,0.0,0.0,0.0,0.0,0.0,0.0,0.0,0.0,-0.7835,0.0,0.0,0.0,0.0,0.0,0.0,0.0,0.0,0.0,0.0,0.0,0.0,0.0,0.0,0.0,0.0,0.0,0.0,0.0,0.0,0.0,0.0,0.0,0.0,0.0,0.0,0.0,0.0,0.0,0.0,0.0,0.0,0.0,0.0,0.0,0.0,0.0,0.0,0.0,0.0,0.0,0.0,0.0,0.0,0.0,0.0,0.0,0.0,0.0,0.0,0.0,0.0,0.0,0.0,0.0,0.0,0.0,0.0,0.0,-0.0962,-0.2243,-0.3209,-0.4141,-0.4967,-0.2573,-0.1255,0.0,0.0,0.0,0.0,0.0,0.0,0.0,0.0,0.0,0.0,0.0,0.0,0.0,0.0,0.0,0.0,0.0,0.0,0.0,0.0,0.0,0.0,0.0,0.0,0.0,0.0,0.0,0.0,0.0,0.0,0.0,0.0,0.0,0.0,0.0,0.0,0.0,0.0,0.0,0.0,0.0,0.0,0.0,0.0,0.0,0.0,0.0,0.0,0.0,0.0,0.0,0.0,0.0,0.0,0.0,0.0,0.0,0.0,0.0,0.0,0.0,0.0,0.0,0.0,0.0,0.0,0.0,0.0,0.0,0.0,0.0,0.0,0.0,0.0,0.0,0.0,0.0,0.0,0.0,0.0,0.0,0.0,0.0,0.0,0.0,0.0,0.0,0.0,0.0,0.0,0.0,0.0,0.0,0.0,0.0,0.0,0.0,0.0,0.0,0.0,0.0,0.0,0.0,0.0,0.0,0.0,0.0,0.1065,0.035,-0.0829,-0.1414,-0.2352,-0.3572,-0.1882,-0.1014,-0.1466,0.0,0.0,0.0,0.0,0.0,0.0,0.0,0.0,0.0,0.0,0.0,0.0,0.0,0.0,0.0,0.0,0.0,0.0,0.0,0.0,0.0,0.0,0.0,0.0,0.0,0.0,0.0,0.0,0.0,0.0,0.0,0.0,0.0,0.0,0.0,0.0,0.0,0.0,-0.5202,-0.5555,0.0,0.0,0.0,0.0,0.0,0.0,0.0,0.0,-0.8649,0.0,0.0,0.0,0.0,0.0,0.0,0.0,0.0,0.0,0.0,0.0,0.0,0.0,0.0,0.0,0.0,0.0,0.0,0.0,0.0,0.0,0.0,0.0,0.0,0.0,0.0,0.0,0.0,0.0,0.0,0.0,0.0,0.0,0.0,0.0,0.0,0.0,0.0,0.0,0.0,0.0,0.0,0.0,0.0,0.0,0.0,0.0,0.0,0.0,0.0,0.0,0.0,0.0,0.0,0.0,0.0,0.1064,0.1162,0.0356,-0.151,-0.1764,-0.2275,-0.3132,-0.1799,-0.1263,-0.1676,0.0,0.0,0.0,0.0,0.0,0.0,0.0,0.0,0.0,0.0,0.0,0.0,0.0,0.0,0.0,0.0,0.0,0.0,0.0,0.0,0.0,0.0,0.0,0.0,0.0,0.0,0.0,0.0,0.0,0.0,0.0,0.0,0.0,0.0,0.0,0.0,0.0,0.0,0.0,-0.552,-0.5844,0.0,0.0,0.0,0.0,0.0,0.0,0.0,0.0,-0.996,0.0,0.0,0.0,0.0,0.0,0.0,0.0,0.0,0.0,0.0,0.0,0.0,0.0,0.0,0.0,0.0,0.0,0.0,0.0,0.0,0.0,0.0,0.0,0.0,0.0,0.0,0.0,0.0,0.0,0.0,0.0,0.0,0.0,0.0,0.0,0.0,0.0,0.0,0.0,0.0,0.0,0.0,0.0,0.0,0.0,0.0,0.0,0.0,0.0,0.0,0.0,0.0,0.0,0.0,0.0,0.227,0.2406,0.1858,0.0451,-0.0076,-0.0603,-0.1236,-0.0565,0.0207,0.0,0.0,0.0,0.0,0.0,0.0,0.0,0.0,0.0,0.0,0.0,0.0,0.0,0.0,0.0,0.0,0.0,0.0,0.0,0.0,0.0,0.0,0.0,0.0,0.0,0.0,0.0,0.0,0.0,0.0,0.0,0.0,0.0,0.0,0.0,0.0,0.0,0.0,0.0,0.0,-0.6129,-0.6529,-0.7427,0.0,0.0,0.0,0.0,0.0,0.0,-0.9926,-1.0498,0.0,0.0,0.0,0.0,0.0,0.0,0.0,0.0,0.0,0.0,0.0,0.0,0.0,0.0,0.0,0.0,0.0,0.0,0.0,0.0,0.0,0.0,0.0,0.0,0.0,0.0,0.0,0.0,0.0,0.0,0.0,0.0,0.0,0.0,0.0,0.0,0.0,0.0,0.0,0.0,0.0,0.0,0.0,0.0,0.0,0.0,0.0,0.0,0.0,0.0,0.0,0.0,0.0,0.0,0.0,0.3569,0.3726,0.3353,0.2539,0.1957,0.1413,0.0865,0.1119,0.1984,0.0,0.0,0.0,0.0,0.0,0.0,0.0,0.0,0.0,0.0,0.0,0.0,0.0,0.0,0.0,0.0,0.0,0.0,0.0,0.0,0.0,0.0,0.0,0.0,0.0,0.0,0.0,0.0,0.0,0.0,0.0,0.0,0.0,0.0,0.0,0.0,0.0,0.0,0.0,0.0,0.0,-0.7177,-0.7991,-0.8429,0.0,0.0,0.0,0.0,-0.9371,-1.0249,0.0,0.0,0.0,0.0,0.0,0.0,0.0,0.0,0.0,0.0,0.0,0.0,0.0,0.0,0.0,0.0,0.0,0.0,0.0,0.0,0.0,0.0,0.0,0.0,0.0,0.0,0.0,0.0,0.0,0.0,0.0,0.0,0.0,0.0,0.0,0.0,0.0,0.0,0.0,0.0,0.0,0.0,0.0,0.0,0.0,0.0,0.0,0.0,0.0,0.0,0.0,0.0,0.0,0.0,0.0,0.0,0.4423,0.4176,0.3752,0.3209,0.3209,0.2952,0.2388,0.3065,0.3397,0.0,0.0,0.0,0.0,0.0,0.0,0.0,0.0,0.0,0.0,0.0,0.0,0.0,0.0,0.0,0.0,0.0,0.0,0.0,0.0,0.0,0.0,0.0,0.0,0.0,0.0,0.0,0.0,0.0,0.0,0.0,0.0,0.0,0.0,0.0,0.0,0.0,0.0,0.0,0.0,0.0,-0.7131,-0.7663,-0.8072,-0.8363,0.0,0.0,-0.9238,-0.9275,-1.0573,0.0,0.0,0.0,0.0,0.0,0.0,0.0,0.0,0.0,0.0,0.0,0.0,0.0,0.0,0.0,0.0,0.0,0.0,0.0,0.0,0.0,0.0,0.0,0.0,0.0,0.0,0.0,0.0,0.0,0.0,0.0,0.0,0.0,0.0,0.0,0.0,0.0,0.0,0.0,0.0,0.0,0.0,0.0,0.0,0.0,0.0,0.0,0.0,0.0,0.0,0.0,0.0,0.0,0.0,0.0,0.5188,0.5151,0.5156,0.5158,0.516,0.4448,0.425,0.4613,0.4174,0.3604,0.0,0.0,0.0,0.0,0.0,0.0,0.0,0.0,0.0,0.0,0.0,0.0,0.0,0.0,0.0,0.0,0.0,0.0,0.0,0.0,0.0,0.0,0.0,0.0,0.0,0.0,0.0,0.0,0.0,0.0,0.0,0.0,0.0,0.0,0.0,0.0,0.0,0.0,0.0,0.0,0.0,0.0,-0.7837,-0.8523,0.0,0.0,0.0,-1.017,-1.0725,0.0,0.0,0.0,0.0,0.0,0.0,0.0,0.0,0.0,0.0,0.0,0.0,0.0,0.0,0.0,0.0,0.0,0.0,0.0,0.0,0.0,0.0,0.0,0.0,0.0,0.0,0.0,0.0,0.0,0.0,0.0,0.0,0.0,0.0,0.0,0.0,0.0,0.0,0.0,0.0,0.0,0.0,0.0,0.0,0.0,0.0,0.0,0.0,0.0,0.0,0.0,0.0,0.0,0.0,0.0,0.0,0.0,0.5859,0.6057,0.6351,0.6726,0.5655,0.5507,0.6319,0.509,0.0,0.0,0.0,0.0,0.0,0.0,0.0,0.0,0.0,0.0,0.0,0.0,0.0,0.0,0.0,0.0,0.0,0.0,0.0,0.0,0.0,0.0,0.0,0.0,0.0,0.0,0.0,-0.4647,0.0,0.0,0.0,0.0,0.0,0.0,0.0,0.0,0.0,0.0,0.0,0.0,0.0,0.0,-0.823,-0.7986,-0.887,-0.9659,0.0,0.0,-1.0707,-1.155,-1.2002,-1.2427,0.0,0.0,0.0,0.0,0.0,0.0,0.0,0.0,0.0,0.0,0.0,0.0,0.0,0.0,0.0,0.0,0.0,0.0,0.0,0.0,0.0,0.0,0.0,0.0,0.0,0.0,0.0,0.0,0.0,0.0,0.0,0.0,0.0,0.0,0.0,0.0,0.0,0.0,0.0,0.0,0.0,0.0,0.0,0.0,0.0,0.0,0.0,0.0,0.0,0.0,0.0,0.0,0.0,0.0,0.0,0.6551,0.6698,0.6867,0.7148,0.6824,0.6664,0.6719,0.6059,0.5318,0.0,0.0,0.0,0.0,0.0,0.0,0.0,0.0,0.0,0.0,0.0,0.0,0.0,0.0,0.0,0.0,0.0,0.0,0.0,0.0,0.0,0.0,0.0,0.0,0.0,0.0,0.0,0.0,0.0,0.0,0.0,0.0,0.0,0.0,0.0,0.0,0.0,0.0,0.0,0.0,0.0,-0.8079,-0.813,-0.8571,-0.9071,0.0,0.0,-1.0113,-1.084,-1.1836,-1.2423,-1.2403,0.0,0.0,0.0,0.0,0.0,0.0,0.0,0.0,0.0,0.0,0.0,0.0,0.0,0.0,0.0,0.0,0.0,0.0,0.0,0.0,0.0,0.0,0.0,0.0,0.0,0.0,0.0,0.0,0.0,0.0,0.0,0.0,0.0,0.0,0.0,0.0,0.0,0.0,0.0,0.0,0.0,0.0,0.0,0.0,0.0,0.0,0.0,0.0,0.0,0.0,0.0,0.0,0.0,0.6446,0.6451,0.684,0.724,0.7637,0.7016,0.7042,0.7699,0.6568,0.5765,0.0,0.0,0.0,0.0,0.0,0.0,0.0,0.0,0.0,0.0,0.0,0.0,0.0,0.0,0.0,0.0,0.0,0.0,0.0,0.0,0.0,0.0,0.0,0.0,0.0,0.0,0.0,0.0,-0.4829,-0.5285,-0.5456,0.0,0.0,0.0,0.0,0.0,0.0,0.0,0.0,0.0,0.0,-0.8488,-0.8511,-0.8562,0.0,0.0,-1.0049,-1.0479,-1.2056,-1.2184,-1.2402,-1.3138,-1.2907,0.0,0.0,0.0,0.0,0.0,0.0,0.0,0.0,0.0,0.0,0.0,0.0,0.0,0.0,0.0,0.0,0.0,0.0,0.0,0.0,0.0,0.0,0.0,0.0,0.0,0.0,0.0,0.0,0.0,0.0,0.0,0.0,0.0,0.0,0.0,0.0,0.0,0.0,0.0,0.0,0.0,0.0,0.0,0.0,0.0,0.0,0.0,0.0,0.0,0.0,0.0,0.0,0.6535,0.6537,0.7114,0.7711,0.8236,0.7511,0.7481,0.8238,0.7104,0.6249,0.0,0.0,0.0,0.0,0.0,0.0,0.0,0.0,0.0,0.0,0.0,0.0,0.0,0.0,0.0,0.0,0.0,0.0,0.0,0.0,0.0,0.0,0.0,0.0,0.0,0.0,0.0,0.0,-0.5065,-0.5549,-0.5585,0.0,0.0,0.0,0.0,0.0,0.0,0.0,0.0,0.0,0.0,-0.8583,-0.8609,-0.8584,-0.899,-1.0315,-1.041,-1.0929,-1.2536,-1.243,-1.2302,-1.3046,0.0,0.0,0.0,0.0,0.0,0.0,0.0,0.0,0.0,0.0,0.0,0.0,0.0,0.0,0.0,0.0,0.0,0.0,0.0,0.0,0.0,0.0,0.0,0.0,0.0,0.0,0.0,0.0,0.0,0.0,0.3844,0.0,0.0,0.0,0.0,0.0,0.0,0.0,0.0,0.0,0.0,0.0,0.0,0.0,0.0,0.0,0.0,0.0,0.0,0.0,0.0,0.0,0.0,0.6468,0.7045,0.7628,0.821,0.8748,0.8395,0.8226,0.8356,0.7706,0.6881,0.59,0.0,0.0,0.0,0.0,0.0,0.0,0.0,0.0,0.0,0.0,0.0,0.0,0.0,0.0,0.0,0.0,0.0,0.0,0.0,0.0,0.0,0.0,0.0,0.0,0.0,0.0,-0.4828,-0.5621,-0.6041,0.0,0.0,0.0,0.0,0.0,0.0,0.0,0.0,0.0,0.0,-0.8384,-0.8159,-0.8529,-0.8636,-0.9118,-1.0194,-1.0695,-1.1275,-1.2129,-1.2215,-1.2062,0.0,0.0,0.0,0.0,0.0,0.0,0.0,0.0,0.0,0.0,0.0,0.0,0.0,0.0,0.0,0.0,0.0,0.0,0.0,0.0,0.0,0.0,0.0,0.0,0.0,0.0,0.0,0.364,0.3404,0.0,0.0,0.0,0.0,0.0,0.0,0.0,0.0,0.0,0.0,0.0,0.3629,0.352,0.0,0.0,0.0,0.0,0.0,0.0,0.0,0.0,0.0,0.0,0.0,0.0,0.614,0.6655,0.7438,0.8088,0.8554,0.8337,0.8165,0.8119,0.7333,0.6272,0.4914,0.0,0.0,0.0,0.0,0.0,0.0,0.0,0.0,0.0,0.0,0.0,0.0,0.0,0.0,0.0,0.0,0.0,0.0,0.0,0.0,0.0,0.0,0.0,0.0,0.0,-0.5712,0.0,0.0,0.0,0.0,0.0,0.0,0.0,0.0,0.0,0.0,0.0,-0.9376,-0.9911,-0.9756,-0.967,-0.9831,-0.9747,-0.9792,0.0,0.0,0.0,0.0,0.0,0.0,0.0,0.0,0.0,0.0,0.0,0.0,0.0,0.0,-1.5751,-1.5854,-1.5651,-1.5482,-1.5707,0.0,0.0,0.0,0.0,0.0,0.0,0.0,0.0,0.0,0.0,0.0,0.0,0.0,0.0,0.0,0.0,0.247,0.0,0.0,0.0,0.0,0.0,0.0,0.0,0.0,0.3743,0.3846,0.3739,0.3582,0.3573,0.0,0.3503,0.3282,0.0,0.0,0.0,0.0,0.0,0.0,0.0,0.0,0.5948,0.6388,0.7421,0.8113,0.849,0.8361,0.8258,0.8136,0.6482,0.5293,0.4723,0.3921,0.3032,0.0,0.0,0.0,0.0,0.0,0.0,0.0,0.0,0.0,0.0,0.0,0.0,0.0,0.0,0.0,0.0,0.0,0.0,0.0,0.0,0.0,0.0,0.0,-0.608,0.0,0.0,0.0,0.0,0.0,0.0,0.0,0.0,0.0,-0.9456,-0.9606,-0.9979,-1.0616,-1.037,-1.0305,-1.0883,0.0,0.0,0.0,0.0,0.0,0.0,0.0,-1.3181,-1.3255,-1.3456,-1.3837,-1.4548,-1.535,-1.5973,-1.6226,0.0,0.0,-1.6047,-1.5709,-1.5474,-1.5782,-1.6324,-1.6684,-1.6722,-1.7199,-1.7532,0.0,0.0,0.0,0.0,0.0,0.0,0.0,0.0,-0.0433,-0.0252,0.0,0.0753,0.0,0.0,0.0,0.0,0.0,0.4045,0.0,0.0,0.4787,0.4993,0.4004,0.3944,0.4203,0.4634,0.381,0.2752,0.1608,0.1893,0.0,0.0,0.0,0.0,0.0,0.0,0.5768,0.6247,0.7546,0.8269,0.8517,0.8517,0.8491,0.8289,0.5341,0.4185,0.5064,0.3866,0.3414,0.3756,0.1605,0.0,0.0,0.0,0.0,0.0,0.0,0.0,0.0,0.0,0.0,0.0,0.0,0.0,0.0,0.0,0.0,0.0,0.0,0.0,0.0,-0.5905,0.0,0.0,0.0,0.0,0.0,0.0,0.0,0.0,0.0,0.0,-1.0314,-1.0261,-1.044,-1.1186,0.0,0.0,0.0,0.0,-1.1004,-1.2517,-1.2915,-1.3182,-1.3448,-1.3643,-1.3603,-1.3022,0.0,0.0,-1.4159,-1.5404,-1.6499,-1.6953,-1.6514,-1.6252,-1.6632,-1.6382,-1.644,-1.679,-1.7121,-1.7548,-1.7714,-1.8048,-1.8627,-0.3257,0.0,0.0,0.0,0.0,-0.1755,-0.2123,-0.2549,-0.2891,-0.3018,-0.2945,-0.0908,0.0,0.0,0.0,0.0,0.0,0.0,0.4,0.3854,0.441,0.475,0.4849,0.4934,0.501,0.5154,0.4994,0.4513,0.3872,0.2124,0.0945,0.0464,0.0,0.0,0.0,0.0,0.5637,0.6459,0.7615,0.8408,0.8754,0.8597,0.7978,0.6874,0.5636,0.4723,0.4197,0.3274,0.2797,0.2783,0.1516,0.0,0.0,0.0,0.0,0.0,0.0,0.0,0.0,0.0,0.0,0.0,0.0,0.0,0.0,0.0,0.0,0.0,0.0,0.0,-0.6356,-0.6561,-0.6768,0.0,0.0,0.0,0.0,0.0,0.0,0.0,0.0,0.0,-1.0927,-1.1109,-1.1365,0.0,0.0,-1.1791,-1.2388,-1.2013,-1.1822,-1.2444,-1.2871,0.0,0.0,-1.4135,-1.4566,-1.4493,-1.5001,-1.5458,-1.5632,-1.6139,-1.6556,-1.6736,-1.6385,-1.6162,-1.637,-1.5909,-1.5551,-1.5701,-1.595,-1.6199,-1.625,-1.6612,-1.6861,-0.7034,-0.5028,-0.3677,-0.3423,-0.4034,-0.4257,-0.4666,-0.5113,-0.5339,-0.5379,-0.5093,-0.3433,-0.2033,-0.0977,-0.1039,0.0,0.0,0.0,0.2991,0.4365,0.4569,0.4918,0.5336,0.5407,0.5469,0.551,0.5532,0.5546,0.5394,0.325,0.1881,0.1179,0.0,0.0,0.2741,0.4235,0.5403,0.6162,0.7094,0.771,0.7962,0.8299,0.7937,0.6693,0.6258,0.5381,0.4,0.373,0.3498,0.3166,0.2249,0.1208,0.0,0.0,0.0,0.0,0.0,0.0,0.0,0.0,0.0,0.0,0.0,-0.5583,0.0,0.0,0.0,0.0,-0.6388,-0.6741,-0.6984,-0.6992,0.0,0.0,0.0,0.0,0.0,0.0,0.0,-1.0421,-1.0323,-1.0583,-1.147,-1.1711,-1.1838,-1.2026,-1.1722,-1.1694,-1.2395,0.0,-1.2249,-1.2756,-1.3493,-1.4097,-1.4289,-1.4865,-1.5353,-1.5496,-1.59,-1.6245,-1.6238,-1.6422,-1.6477,-1.6522,-1.6383,-1.6409,-1.6484,-1.6051,-1.5707,-1.5715,-1.587,-1.6048,-1.6106,-1.6306,-1.6362,-1.0239,-0.9804,-0.6634,-0.5662,-0.615,-0.65,-0.7038,-0.7507,-0.7772,-0.7333,-0.6293,-0.6316,-0.4836,-0.2502,-0.3101,0.0,-0.0487,-0.0406,0.1381,0.4331,0.4821,0.5186,0.5489,0.5483,0.5537,0.5733,0.5733,0.5824,0.5916,0.4917,0.3913,0.2933,0.2547,0.2364,0.2438,0.4305,0.5265,0.5389,0.6126,0.6579,0.6664,0.7817,0.8043,0.7356,0.7106,0.609,0.4326,0.4819,0.4903,0.4285,0.3474,0.2576,0.1549,0.0,0.0,0.0,0.0,0.0,0.0,0.0,0.0,0.0,0.0,0.0,0.0,0.0,0.0,0.0,-0.6386,0.0,-0.727,-0.7344,0.0,0.0,0.0,-0.8052,-0.8458,-0.8779,-0.9352,-1.0245,0.0,0.0,-1.1716,-1.1866,-1.179,-1.1607,-1.074,-1.0711,-1.1999,-1.2186,-1.2499,-1.3386,-1.4522,-1.53,-1.5221,-1.554,-1.5771,-1.5959,-1.6072,-1.6193,-1.6072,-1.6288,-1.6355,-1.6355,-1.6527,-1.6698,-1.6722,-1.6624,-1.673,-1.6617,-1.6632,-1.6735,-1.6813,-1.6807,-1.6722,-1.1042,-1.1044,-1.0236,-0.9592,-0.9233,-0.9371,-0.9496,-0.9836,-1.0081,-0.9518,-0.852,-0.8159,-0.6587,-0.4174,-0.3843,-0.3924,-0.4257,-0.2659,-0.0754,0.1108,0.2129,0.3637,0.5622,0.5617,0.5625,0.5741,0.5738,0.583,0.6014,0.5684,0.4667,0.3057,0.382,0.4278,0.4411,0.5799,0.6015,0.4965,0.5794,0.6634,0.7368,0.7593,0.7653,0.7445,0.7397,0.666,0.5107,0.5205,0.497,0.4328,0.4069,0.3197,0.1366,-0.0599,0.0,0.0,0.0,0.0,0.0,0.0,0.0,0.0,0.0,-0.6155,-0.678,0.0,-0.6093,0.0,-0.7222,-0.768,-0.759,-0.7973,0.0,0.0,-0.8191,-0.8512,-0.9203,-0.8959,-0.925,-1.046,-0.9942,-0.9903,-1.0851,-1.0716,-1.0783,-1.1265,-1.1721,-1.231,-1.2862,-1.2647,-1.2813,-1.3904,-1.4206,-1.4318,-1.5021,-1.5544,-1.5805,-1.5713,-1.6157,-1.6406,-1.5994,-1.61,-1.6245,-1.6245,-1.6245,-1.6428,-1.6601,-1.673,-1.673,-1.673,-1.673,-1.6672,-1.6759,-1.6775,-1.67,-1.1491,-1.1524,-1.1609,-1.1383,-1.0972,-1.0983,-1.0983,-1.1005,-1.1123,-1.0747,-0.9978,-0.9311,-0.8209,-0.6806,-0.5747,-0.5497,-0.5789,-0.4619,-0.3486,-0.262,-0.0271,0.1537,0.2995,0.3997,0.4908,0.5825,0.5783,0.5836,0.6078,0.6166,0.5547,0.4351,0.5109,0.5085,0.4459,0.4734,0.4302,0.3214,0.429,0.5472,0.6623,0.6979,0.6857,0.6371,0.6652,0.5919,0.4068,0.3916,0.3551,0.2825,0.2769,0.2273,0.1296,-0.0624,-0.2377,0.0,0.0,0.0,0.0,0.0,0.0,0.0,0.0,0.0,0.0,0.0,-0.6038,-0.6722,-0.7095,-0.7367,-0.743,-0.7922,-0.8175,-0.7902,-0.7902,-0.8158,-0.9018,-0.8488,-0.8681,-1.0055,-0.9732,-0.9832,-1.0706,-1.0829,-1.1178,-1.202,-1.2693,-1.2964,-1.2739,-1.2814,-1.3313,-1.3944,-1.4372,-1.4747,-1.5289,-1.5748,-1.592,-1.574,-1.6236,-1.6537,-1.6133,-1.6269,-1.6444,-1.6436,-1.6444,-1.6492,-1.669,-1.673,-1.673,-1.673,-1.673,-1.673,-1.673,-1.673,-1.6648,-1.1732,-1.1609,-1.1789,-1.1874,-1.1898,-1.1893,-1.177,-1.1557,-1.1553,-1.135,-1.1005,-1.0143,-0.9682,-0.9592,-0.8368,-0.7311,-0.6432,-0.6351,-0.6154,-0.5942,-0.267,-0.1037,-0.0647,0.1294,0.3238,0.5101,0.5197,0.5387,0.5766,0.5973,0.6028,0.6032,0.6026,0.5303,0.4085,0.3051,0.2126,0.1341,0.2604,0.3898,0.5271,0.5835,0.5594,0.4753,0.5258,0.4579,0.2407,0.2086,0.1683,0.0917,0.0724,0.0789,0.1118,-0.0737,-0.2542,0.0,-0.4738,0.0,0.0,0.0,0.0,0.0,0.0,0.0,0.0,-0.5673,-0.5841,-0.6658,-0.6546,-0.6613,-0.7097,-0.7536,-0.7712,-0.7285,-0.7228,-0.752,-0.8187,-0.79,-0.8179,-0.9439,-0.9706,-1.0158,-1.1014,-1.1466,-1.2087,-1.2964,-1.3583,-1.3536,-1.2616,-1.3208,-1.3942,-1.3943,-1.4935,-1.5597,-1.5705,-1.5975,-1.6103,-1.5896,-1.6301,-1.6595,-1.6269,-1.6436,-1.6651,-1.6643,-1.6611,-1.6659,-1.6714,-1.673,-1.673,-1.673,-1.673,-1.673,-1.673,-1.673,-1.673,-1.1898,-1.2025,-1.2063,-1.2172,-1.2323,-1.2318,-1.2106,-1.1761,-1.1761,-1.1718,-1.1642,-1.1286,-1.0861,-1.0467,-1.0697,-0.9587,-0.7629,-0.7532,-0.7021,-0.6152,-0.5463,-0.4242,-0.2647,-0.1792,-0.066,0.0849,0.1894,0.2852,0.3537,0.4223,0.5028,0.6058,0.6055,0.5746,0.534,0.0,0.0,0.0,0.3074,0.3676,0.4411,0.3601,0.3236,0.3332,0.3485,0.0,0.1832,0.1736,0.1324,0.0585,0.049,0.0,0.0,0.0,0.0,0.0,0.0,0.0,0.0,0.0,0.0,0.0,-0.5865,-0.5978,-0.6087,-0.5927,-0.5967,-0.6257,-0.6298,-0.6381,-0.6685,-0.6954,-0.7089,-0.7002,-0.6987,-0.7219,-0.7741,-0.8291,-0.8815,-0.9533,-1.0096,-1.0729,-1.1192,-1.1802,-1.2388,-1.2974,-1.395,-1.4474,-1.4243,-1.4545,-1.5005,-1.5265,-1.5549,-1.5674,-1.5674,-1.5968,-1.6182,-1.6174,-1.6436,-1.6571,-1.6301,-1.6261,-1.6317,-1.6341,-1.6301,-1.642,-1.6675,-1.673,-1.673,-1.673,-1.673,-1.673,-1.673,-1.673,-1.673,-1.2129,0.0,-1.2247,-1.2346,0.0,-1.2436,-1.2323,-1.2115,-1.202,-1.1917,-1.1817,-1.1704,-1.1399,-1.12,-1.1661,-1.0867,-0.9194,-0.8781,-0.8286,-0.7746,-0.6833,-0.5957,-0.4952,-0.452,-0.3323,-0.1365,-0.0966,0.058,0.2934,0.2442,0.3523,0.6206,0.619,0.6155,0.6002,0.5844,0.5229,0.4127,0.3767,0.3878,0.4547,0.4334,0.3891,0.311,0.0,0.0,0.0,0.0,0.0,0.0,0.0,0.0,0.0,0.0,0.0,-0.1971,-0.3519,-0.4245,-0.3869,-0.4009,-0.4063,-0.4015,-0.4996,-0.5674,-0.5808,-0.5442,-0.5529,-0.6381,-0.6197,-0.6224,-0.6695,-0.6891,-0.6831,-0.6599,-0.6662,-0.7178,-0.8127,-0.85,-0.908,-1.0239,-1.0778,-1.1111,-1.1519,-1.2277,-1.2978,-1.3554,-1.4576,-1.5313,-1.5617,-1.5566,-1.5545,-1.5697,-1.5674,-1.5674,-1.5705,-1.5975,-1.6134,-1.6047,-1.6389,-1.6547,-1.6269,-1.6349,-1.6468,-1.6468,-1.646,-1.654,-1.6675,-1.673,-1.673,-1.673,-1.673,-1.673,-1.673,-1.673,-1.673,-1.2342,-1.2209,-1.237,-1.2436,-1.2436,-1.2436,-1.2436,-1.2427,0.0,0.0,0.0,-1.1817,-1.1812,-1.1931,-1.1978,-1.1554,-1.0674,-1.0039,-0.9594,-0.9358,-0.7877,-0.7174,-0.7153,-0.6873,-0.5491,-0.3237,-0.3587,-0.199,0.1414,0.0504,0.1797,0.5044,0.5628,0.5958,0.6227,0.6002,0.5802,0.5536,0.4418,0.408,0.4756,0.5146,0.4546,0.2899,0.3478,0.3065,0.1604,0.1383,0.1293,0.1157,0.0943,0.0588,0.0169,-0.0497,-0.1058,-0.153,-0.2507,-0.2776,-0.1885,-0.2178,-0.2223,-0.1859,-0.3845,-0.5118,-0.5231,-0.4885,-0.5231,-0.6603,-0.6252,-0.6246,-0.6935,-0.707,-0.6914,-0.6515,-0.6706,-0.7518,-0.8781,-0.8959,-0.9558,-1.0985,-1.1438,-1.1659,-1.2008,-1.282,-1.3599,-1.4281,-1.5107,-1.5899,-1.6503,-1.6182,-1.5873,-1.5936,-1.596,-1.5896,-1.5912,-1.6118,-1.6166,-1.6023,-1.6389,-1.6603,-1.6436,-1.654,-1.6706,-1.6698,-1.673,-1.6722,-1.673,-1.673,-1.673,-1.673,-1.673,-1.673,-1.673,-1.673,-1.673,-1.2422,-1.2398,-1.2427,-1.2436,-1.2436,-1.2436,-1.2436,-1.2436,-1.2408,-1.238,-1.2351,-1.2243,-1.2356,-1.2356,-1.2361,-1.1815,-1.105,-1.0937,-1.0425,0.0,-0.9312,-0.9122,-0.8967,-0.8216,-0.7261,-0.6198,-0.6007,-0.566,-0.4735,-0.1622,0.0402,0.1102,0.2708,0.4575,0.6255,0.6222,0.6053,0.5941,0.4629,0.3891,0.3873,0.2948,0.2255,0.1809,0.1769,0.1496,0.107,0.1063,0.0888,0.0714,-0.0172,-0.0572,-0.0309,-0.0453,-0.0723,-0.1086,-0.0757,-0.0495,-0.0365,-0.0366,-0.0521,-0.0921,-0.2816,-0.4199,-0.4528,-0.512,-0.577,-0.6551,-0.6558,-0.6711,-0.7341,-0.7464,-0.7562,-0.7804,-0.791,-0.8387,-0.9298,-0.9991,-1.0653,-1.1256,-1.1997,-1.2487,-1.2554,-1.3193,-1.3898,-1.458,-1.535,-1.5989,-1.655,-1.6659,-1.6587,-1.6587,-1.6587,-1.6587,-1.6516,-1.6603,-1.6595,-1.6595,-1.6635,-1.6714,-1.6635,-1.6675,-1.673,-1.673,-1.673,-1.673,-1.673,-1.673,-1.673,-1.673,-1.673,-1.673,-1.673,-1.673,-1.673,-1.2436,-1.2436,-1.2436,-1.2436,-1.2436,-1.2436,-1.2436,-1.2436,-1.2436,-1.2436,-1.2436,-1.2436,-1.2436,-1.2436,-1.2436,-1.2223,-1.1787,-1.1782,-1.1516,-1.1112,-1.067,-1.0413,-1.0226,-0.9382,-0.8701,-0.8262,-0.7538,-0.693,-0.63,-0.4367,-0.2918,-0.1711,0.0402,0.3107,0.6182,0.6357,0.6291,0.6285,0.5497,0.4988,0.475,0.4242,0.3837,0.3531,0.3405,0.3285,0.3165,0.3165,0.2831,0.2165,0.1714,0.1192,0.0695,0.0229,-0.015,-0.0295,-0.0521,-0.0527,-0.0,-0.045,-0.1215,-0.2146,-0.3559,-0.4602,-0.4945,-0.5861,-0.6695,-0.7406,-0.7504,-0.7752,-0.825,-0.8093,-0.8066,-0.8313,-0.8649,-0.9338,-1.0093,-1.0724,-1.1294,-1.1992,-1.2443,-1.2705,-1.2705,-1.33,-1.3984,-1.4657,-1.5567,-1.6312,-1.6656,-1.673,-1.673,-1.673,-1.673,-1.673,-1.673,-1.673,-1.673,-1.673,-1.673,-1.673,-1.673,-1.673,-1.673,-1.673,-1.673,-1.673,-1.673,-1.673,-1.673,-1.673,-1.673,-1.673,-1.673,-1.673,-1.673,-1.255,-1.2517,-1.2512,-1.2484,-1.2441,-1.2493,-1.2488,-1.2441,-1.2436,-1.2436,-1.2436,-1.2436,-1.2436,-1.2436,-1.2436,-1.2436,-1.2436,-1.2436,-1.2436,-1.2327,-1.1673,-1.1345,-1.1332,-1.0434,-0.9942,-0.9804,-0.8797,-0.7836,-0.7191,-0.6686,-0.5602,-0.3753,-0.1315,0.1616,0.4845,0.5471,0.5927,0.632,0.6227,0.6043,0.5782,0.5749,0.5581,0.5298,0.5246,0.5109,0.5023,0.5023,0.4461,0.3335,0.3002,0.2366,0.1342,0.0393,-0.0,-0.008,-0.0807,-0.1044,-0.0476,-0.1017,-0.205,-0.3424,-0.4338,-0.5186,-0.5823,-0.6984,-0.7782,-0.8171,-0.8483,-0.8904,-0.9312,-0.926,-0.9101,-0.919,-0.9747,-1.0509,-1.1219,-1.1488,-1.1843,-1.2613,-1.2705,-1.2705,-1.279,-1.313,-1.373,-1.465,-1.5816,-1.6664,-1.6826,-1.6719,-1.6754,-1.6826,-1.6794,-1.673,-1.673,-1.673,-1.673,-1.673,-1.673,-1.673,-1.673,-1.673,-1.673,-1.673,-1.673,-1.673,-1.673,-1.673,-1.673,-1.673,-1.673,-1.677,-1.6873,-1.6889,-1.6818,-1.2895,-1.2753,-1.272,-1.2621,-1.2469,-1.2639,-1.2611,-1.245,-1.2436,-1.2436,-1.2436,-1.2436,-1.2436,-1.2436,-1.2436,-1.2436,-1.2436,-1.2436,-1.2436,-1.2436,-1.2327,-1.2327,-1.2114,-1.1324,-1.0992,-1.0853,-0.9908,-0.9382,-0.9154,-0.7539,-0.6498,-0.5698,-0.2267,-0.0102,0.0806,0.2512,0.4425,0.6358,0.6348,0.6166,0.5907,0.5787,0.5662,0.5523,0.5331,0.5191,0.4916,0.5017,0.4345,0.2999,0.1716,0.0809,0.0161,-0.0635,-0.1102,-0.1026,-0.1185,-0.1271,-0.1297,-0.1322,-0.2002,-0.3263,-0.436,-0.5446,-0.6609,-0.8367,-0.9126,-0.8733,-0.9498,-1.0263,-1.0454,-1.0752,-1.1005,-1.1343,-1.1552,-1.2015,-1.2351,-1.2528,-1.2619,-1.2699,-1.2705,-1.2705,-1.2705,-1.2875,-1.3385,-1.4566,-1.5695,-1.6633,-1.692,-1.6742,-1.6771,-1.7012,-1.6976,-1.6696,-1.6664,-1.673,-1.673,-1.673,-1.673,-1.673,-1.673,-1.673,-1.673,-1.673,-1.673,-1.673,-1.673,-1.673,-1.673,-1.673,-1.6762,-1.6833,-1.7119,-1.7199,-1.7096,-1.2843,-1.2753,-1.263,-1.2521,-1.246,-1.254,-1.2521,-1.2441,-1.2436,-1.2436,-1.2436,-1.2436,-1.2436,-1.2436,-1.2436,-1.2436,-1.2436,-1.2436,-1.2436,-1.2436,-1.2436,-1.2436,-1.2327,-1.211,-1.1896,-1.1769,-1.0828,-1.0416,-1.0063,-0.8434,-0.729,-0.6618,-0.478,-0.3293,-0.1838,0.0202,0.1719,0.2659,0.3853,0.4386,0.4473,0.5388,0.5866,0.5598,0.5561,0.4857,0.3615,0.3022,0.2518,0.1846,0.0915,0.0083,-0.0747,-0.1152,-0.1319,-0.1336,-0.1338,-0.135,-0.1379,-0.2064,-0.3102,-0.4355,-0.4969,-0.6091,-0.7632,-0.9073,-0.9723,-0.9814,-1.0665,-1.1395,-1.1402,-1.1585,-1.1843,-1.2015,-1.2272,-1.254,-1.2705,-1.2705,-1.2705,-1.2705,-1.2705,-1.2711,-1.279,-1.3045,-1.3646,-1.451,-1.538,-1.6015,-1.6475,-1.6264,-1.629,-1.6733,-1.6743,-1.6745,-1.67,-1.673,-1.6746,-1.6738,-1.673,-1.673,-1.6762,-1.6738,-1.673,-1.6754,-1.6762,-1.6762,-1.673,-1.673,-1.673,-1.677,-1.6778,-1.6889,-1.7453,-1.7405,-1.7278,-1.2989,-1.2909,-1.2701,-1.2578,-1.2531,-1.2531,-1.2493,-1.2441,-1.2436,-1.2436,-1.2436,-1.2436,-1.2436,-1.2436,-1.2436,-1.2436,-1.2436,-1.2436,-1.2436,-1.2436,-1.2436,-1.2436,-1.2436,-1.2436,-1.2436,-1.2304,-1.1639,-1.1138,-1.0799,-0.9724,-0.8468,-0.7678,-0.6967,-0.5756,-0.4159,-0.2566,-0.1538,-0.0619,0.1735,0.3243,0.3414,0.4598,0.54,0.5593,0.5018,0.3685,0.1552,0.0942,0.0598,0.0513,-0.0,-0.0599,-0.1286,-0.1372,-0.1295,-0.1314,-0.1229,-0.1413,-0.1881,-0.2739,-0.3877,-0.5179,-0.5805,-0.6861,-0.8619,-0.9753,-1.0534,-1.1149,-1.1813,-1.2302,-1.2123,-1.2273,-1.24,-1.2394,-1.2748,-1.2922,-1.294,-1.2928,-1.294,-1.2922,-1.2982,-1.2928,-1.3021,-1.3473,-1.4183,-1.4541,-1.5016,-1.5364,-1.585,-1.5832,-1.5828,-1.6655,-1.6787,-1.6794,-1.6944,-1.7072,-1.7016,-1.7016,-1.7072,-1.708,-1.7016,-1.7024,-1.7024,-1.7207,-1.7008,-1.6961,-1.7104,-1.7064,-1.6961,-1.7016,-1.7088,-1.727,-1.7819,-1.7683,-1.7699,-1.3537,-1.3329,-1.3121,-1.2904,-1.2753,-1.2734,-1.2625,-1.2436,-1.2436,-1.2436,-1.2436,-1.2436,-1.2436,-1.2436,-1.2436,-1.2436,-1.2436,-1.2436,-1.2436,-1.2436,-1.2436,-1.2436,-1.2436,-1.2436,-1.2436,-1.2436,-1.2304,-1.1855,-1.121,-1.0983,-1.0466,-0.9448,-0.8012,-0.6989,-0.6474,-0.6145,-0.5265,-0.2902,0.062,0.298,0.303,0.3074,0.3886,0.5045,0.3446,0.1194,-0.0733,-0.0812,-0.0804,-0.1252,-0.125,-0.1339,-0.1429,-0.1429,-0.1339,-0.1163,-0.0984,-0.1611,-0.2956,-0.3398,-0.4113,-0.5544,-0.6609,-0.7822,-0.9717,-1.0691,-1.1565,-1.2472,-1.282,-1.2862,-1.2615,-1.2927,-1.3315,-1.3321,-1.3357,-1.3441,-1.3447,-1.3393,-1.3465,-1.3441,-1.3405,-1.3387,-1.3435,-1.4103,-1.4308,-1.4569,-1.5061,-1.5521,-1.5708,-1.5632,-1.5937,-1.6696,-1.6892,-1.6896,-1.7549,-1.7556,-1.7604,-1.758,-1.7493,-1.7644,-1.7707,-1.7731,-1.7691,-1.762,-1.7397,-1.7366,-1.7564,-1.7588,-1.7493,-1.7556,-1.7779,-1.8049,-1.8208,-1.8255,-1.824,-1.3372,-1.3164,-1.2961,-1.2828,-1.2758,-1.2616,-1.2507,-1.2441,-1.2436,-1.2436,-1.2436,-1.2436,-1.2436,-1.2436,-1.2436,-1.2436,-1.2436,-1.2436,-1.2436,-1.2436,-1.2436,-1.2436,-1.2436,-1.2436,-1.2436,-1.2436,-1.2436,-1.2219,-1.1891,-1.1345,-1.0878,-1.0474,-0.9388,-0.8448,-0.7758,-0.7157,-0.6355,-0.5367,-0.3644,-0.2269,-0.0922,-0.0906,-0.0,0.187,0.0574,-0.066,-0.1508,-0.1295,-0.1282,-0.1464,-0.1446,-0.1436,-0.1525,-0.2152,-0.2777,-0.313,-0.3398,-0.3848,-0.4385,-0.4743,-0.5392,-0.6719,-0.7714,-0.9097,-1.0831,-1.1679,-1.2221,-1.2987,-1.3459,-1.3519,-1.3409,-1.3477,-1.3513,-1.3513,-1.3519,-1.3538,-1.3513,-1.3513,-1.3513,-1.3513,-1.3513,-1.3513,-1.355,-1.3695,-1.405,-1.4424,-1.4468,-1.4799,-1.5074,-1.4948,-1.5325,-1.6357,-1.6793,-1.7081,-1.8364,-1.8001,-1.7763,-1.7755,-1.7747,-1.7755,-1.7803,-1.7858,-1.7826,-1.785,-1.7691,-1.7644,-1.7795,-1.7842,-1.7803,-1.8009,-1.8247,-1.8351,-1.8549,-1.8478,-1.8502,-1.3405,-1.3235,-1.2975,-1.2904,-1.2928,-1.2663,-1.2587,-1.2625,-1.2573,-1.2545,-1.2535,-1.2469,-1.2436,-1.2436,-1.2436,-1.2436,-1.2436,-1.2436,-1.2436,-1.2436,-1.2436,-1.2436,-1.2436,-1.2436,-1.2436,-1.2436,-1.2436,-1.2469,-1.2421,-1.1814,-1.1603,-1.1537,-1.0595,-0.9857,-0.9187,-0.8344,-0.7645,-0.7281,-0.6785,-0.5782,-0.4488,-0.4311,-0.3658,-0.2625,-0.2662,-0.2709,-0.2597,-0.2546,-0.251,-0.2492,-0.2461,-0.2345,-0.242,-0.3135,-0.3848,-0.4289,-0.4678,-0.515,-0.5425,-0.5986,-0.6859,-0.7953,-0.9249,-1.0682,-1.2005,-1.2392,-1.2859,-1.3385,-1.3749,-1.39,-1.3794,-1.3815,-1.3767,-1.3767,-1.3767,-1.3767,-1.3767,-1.3773,-1.3779,-1.3791,-1.3803,-1.3785,-1.3767,-1.3779,-1.3964,-1.4393,-1.4204,-1.4303,-1.4521,-1.4728,-1.5057,-1.6292,-1.6835,-1.7546,-1.8356,-1.8406,-1.8232,-1.8216,-1.8152,-1.8081,-1.8025,-1.8049,-1.8057,-1.8065,-1.8025,-1.7969,-1.7977,-1.8041,-1.8192,-1.839,-1.8454,-1.8533,-1.8613,-1.8629,-1.8645,-1.3679,-1.3599,-1.324,-1.3178,-1.3268,-1.2904,-1.2866,-1.2947,-1.2805,-1.2696,-1.2658,-1.2521,-1.2436,-1.2436,-1.2436,-1.2436,-1.2436,-1.2436,-1.2436,-1.2436,-1.2436,-1.2436,-1.2436,-1.2436,-1.2436,-1.2441,-1.2446,-1.255,-1.2687,-1.2463,-1.2477,-1.2455,-1.1652,-1.1004,-1.1008,-0.9972,-0.9258,-0.8383,-0.7472,-0.6888,-0.6706,-0.638,-0.6331,-0.6529,-0.5797,-0.509,-0.4806,-0.4616,-0.4336,-0.4354,-0.433,-0.4381,-0.4222,-0.4302,-0.4385,-0.4591,-0.4654,-0.5064,-0.5993,-0.7085,-0.808,-0.9351,-1.0925,-1.1951,-1.2384,-1.3037,-1.3507,-1.3561,-1.3797,-1.393,-1.3878,-1.4099,-1.422,-1.428,-1.4208,-1.4201,-1.4232,-1.4274,-1.4286,-1.4244,-1.4214,-1.428,-1.428,-1.4214,-1.4272,-1.4291,-1.4321,-1.4339,-1.4518,-1.4937,-1.5622,-1.648,-1.7138,-1.7792,-1.8357,-1.8812,-1.8796,-1.8772,-1.8692,-1.8621,-1.8549,-1.8541,-1.851,-1.8494,-1.8375,-1.8319,-1.8327,-1.8398,-1.8533,-1.8684,-1.87,-1.8676,-1.87,-1.8732,-1.8756,-1.3688,-1.3655,-1.34,-1.3325,-1.3334,-1.2947,-1.281,-1.2838,-1.2635,-1.2545,-1.2526,-1.2469,-1.2436,-1.2436,-1.2436,-1.2436,-1.2436,-1.2436,-1.2436,-1.2436,-1.2441,-1.2446,-1.2446,-1.2441,-1.2436,-1.2469,-1.2597,-1.2616,-1.2606,-1.2762,-1.2791,-1.2482,-1.2413,-1.1806,-1.1143,-1.0794,-1.0163,-0.9259,-0.8911,-0.8411,-0.7756,-0.7602,-0.7482,-0.7264,-0.6938,-0.685,-0.711,-0.5618,-0.4708,-0.4616,-0.4551,-0.4778,-0.5297,-0.538,-0.5786,-0.6423,-0.6653,-0.714,-0.8066,-0.8575,-0.9605,-1.1111,-1.2093,-1.2742,-1.3449,-1.3844,-1.4039,-1.4045,-1.4135,-1.4177,-1.4195,-1.4238,-1.4298,-1.4298,-1.4298,-1.4298,-1.4394,-1.4298,-1.4298,-1.4298,-1.4298,-1.4298,-1.4298,-1.4298,-1.4394,-1.4394,-1.4394,-1.4484,-1.4962,-1.5343,-1.6001,-1.7131,-1.7598,-1.7978,-1.845,-1.8827,-1.8827,-1.8827,-1.8827,-1.8827,-1.8827,-1.8827,-1.8827,-1.8796,-1.8684,-1.8645,-1.8661,-1.8708,-1.8796,-1.8827,-1.878,-1.878,-1.8819,-1.8827,-1.8827,-1.3688,-1.3665,-1.3476,-1.3433,-1.3447,-1.3055,-1.2928,-1.2961,-1.2767,-1.263,-1.2578,-1.2564,-1.2517,-1.245,-1.2436,-1.2436,-1.2436,-1.2436,-1.2436,-1.246,-1.254,-1.2559,-1.2559,-1.2564,-1.2611,-1.2663,-1.2734,-1.2786,-1.2805,-1.2956,-1.297,-1.2843,-1.2781,-1.2483,-1.1788,-1.1595,-1.1054,-1.0317,-1.0089,-0.9708,-0.8966,-0.8895,-0.8867,-0.8734,-0.8767,-0.9075,-0.9353,-0.7991,-0.6734,-0.595,-0.5746,-0.5966,-0.6519,-0.6885,-0.7482,-0.8038,-0.8675,-0.9177,-0.9836,-1.0283,-1.1024,-1.23,-1.2903,-1.344,-1.4166,-1.4298,-1.4298,-1.4298,-1.4292,-1.4298,-1.4298,-1.458,-1.4586,-1.4298,-1.4298,-1.4388,-1.4586,-1.4484,-1.4484,-1.4586,-1.4484,-1.4394,-1.4298,-1.4586,-1.4675,-1.4777,-1.4968,-1.5255,-1.5818,-1.6096,-1.6842,-1.7598,-1.7971,-1.835,-1.8643,-1.8827,-1.8827,-1.8827,-1.8827,-1.8827,-1.8827,-1.8827,-1.8827,-1.8827,-1.8756,-1.874,-1.8756,-1.8772,-1.8827,-1.8827,-1.8827,-1.8827,-1.8827,-1.8827,-1.8827,-1.3703,-1.3665,-1.3485,-1.3518,-1.3613,-1.3254,-1.3159,-1.3282,-1.3102,-1.2876,-1.2743,-1.2724,-1.2649,-1.2498,-1.2521,-1.254,-1.2488,-1.2526,-1.254,-1.2587,-1.271,-1.281,-1.2739,-1.2762,-1.2857,-1.297,-1.2899,-1.3003,-1.3206,-1.3192,-1.3183,-1.323,-1.2975,-1.28,-1.2641,-1.2573,-1.1928,-1.1367,-1.1232,-1.0769,-0.9975,-1.0281,-1.0625,-1.0822,-1.0828,-1.0936,-1.1194,-1.0775,-0.979,-0.829,-0.7837,-0.7854,-0.7976,-0.8726,-0.9194,-0.9341,-1.0405,-1.0758,-1.1292,-1.1773,-1.2571,-1.2882,-1.3669,-1.4298,-1.4298,-1.4298,-1.4298,-1.4298,-1.4298,-1.4394,-1.4484,-1.4956,-1.5057,-1.458,-1.4586,-1.4771,-1.5343,-1.4962,-1.4962,-1.5248,-1.4873,-1.449,-1.4682,-1.5153,-1.5439,-1.5534,-1.6015,-1.6298,-1.6669,-1.7037,-1.7505,-1.7971,-1.835,-1.8542,-1.8827,-1.8827,-1.8827,-1.8827,-1.8827,-1.8827,-1.8827,-1.8827,-1.8827,-1.8827,-1.8827,-1.8827,-1.8827,-1.8827,-1.8827,-1.8827,-1.8827,-1.8827,-1.8827,-1.8827,-1.8827,-1.3835,-1.3684,-1.3632,-1.3641,-1.3655,-1.341,-1.324,-1.3136,-1.2947,-1.2772,-1.2606,-1.2701,-1.2753,-1.2701,-1.2828,-1.2899,-1.2876,-1.288,-1.2899,-1.2937,-1.3126,-1.3027,-1.2862,-1.2928,-1.3032,-1.3107,-1.3188,-1.3202,-1.3178,-1.3395,-1.3391,-1.3154,-1.3206,-1.3126,-1.2984,-1.2781,-1.258,-1.2321,-1.2179,-1.1887,-1.1538,-1.1607,-1.1576,-1.1657,-1.108,-1.12,-1.169,-1.1359,-1.0979,-1.0296,-1.001,-0.9983,-1.0009,-1.0306,-1.0545,-1.0674,-1.0936,-1.1569,-1.2154,-1.2587,-1.3022,-1.3806,-1.41,-1.4298,-1.4298,-1.4298,-1.4298,-1.4298,-1.4298,-1.4586,-1.4962,-1.5343,-1.5534,-1.5913,-1.5534,-1.5432,-1.6008,-1.6103,-1.6103,-1.6197,-1.6109,-1.592,-1.592,-1.6103,-1.6298,-1.6298,-1.6581,-1.6864,-1.7326,-1.7598,-1.7971,-1.835,-1.8727,-1.8735,-1.8827,-1.8827,-1.8827,-1.8827,-1.8827,-1.8827,-1.8827,-1.8827,-1.8827,-1.8827,-1.8827,-1.8827,-1.8827,-1.8827,-1.8827,-1.8827,-1.8827,-1.8827,-1.8827,-1.8827,-1.8827,-1.3854,-1.3811,-1.3726,-1.3688,-1.3665,-1.3471,-1.3315,-1.3197,-1.3079,-1.2904,-1.2786,-1.2932,-1.2975,-1.2909,-1.3008,-1.3184,-1.3184,-1.3184,-1.306,-1.3117,-1.3367,-1.3419,-1.3329,-1.3358,-1.3414,-1.357,-1.3528,-1.3504,-1.3499,-1.3636,-1.3532,-1.3391,-1.3362,-1.3315,-1.3202,-1.3335,-1.3292,-1.3199,-1.3167,-1.3178,-1.297,-1.3181,-1.329,-1.3239,-1.2713,-1.2815,-1.3115,-1.2883,-1.2288,-1.1404,-1.0982,-1.0963,-1.1063,-1.1466,-1.1717,-1.1853,-1.2247,-1.2823,-1.3221,-1.3414,-1.3613,-1.4202,-1.4298,-1.4298,-1.4298,-1.4298,-1.4394,-1.4771,-1.4771,-1.5153,-1.5724,-1.5913,-1.6386,-1.7232,-1.6857,-1.6567,-1.7044,-1.6763,-1.6763,-1.6857,-1.677,-1.6588,-1.6588,-1.6864,-1.7044,-1.7138,-1.7426,-1.78,-1.8079,-1.8164,-1.8257,-1.8635,-1.8827,-1.8827,-1.8827,-1.8827,-1.8827,-1.8827,-1.8827,-1.8827,-1.8827,-1.8827,-1.8827,-1.8827,-1.8827,-1.8827,-1.8827,-1.8827,-1.8827,-1.8827,-1.8827,-1.8827,-1.8827,-1.8827,-1.8827,-1.3821,-1.3958,-1.3764,-1.3688,-1.3665,-1.3499,-1.341,-1.3386,-1.3358,-1.3235,-1.3107,-1.3277,-1.3235,-1.2978,-1.3173,-1.3274,-1.3279,-1.3317,-1.3173,-1.3296,-1.3542,-1.3759,-1.3854,-1.3783,-1.3906,-1.4104,-1.3896,-1.3859,-1.3877,-1.3816,-1.3759,-1.3693,-1.357,-1.3613,-1.3687,-1.3943,-1.3932,-1.4009,-1.4267,-1.4371,-1.4352,-1.4652,-1.4881,-1.5053,-1.4982,-1.492,-1.4873,-1.4589,-1.3737,-1.1742,-1.1595,-1.1726,-1.1741,-1.2528,-1.2818,-1.3017,-1.3516,-1.41,-1.4202,-1.4106,-1.4292,-1.449,-1.449,-1.449,-1.4682,-1.4867,-1.4962,-1.5534,-1.5527,-1.5913,-1.6574,-1.677,-1.7426,-1.8272,-1.8071,-1.7878,-1.7699,-1.7239,-1.7145,-1.7692,-1.7239,-1.6958,-1.6958,-1.7326,-1.7785,-1.7885,-1.8079,-1.8265,-1.845,-1.8542,-1.8542,-1.8735,-1.8827,-1.8827,-1.8827,-1.8827,-1.8827,-1.8827,-1.8827,-1.8827,-1.8827,-1.8827,-1.8827,-1.8827,-1.8827,-1.8827,-1.8827,-1.8827,-1.8827,-1.8827,-1.8827,-1.8827,-1.8827,-1.8827,-1.8827,-1.3868,-1.3755,-1.3712,-1.3688,-1.3684,-1.3641,-1.3537,-1.3395,-1.3395,-1.3291,-1.3159,-1.3301,-1.3362,-1.3329,-1.3462,-1.3556,-1.366,-1.3656,-1.3556,-1.3594,-1.3811,-1.3948,-1.4043,-1.4081,-1.4218,-1.4288,-1.4237,-1.4128,-1.4062,-1.4109,-1.4085,-1.3944,-1.3991,-1.426,-1.454,-1.4435,-1.4611,-1.486,-1.502,-1.5115,-1.5378,-1.5572,-1.58,-1.6103,-1.5935,-1.5692,-1.5421,-1.5161,-1.4791,-1.4242,-1.386,-1.3665,-1.3551,-1.3721,-1.3902,-1.3998,-1.41,-1.4394,-1.4394,-1.449,-1.4586,-1.5153,-1.5248,-1.5439,-1.6109,-1.6015,-1.6109,-1.6298,-1.6393,-1.6676,-1.7318,-1.7978,-1.8357,-1.8643,-1.8643,-1.8542,-1.8542,-1.8357,-1.8357,-1.8357,-1.8357,-1.8272,-1.8272,-1.8265,-1.8542,-1.8542,-1.8635,-1.8735,-1.8827,-1.8827,-1.8827,-1.8827,-1.8827,-1.8827,-1.8827,-1.8827,-1.8827,-1.8827,-1.8827,-1.8827,-1.8827,-1.8827,-1.8827,-1.8827,-1.8827,-1.8827,-1.8827,-1.8827,-1.8827,-1.8827,-1.8827,-1.8827,-1.8827,-1.8827,-1.8827,-1.4801,-1.4771,-1.5261,-1.51,-1.4634,-1.4629,-1.4212,-1.366,-1.3532,-1.3471,-1.34,-1.349,-1.3528,-1.3547,-1.374,-1.384,-1.3961,-1.4198,-1.4255,-1.4231,-1.4377,-1.449,-1.4416,-1.4337,-1.435,-1.4435,-1.4459,-1.4388,-1.4345,-1.4284,-1.4185,-1.4048,-1.4218,-1.4445,-1.4892,-1.5042,-1.5306,-1.5616,-1.5926,-1.6034,-1.615,-1.6239,-1.6357,-1.6522,-1.6186,-1.5976,-1.6393,-1.6103,-1.6132,-1.6182,-1.6077,-1.5382,-1.4667,-1.4653,-1.4777,-1.4867,-1.5248,-1.5343,-1.5343,-1.5439,-1.5629,-1.5913,-1.6008,-1.6197,-1.6487,-1.6588,-1.677,-1.7052,-1.7145,-1.7419,-1.8164,-1.845,-1.8735,-1.8827,-1.8827,-1.8827,-1.8827,-1.8827,-1.8827,-1.8827,-1.8735,-1.8735,-1.8827,-1.8827,-1.8827,-1.8735,-1.8735,-1.8827,-1.8827,-1.8827,-1.8827,-1.8827,-1.8827,-1.8827,-1.8827,-1.8827,-1.8827,-1.8827,-1.8827,-1.8827,-1.8827,-1.8827,-1.8827,-1.8827,-1.8827,-1.8827,-1.8827,-1.8827,-1.8827,-1.8827,-1.8827,-1.8827,-1.8827,-1.8827,-1.8827,-1.5449,-1.5608,-1.647,-1.6273,-1.5456,-1.5219,-1.4629,-1.3799,-1.3655,-1.3584,-1.3622,-1.3622,-1.3523,-1.366,-1.3783,-1.3906,-1.4314,-1.4714,-1.4726,-1.4804,-1.4993,-1.5049,-1.4968,-1.475,-1.4553,-1.4657,-1.4586,-1.4581,-1.4506,-1.4473,-1.4383,-1.4199,-1.4447,-1.4908,-1.5085,-1.5677,-1.6381,-1.6626,-1.7026,-1.711,-1.6906,-1.6846,-1.6942,-1.6736,-1.6729,-1.6836,-1.7219,-1.7187,-1.7298,-1.7995,-1.7823,-1.6753,-1.5808,-1.5402,-1.5688,-1.5695,-1.615,-1.6298,-1.6305,-1.6393,-1.6487,-1.6676,-1.677,-1.6864,-1.6958,-1.7153,-1.7426,-1.7699,-1.7885,-1.8071,-1.8735,-1.8827,-1.8827,-1.8827,-1.8827,-1.8827,-1.8827,-1.8827,-1.8827,-1.8827,-1.8827,-1.8827,-1.8827,-1.8827,-1.8827,-1.8827,-1.8827,-1.8827,-1.8827,-1.8835,-1.8843,-1.8827,-1.8827,-1.8827,-1.8827,-1.8827,-1.8827,-1.8827,-1.8827,-1.8827,-1.8827,-1.8827,-1.8827,-1.8827,-1.8827,-1.8827,-1.8827,-1.8827,-1.8827,-1.8827,-1.8827,-1.8827,-1.8827,-1.8827,-1.8827,-1.4062,-1.4086,-1.4291,-1.4162,-1.4043,-1.4043,-1.4162,-1.3655,-1.3769,-1.3443,-1.3551,-1.3268,-1.3451,-1.3452,-1.3471,-1.3822,-1.4525,-1.5034,-1.524,-1.5428,-1.5686,-1.5602,-1.5523,-1.4933,-1.4814,-1.4819,-1.4649,-1.4506,-1.452,-1.4633,-1.461,-1.4709,-1.5204,-1.5773,-1.6207,-1.6997,-1.7325,-1.7623,-1.7823,-1.7823,-1.7618,-1.7509,-1.7376,-1.7189,-1.7591,-1.7883,-1.7813,-1.7934,-1.8241,-1.8317,-1.803,-1.7768,-1.7472,-1.7155,-1.6905,-1.6814,-1.6873,-1.6992,-1.6971,-1.6826,-1.6972,-1.7318,-1.7542,-1.7916,-1.8195,-1.8365,-1.8265,-1.8357,-1.8542,-1.8635,-1.8735,-1.8827,-1.8827,-1.8827,-1.8859,-1.8867,-1.8867,-1.8907,-1.8931,-1.8978,-1.8923,-1.8867,-1.8907,-1.8915,-1.8891,-1.8883,-1.8867,-1.8843,-1.8827,-1.8859,-1.8891,-1.8859,-1.8827,-1.8827,-1.8827,-1.8827,-1.8827,-1.8827,-1.8827,-1.8827,-1.8827,-1.8827,-1.8827,-1.8827,-1.8827,-1.8827,-1.8827,-1.8827,-1.8827,-1.8827,-1.8827,-1.8827,-1.8827,-1.8827,-1.8827,-1.6626,-1.6626,-1.7331,-1.7291,-1.6906,-1.6672,-1.6352,-1.5829,-1.5628,-1.5056,-1.4677,-1.4488,-1.4325,-1.4257,-1.4187,-1.4605,-1.5199,-1.5894,-1.6046,-1.6192,-1.6176,-1.6192,-1.5957,-1.5246,-1.4906,-1.4645,-1.4518,-1.4402,-1.4482,-1.4657,-1.4857,-1.5218,-1.5734,-1.6311,-1.6954,-1.7314,-1.7894,-1.8237,-1.8294,-1.8173,-1.7889,-1.7774,-1.7557,-1.7818,-1.865,-1.909,-1.8707,-1.9035,-1.9425,-1.968,-1.9618,-1.9543,-1.9378,-1.9,-1.8505,-1.8057,-1.8082,-1.8288,-1.8296,-1.8311,-1.8517,-1.8766,-1.8635,-1.873,-1.8956,-1.8877,-1.8875,-1.8843,-1.8827,-1.8827,-1.8827,-1.8851,-1.8827,-1.8867,-1.8986,-1.9098,-1.9145,-1.9256,-1.9288,-1.9241,-1.9058,-1.9018,-1.9098,-1.9066,-1.8986,-1.8939,-1.8923,-1.8907,-1.8899,-1.8947,-1.9034,-1.909,-1.909,-1.9074,-1.901,-1.8891,-1.8907,-1.8899,-1.8827,-1.8827,-1.8827,-1.8827,-1.8827,-1.8827,-1.8827,-1.8827,-1.8827,-1.8827,-1.8827,-1.8827,-1.8827,-1.8827,-1.8827,-1.8827,-1.8827,-1.8855,-1.8978,-2.0095,-2.011,-1.9391,-1.9141,-1.8437,-1.7809,-1.7114,-1.6289,-1.5735,-1.5376,-1.5007,-1.4973,-1.5176,-1.5576,-1.6199,-1.6841,-1.6731,-1.6741,-1.6672,-1.6661,-1.6419,-1.5585,-1.5012,-1.5183,-1.4469,-1.4285,-1.4463,-1.4747,-1.5165,-1.5767,-1.6038,-1.6717,-1.7342,-1.7834,-1.8083,-1.8274,-1.8444,-1.8306,-1.8046,-1.7811,-1.7702,-1.8062,-1.9502,-2.0104,-1.9341,-2.0111,-2.0536,-2.0851,-2.0822,-2.0885,-2.0885,-2.0655,-2.0069,-1.9414,-1.9662,-1.9868,-1.9836,-1.9715,-1.9555,-1.9628,-1.9598,-1.9503,-1.9423,-1.9272,-1.909,-1.9034,-1.9066,-1.9105,-1.9145,-1.9074,-1.9074,-1.9121,-1.932,-1.9479,-1.9519,-1.9598,-1.9693,-1.955,-1.9248,-1.9248,-1.9415,-1.9407,-1.9368,-1.928,-1.9256,-1.9241,-1.9225,-1.9209,-1.928,-1.9383,-1.9415,-1.9399,-1.9264,-1.8994,-1.9018,-1.9066,-1.8923,-1.8827,-1.8827,-1.8827,-1.8827,-1.8827,-1.8827,-1.8827,-1.8827,-1.8827,-1.8827,-1.8827,-1.8827,-1.8827,-1.8827,-1.8827,-1.8827,-1.756,-1.7701,-1.8171,-1.804,-1.7917,-1.8177,-1.7903,-1.7503,-1.6349,-1.5848,-1.5997,-1.52,-1.4852,-1.4939,-1.5809,-1.6343,-1.6639,-1.6817,-1.7072,-1.7268,-1.7244,-1.7244,-1.7132,-1.607,-1.5828,-1.5828,-1.5033,-1.4568,-1.4654,-1.5266,-1.5731,-1.6116,-1.7022,-1.7842,-1.7949,-1.8354,-1.8878,-1.8957,-1.8927,-1.8801,-1.8553,-1.841,-1.821,-1.8621,-1.9656,-2.0637,-2.0131,-2.091,-2.1537,-2.1375,-2.1401,-2.1234,-2.098,-2.0893,-2.0853,-2.0522,-2.0289,-1.9868,-1.9932,-1.9979,-1.9995,-2.0003,-1.986,-1.982,-1.9725,-1.9701,-1.9622,-1.9741,-1.9701,-1.9646,-1.9606,-1.9677,-1.9717,-1.9701,-1.9725,-1.9805,-1.9844,-2.0019,-2.0098,-2.0067,-1.9836,-1.9797,-1.986,-1.982,-1.9765,-1.9669,-1.959,-1.9566,-1.9574,-1.9566,-1.9709,-1.9868,-1.9781,-1.9733,-1.9654,-1.936,-1.9185,-1.9241,-1.909,-1.8891,-1.8827,-1.8827,-1.8827,-1.8827,-1.8827,-1.8827,-1.8827,-1.8827,-1.8827,-1.8827,-1.8827,-1.8827,-1.8827,-1.8827,-1.8827,-1.9557,-1.957,-1.9699,-1.9881,-2.003,-1.9142,-1.8813,-1.8746,-1.7578,-1.6738,-1.635,-1.6474,-1.6225,-1.6348,-1.7354,-1.7672,-1.7496,-1.7402,-1.75,-1.7515,-1.7485,-1.7485,-1.725,-1.6661,-1.6301,-1.6183,-1.5736,-1.5283,-1.5325,-1.5603,-1.6045,-1.6876,-1.7328,-1.7811,-1.8221,-1.8728,-1.8746,-1.8656,-1.8619,-1.865,-1.8613,-1.8586,-1.8686,-1.9151,-2.0607,-2.1133,-2.1303,-2.1731,-2.2227,-2.2005,-2.1886,-2.1568,-2.1314,-2.1203,-2.1147,-2.0885,-2.0662,-2.0488,-2.048,-2.0448,-2.0416,-2.0384,-2.0273,-2.0083,-1.994,-1.9884,-1.9892,-1.9852,-1.9852,-1.9876,-1.9892,-1.986,-1.986,-1.9908,-2.0091,-2.0146,-2.0218,-2.0416,-2.0527,-2.0488,-2.044,-2.0361,-2.0241,-2.0083,-2.0067,-2.0075,-1.9916,-1.9781,-1.986,-1.9963,-2.0178,-2.0472,-2.0289,-2.0083,-1.9987,-1.9812,-1.9479,-1.9431,-1.9328,-1.9129,-1.8883,-1.8827,-1.8931,-1.8899,-1.8851,-1.8843,-1.8843,-1.8827,-1.8827,-1.8827,-1.8827,-1.8827,-1.8827,-1.8827,-1.8827,-2.1211,-2.1218,-2.1298,-2.1576,-2.1787,-2.0172,-1.9703,-2.0017,-1.8412,-1.7414,-1.7053,-1.7446,-1.7777,-1.7925,-1.8405,-1.8327,-1.801,-1.807,-1.7847,-1.7593,-1.7485,-1.7485,-1.7244,-1.6773,-1.6537,-1.6773,-1.6188,-1.6051,-1.6264,-1.6397,-1.6853,-1.7542,-1.757,-1.7984,-1.8506,-1.871,-1.8668,-1.8644,-1.8529,-1.8595,-1.8842,-1.9,-1.9461,-2.0242,-2.1271,-2.2179,-2.2315,-2.278,-2.2927,-2.2704,-2.2434,-2.2116,-2.1822,-2.1632,-2.1417,-2.1187,-2.1004,-2.0941,-2.0869,-2.0829,-2.0917,-2.0845,-2.0734,-2.044,-2.0249,-2.013,-2.0138,-2.021,-2.021,-2.0186,-2.013,-2.0162,-2.0218,-2.0313,-2.0392,-2.0464,-2.0535,-2.0662,-2.0758,-2.0726,-2.071,-2.0782,-2.0623,-2.0369,-2.0329,-2.0432,-2.0289,-2.0043,-2.0122,-2.0289,-2.0496,-2.0742,-2.0504,-2.0329,-2.0369,-2.0202,-1.9884,-1.9662,-1.9558,-1.9439,-1.9248,-1.9185,-1.9264,-1.9161,-1.901,-1.901,-1.909,-1.8955,-1.8827,-1.8827,-1.8827,-1.8827,-1.8827,-1.8827,-1.8827,-2.1211,-2.1233,-2.1525,-2.1511,-2.1227,-2.0247,-1.9802,-1.9679,-1.764,-1.7223,-1.7896,-1.8231,-1.8586,-1.8788,-1.8702,-1.8514,-1.8215,-1.7756,-1.7593,-1.7527,-1.7485,-1.7485,-1.7244,-1.7009,-1.6773,-1.7126,-1.6779,-1.679,-1.7168,-1.7108,-1.7264,-1.7351,-1.7672,-1.8285,-1.8553,-1.8565,-1.868,-1.8686,-1.8638,-1.8704,-1.9145,-1.9676,-2.0248,-2.0688,-2.1954,-2.2916,-2.2744,-2.3388,-2.3713,-2.3451,-2.3077,-2.2704,-2.2363,-2.2069,-2.1775,-2.1497,-2.1409,-2.1306,-2.1155,-2.0988,-2.0925,-2.0909,-2.0861,-2.079,-2.067,-2.0782,-2.0821,-2.0726,-2.0647,-2.071,-2.075,-2.0829,-2.0678,-2.067,-2.067,-2.0702,-2.0758,-2.0798,-2.0877,-2.0909,-2.0925,-2.0925,-2.0917,-2.0647,-2.0575,-2.067,-2.0591,-2.0353,-2.0424,-2.0575,-2.0718,-2.0821,-2.0591,-2.0543,-2.0726,-2.0527,-2.0194,-2.0027,-1.9932,-1.9836,-1.9717,-1.9685,-1.9558,-1.9542,-1.9423,-1.9376,-1.928,-1.9121,-1.8986,-1.8875,-1.8827,-1.8827,-1.8827,-1.8827,-1.8827,-2.1211,-2.1218,-2.135,-2.1437,-2.138,-1.9168,-1.864,-1.8836,-1.6903,-1.715,-1.9108,-1.9088,-1.9305,-1.9499,-1.9524,-1.8932,-1.8173,-1.7859,-1.7636,-1.7521,-1.7485,-1.7485,-1.7361,-1.7361,-1.725,-1.7361,-1.725,-1.7132,-1.7373,-1.7503,-1.7439,-1.7518,-1.7763,-1.8088,-1.8257,-1.8342,-1.842,-1.8553,-1.8559,-1.8589,-1.9059,-2.0005,-2.0903,-2.1568,-2.2299,-2.3574,-2.4006,-2.4007,-2.4158,-2.4023,-2.3634,-2.3244,-2.2887,-2.2529,-2.2164,-2.183,-2.1775,-2.1632,-2.1425,-2.1179,-2.0933,-2.0925,-2.0917,-2.0925,-2.0925,-2.0925,-2.0925,-2.0909,-2.0925,-2.0925,-2.0909,-2.0909,-2.0877,-2.0909,-2.0925,-2.0925,-2.0925,-2.0925,-2.0925,-2.0925,-2.0925,-2.0925,-2.0925,-2.0893,-2.0877,-2.0885,-2.079,-2.071,-2.0742,-2.0758,-2.0861,-2.0925,-2.0726,-2.067,-2.0837,-2.0678,-2.0472,-2.0384,-2.0289,-2.0186,-2.0067,-1.9868,-1.9773,-1.9797,-1.9781,-1.9638,-1.9479,-1.9288,-1.9105,-1.8907,-1.8835,-1.8827,-1.8827,-1.8827,-1.8827,-2.1269,-2.1335,-2.1247,-2.1342,-2.1264,-1.894,-1.833,-1.8523,-1.7044,-1.7363,-1.9592,-1.984,-1.9879,-2.0053,-1.9472,-1.8954,-1.8034,-1.7762,-1.7642,-1.7545,-1.7485,-1.7485,-1.7485,-1.7485,-1.7485,-1.7485,-1.7485,-1.7485,-1.7485,-1.7557,-1.7648,-1.769,-1.7696,-1.7998,-1.8028,-1.8106,-1.8167,-1.8438,-1.8456,-1.8796,-1.9305,-2.0478,-2.1587,-2.2445,-2.3387,-2.4116,-2.466,-2.4674,-2.4579,-2.4476,-2.4213,-2.3792,-2.3427,-2.3062,-2.2649,-2.2347,-2.2084,-2.1949,-2.1695,-2.1441,-2.1028,-2.0948,-2.0925,-2.0925,-2.0925,-2.0925,-2.0925,-2.0925,-2.0925,-2.0925,-2.0925,-2.0925,-2.0925,-2.0925,-2.0925,-2.0925,-2.0925,-2.0925,-2.0925,-2.0925,-2.0933,-2.0972,-2.1131,-2.1147,-2.1052,-2.1012,-2.0877,-2.0821,-2.0837,-2.0861,-2.0885,-2.0925,-2.0877,-2.0877,-2.0909,-2.0774,-2.067,-2.067,-2.0583,-2.0496,-2.0361,-2.0178,-2.0146,-2.0281,-2.0194,-1.9908,-1.9654,-1.9447,-1.9169,-1.8891,-1.8851,-1.8827,-1.8827,-1.8827,-1.8827,-2.1393,-2.1635,-2.1342,-2.1225,-2.1161,-1.9809,-1.9199,-1.9098,-1.8093,-1.8345,-1.9721,-2.0626,-2.0623,-1.9905,-1.9189,-1.8571,-1.827,-1.7848,-1.7738,-1.7726,-1.7596,-1.7485,-1.7485,-1.7485,-1.7485,-1.7485,-1.7491,-1.7491,-1.7527,-1.7702,-1.7805,-1.7925,-1.8028,-1.8106,-1.7943,-1.8167,-1.8541,-1.8921,-1.8734,-1.9305,-2.0346,-2.1328,-2.2348,-2.3333,-2.4186,-2.4802,-2.4893,-2.5,-2.4913,-2.4881,-2.4611,-2.4349,-2.4253,-2.3673,-2.3252,-2.2958,-2.2355,-2.1918,-2.1528,-2.1457,-2.1274,-2.0988,-2.0925,-2.0948,-2.0941,-2.0933,-2.102,-2.1115,-2.0988,-2.0956,-2.0933,-2.0925,-2.0933,-2.0941,-2.0941,-2.1028,-2.1036,-2.1163,-2.1219,-2.125,-2.1107,-2.1052,-2.129,-2.1409,-2.1258,-2.1139,-2.098,-2.0925,-2.0933,-2.0925,-2.0925,-2.0925,-2.0925,-2.0925,-2.0925,-2.0925,-2.0885,-2.0893,-2.0837,-2.0726,-2.071,-2.0647,-2.067,-2.0774,-2.0583,-2.0273,-1.9924,-1.9598,-1.9256,-1.8931,-1.8859,-1.8827,-1.8827,-1.8827,-1.8827,-2.1401,-2.1664,-2.135,-2.1443,-2.1583,-2.0218,-1.995,-2.0245,-1.9774,-2.0082,-2.1035,-2.1664,-2.1693,-2.1142,-2.0579,-1.9945,-1.9356,-1.8628,-1.8415,-1.8415,-1.783,-1.7596,-1.7485,-1.7485,-1.7491,-1.7485,-1.7497,-1.7612,-1.775,-1.7901,-1.8016,-1.8143,-1.8287,-1.8239,-1.8251,-1.8408,-1.8692,-1.877,-1.886,-1.9299,-2.0543,-2.1594,-2.2606,-2.3611,-2.461,-2.5111,-2.5103,-2.5103,-2.5103,-2.5071,-2.4785,-2.4635,-2.4515,-2.3967,-2.3554,-2.3316,-2.2855,-2.2394,-2.1981,-2.1743,-2.1497,-2.1171,-2.0988,-2.1091,-2.1211,-2.102,-2.1179,-2.1346,-2.1179,-2.1163,-2.1219,-2.102,-2.0972,-2.1004,-2.106,-2.1242,-2.1354,-2.1568,-2.1695,-2.1711,-2.1632,-2.1592,-2.1727,-2.1783,-2.1663,-2.1465,-2.1322,-2.1052,-2.0988,-2.0941,-2.0925,-2.0925,-2.0925,-2.0925,-2.0925,-2.0948,-2.0933,-2.0909,-2.0901,-2.0869,-2.0893,-2.0925,-2.0901,-2.0845,-2.0758,-2.0631,-2.0194,-1.9749,-1.9288,-1.8994,-1.8907,-1.8843,-1.8827,-1.8827,-1.8827,-2.1393,-2.1759,-2.1457,-2.174,-2.218,-2.0967,-2.0831,-2.1196,-2.1061,-2.1423,-2.1967,-2.2289,-2.2274,-2.1982,-2.1669,-2.1278,-2.027,-1.9693,-1.9345,-1.9229,-1.8415,-1.8181,-1.7948,-1.7614,-1.7563,-1.7569,-1.7642,-1.775,-1.8022,-1.8118,-1.8324,-1.8529,-1.8559,-1.8607,-1.8613,-1.8686,-1.8986,-1.9311,-1.9619,-2.0287,-2.1553,-2.2473,-2.3113,-2.3984,-2.4734,-2.5103,-2.5103,-2.5103,-2.5103,-2.5032,-2.4913,-2.4762,-2.4571,-2.4285,-2.392,-2.38,-2.3284,-2.272,-2.214,-2.1802,-2.1557,-2.1409,-2.1282,-2.1385,-2.1552,-2.1457,-2.1568,-2.164,-2.1465,-2.1409,-2.1401,-2.1179,-2.1155,-2.1195,-2.1274,-2.1465,-2.1671,-2.1878,-2.1957,-2.1997,-2.2021,-2.2045,-2.2124,-2.2132,-2.21,-2.1886,-2.1671,-2.1393,-2.1115,-2.1052,-2.106,-2.1099,-2.106,-2.106,-2.1036,-2.0988,-2.0972,-2.0933,-2.0948,-2.0972,-2.0925,-2.0925,-2.0925,-2.0925,-2.0845,-2.0686,-2.0337,-1.9916,-1.9439,-1.9105,-1.8947,-1.8883,-1.8835,-1.8827,-1.8827,-2.1624,-2.1963,-2.1802,-2.2184,-2.2736,-2.1971,-2.1502,-2.131,-2.1952,-2.2022,-2.1774,-2.3043,-2.2874,-2.1797,-2.1494,-2.1159,-2.073,-2.05,-2.027,-1.9924,-1.9107,-1.8874,-1.8298,-1.7843,-1.7687,-1.7744,-1.7859,-1.7925,-1.8275,-1.8505,-1.877,-1.9073,-1.9181,-1.9181,-1.9277,-1.948,-1.9739,-2.0074,-2.0631,-2.1407,-2.2724,-2.3355,-2.386,-2.461,-2.498,-2.5103,-2.5103,-2.5103,-2.5103,-2.5087,-2.5071,-2.5079,-2.4976,-2.4762,-2.4642,-2.4237,-2.3459,-2.2696,-2.2196,-2.1929,-2.1889,-2.1886,-2.1973,-2.1989,-2.1926,-2.1878,-2.1941,-2.1997,-2.191,-2.1735,-2.1592,-2.1528,-2.1473,-2.1505,-2.1536,-2.1719,-2.1934,-2.2061,-2.2108,-2.214,-2.2156,-2.2235,-2.245,-2.2506,-2.245,-2.2355,-2.2132,-2.1886,-2.16,-2.129,-2.1322,-2.1425,-2.1362,-2.125,-2.1219,-2.1258,-2.1266,-2.1314,-2.1099,-2.1068,-2.1004,-2.0948,-2.0925,-2.0925,-2.0925,-2.0734,-2.0392,-1.9995,-1.9566,-1.9296,-1.909,-1.8931,-1.8883,-1.8835,-1.8827,-2.174,-2.2109,-2.2024,-2.2283,-2.2526,-2.2336,-2.2328,-2.2441,-2.2679,-2.2624,-2.2675,-2.3004,-2.289,-2.2554,-2.2539,-2.2312,-2.1972,-2.1524,-2.0838,-2.0263,-1.9455,-1.8648,-1.8064,-1.7726,-1.7545,-1.7654,-1.7811,-1.8058,-1.8348,-1.8704,-1.8951,-1.9182,-1.9699,-1.9954,-2.0303,-2.075,-2.0777,-2.0929,-2.1461,-2.2473,-2.334,-2.3705,-2.434,-2.4849,-2.5063,-2.5071,-2.5103,-2.5103,-2.5103,-2.5103,-2.5103,-2.5103,-2.5079,-2.4762,-2.446,-2.38,-2.3109,-2.2513,-2.237,-2.2331,-2.2323,-2.2394,-2.2521,-2.2513,-2.2378,-2.222,-2.2243,-2.2331,-2.2275,-2.2077,-2.1973,-2.1918,-2.1846,-2.1838,-2.191,-2.21,-2.2307,-2.2442,-2.249,-2.2513,-2.2521,-2.2553,-2.2768,-2.2791,-2.2744,-2.272,-2.2601,-2.2347,-2.2053,-2.1727,-2.1624,-2.1743,-2.1687,-2.1576,-2.1663,-2.1719,-2.1711,-2.1671,-2.1409,-2.1219,-2.1203,-2.1131,-2.0988,-2.0925,-2.0925,-2.0734,-2.044,-2.0091,-1.9828,-1.9503,-1.928,-1.909,-1.8931,-1.8899,-1.8843,-2.1579,-2.1827,-2.2001,-2.224,-2.2425,-2.2466,-2.2625,-2.2807,-2.295,-2.3077,-2.3197,-2.3093,-2.3014,-2.3014,-2.2901,-2.2901,-2.2788,-2.2328,-2.1744,-2.0831,-1.9809,-1.8997,-1.8298,-1.7726,-1.7569,-1.7678,-1.7907,-1.8215,-1.8493,-1.8927,-1.92,-1.9826,-2.0456,-2.0836,-2.1335,-2.1957,-2.2341,-2.2223,-2.2473,-2.323,-2.3705,-2.4009,-2.4486,-2.4818,-2.5024,-2.4992,-2.5095,-2.5103,-2.5103,-2.5103,-2.5103,-2.5103,-2.5095,-2.4865,-2.4603,-2.4063,-2.3737,-2.3284,-2.3038,-2.295,-2.2847,-2.2784,-2.2887,-2.2847,-2.2752,-2.2601,-2.2704,-2.2791,-2.2577,-2.2402,-2.2355,-2.2307,-2.2235,-2.2172,-2.2347,-2.2521,-2.2696,-2.2871,-2.2934,-2.2966,-2.2966,-2.2958,-2.2998,-2.3014,-2.3006,-2.2919,-2.2863,-2.2752,-2.2434,-2.2077,-2.2029,-2.2116,-2.2021,-2.1918,-2.2137,-2.2417,-2.2212,-2.1953,-2.1552,-2.1401,-2.1296,-2.1219,-2.098,-2.0925,-2.0925,-2.075,-2.0591,-2.0424,-2.0178,-1.986,-1.9606,-1.9471,-1.9248,-1.8994,-1.8931,-2.1001,-2.162,-2.1868,-2.2072,-2.2434,-2.2386,-2.2434,-2.2553,-2.2839,-2.3157,-2.3348,-2.3157,-2.3014,-2.303,-2.3093,-2.307,-2.3077,-2.2851,-2.2268,-2.1517,-2.0493,-1.9577,-1.8642,-1.8071,-1.7681,-1.7841,-1.8258,-1.8495,-1.8943,-1.932,-1.9954,-2.0703,-2.1089,-2.1468,-2.2223,-2.323,-2.3604,-2.3604,-2.3604,-2.4108,-2.4663,-2.4767,-2.4762,-2.4992,-2.4913,-2.4793,-2.5024,-2.5103,-2.5103,-2.5103,-2.5103,-2.5103,-2.5087,-2.4984,-2.4754,-2.4555,-2.4229,-2.3927,-2.357,-2.3427,-2.3276,-2.3141,-2.3038,-2.299,-2.2895,-2.2847,-2.2934,-2.2966,-2.2768,-2.2688,-2.2633,-2.2609,-2.2553,-2.2529,-2.2625,-2.2744,-2.2863,-2.2974,-2.299,-2.3014,-2.3014,-2.3014,-2.3014,-2.3014,-2.3014,-2.3006,-2.299,-2.2958,-2.3237,-2.2857,-2.2942,-2.3007,-2.3269,-2.3403,-2.3353,-2.3369,-2.2763,-2.2336,-2.1865,-2.16,-2.1608,-2.1314,-2.0941,-2.0925,-2.0925,-2.0925,-2.0813,-2.0647,-2.048,-2.0257,-2.0035,-1.9908,-1.9646,-1.932,-1.9217,-2.1425,-2.1551,-2.1595,-2.1723,-2.2037,-2.1806,-2.2172,-2.2847,-2.2672,-2.2823,-2.3077,-2.3062,-2.3014,-2.3038,-2.3284,-2.3268,-2.3077,-2.3115,-2.2627,-2.1713,-2.0737,-2.0067,-1.9004,-1.8336,-1.7793,-1.7708,-1.8161,-1.902,-1.9695,-2.0251,-2.0709,-2.1713,-2.2215,-2.2849,-2.323,-2.4232,-2.461,-2.4602,-2.461,-2.461,-2.4949,-2.5071,-2.5048,-2.5079,-2.4976,-2.4944,-2.5087,-2.5103,-2.5103,-2.5103,-2.5103,-2.5103,-2.5103,-2.4873,-2.4698,-2.4555,-2.4388,-2.4174,-2.3935,-2.3721,-2.353,-2.3356,-2.3205,-2.3077,-2.3006,-2.3014,-2.3014,-2.3014,-2.2998,-2.2934,-2.2895,-2.2871,-2.2855,-2.2855,-2.2863,-2.2934,-2.2998,-2.3006,-2.3014,-2.3014,-2.3014,-2.3014,-2.3014,-2.3127,-2.3014,-2.3014,-2.3014,-2.3215,-2.4206,-2.431,-2.447,-2.4622,-2.5212,-2.5295,-2.4859,-2.4031,-2.3316,-2.2925,-2.2489,-2.222,-2.183,-2.1425,-2.1044,-2.0956,-2.0925,-2.0956,-2.0964,-2.0885,-2.0718,-2.0527,-2.0408,-2.0249,-2.0075,-1.9781,-1.9701,-2.1355,-2.1549,-2.1632,-2.1687,-2.1687,-2.1528,-2.1878,-2.245,-2.2498,-2.2688,-2.2982,-2.3014,-2.3014,-2.307,-2.3387,-2.3387,-2.3157,-2.3379,-2.2673,-2.172,-2.132,-2.0592,-1.9665,-1.8992,-1.873,-1.8627,-1.8935,-1.9747,-2.0579,-2.1141,-2.1699,-2.2594,-2.336,-2.3845,-2.41,-2.4857,-2.5103,-2.5103,-2.5103,-2.5103,-2.5071,-2.5,-2.5016,-2.5016,-2.4992,-2.4984,-2.5087,-2.5087,-2.5,-2.4921,-2.4849,-2.5,-2.5024,-2.4968,-2.477,-2.465,-2.4523,-2.438,-2.4118,-2.3904,-2.3705,-2.353,-2.3228,-2.3046,-2.3014,-2.3014,-2.3014,-2.3014,-2.3014,-2.2966,-2.2966,-2.295,-2.295,-2.295,-2.295,-2.299,-2.3006,-2.3014,-2.3014,-2.3014,-2.3014,-2.3014,-2.3239,-2.3904,-2.3896,-2.4223,-2.3999,-2.4428,-2.5203,-2.5753,-2.5972,-2.6073,-2.6499,-2.5954,-2.5023,-2.4241,-2.3446,-2.3275,-2.3056,-2.2546,-2.1918,-2.1497,-2.1163,-2.1171,-2.1131,-2.106,-2.1052,-2.1004,-2.0917,-2.0742,-2.0655,-2.0583,-2.0392,-2.0249,-2.0241,-2.1017,-2.1618,-2.1794,-2.1751,-2.152,-2.1401,-2.1616,-2.1997,-2.2283,-2.2601,-2.2911,-2.2982,-2.3022,-2.3197,-2.3419,-2.3324,-2.3395,-2.3729,-2.2929,-2.2444,-2.221,-2.1416,-2.1009,-2.0564,-1.9915,-1.9721,-1.9945,-2.0361,-2.0999,-2.1691,-2.24,-2.3185,-2.3718,-2.4186,-2.4841,-2.5103,-2.5103,-2.5103,-2.5103,-2.5103,-2.4976,-2.4825,-2.4928,-2.4921,-2.4825,-2.4801,-2.4992,-2.5,-2.4857,-2.4841,-2.4762,-2.4833,-2.496,-2.4984,-2.4936,-2.4809,-2.4881,-2.4674,-2.4404,-2.4206,-2.3943,-2.3657,-2.3268,-2.3077,-2.3062,-2.3014,-2.3014,-2.3014,-2.3014,-2.3014,-2.3014,-2.3014,-2.3014,-2.3014,-2.3014,-2.3014,-2.3014,-2.3014,-2.3014,-2.3014,-2.3014,-2.3014,-2.3792,-2.4342,-2.4778,-2.5212,-2.5634,-2.6273,-2.6707,-2.7041,-2.7375,-2.7159,-2.7149,-2.64,-2.5652,-2.4556,-2.4008,-2.3541,-2.3288,-2.2659,-2.2029,-2.1703,-2.1505,-2.1505,-2.1457,-2.137,-2.1211,-2.1123,-2.102,-2.1019,-2.0829,-2.0758,-2.075,-2.0647,-2.0766,-2.1108,-2.1934,-2.1663,-2.1655,-2.1751,-2.1274,-2.1377,-2.1902,-2.2029,-2.2259,-2.2617,-2.2934,-2.3149,-2.3459,-2.38,-2.3832,-2.3785,-2.4094,-2.4094,-2.3716,-2.2902,-2.2383,-2.1788,-2.1291,-2.0711,-2.0614,-2.0872,-2.1146,-2.1874,-2.2352,-2.3067,-2.4186,-2.4248,-2.4597,-2.4972,-2.5103,-2.5103,-2.5103,-2.5103,-2.5103,-2.5103,-2.5032,-2.5056,-2.4968,-2.4785,-2.4873,-2.4944,-2.4801,-2.4865,-2.4936,-2.4952,-2.4865,-2.4897,-2.4984,-2.4976,-2.4928,-2.5016,-2.4897,-2.4635,-2.4468,-2.4206,-2.3832,-2.3491,-2.3236,-2.3165,-2.3014,-2.3014,-2.3014,-2.3014,-2.3127,-2.3127,-2.3239,-2.3239,-2.3127,-2.3127,-2.3014,-2.3014,-2.3014,-2.3014,-2.3127,-2.3239,-2.3792,-2.4556,-2.5101,-2.5533,-2.5963,-2.6499,-2.714,-2.7795,-2.8232,-2.8668,-2.8349,-2.8019,-2.7902,-2.758,-2.5533,-2.4642,-2.4097,-2.3521,-2.2897,-2.2421,-2.1989,-2.1854,-2.1862,-2.1913,-2.1932,-2.165,-2.1611,-2.1354,-2.1361,-2.1051,-2.0893,-2.0925,-2.0925,-2.0925]},{"header":{"parameterUnit":"m.s-1","parameterCategory":1,"la1":31.0,"la2":29.5877,"lo1":-88.7671,"lo2":-86.6584,"dy":0.0162,"dx":0.0185,"nx":115,"ny":88,"refTime":"2023-05-16T18:00:00:Z","depth":0,"parameterNumber":3,"parameterNumberName":"V-component_of_WINDS"},"data":[0.0,0.0,0.0,0.0,0.0,0.0,0.0,0.0,0.0,0.0,0.0,0.0,0.0,0.0,0.0,0.0,0.0,0.0,0.0,0.0,0.0,0.0,0.0,0.0,0.0,0.0,0.0,0.0,0.0,0.0,0.0,0.0,0.0,0.0,0.0,0.0,0.0,0.0,0.0,0.0,0.0,0.0,0.0,0.0,0.0,0.0,0.0,0.0,0.0,0.0,0.0,0.0,0.0,0.0,0.0,0.0,0.0,0.0,0.0,0.0,0.0,0.0,0.0,0.0,0.0,0.0,0.0,0.0,0.0,0.0,0.0,0.0,0.0,0.0,0.0,0.0,0.0,0.0,0.0,0.0,0.0,0.0,0.0,0.0,0.0,0.0,0.0,0.0,0.0,0.0,0.0,0.0,0.0,0.0,0.0,0.0,0.0,0.0,0.0,0.0,0.0,0.0,0.0,0.0,0.0,0.0,0.0,0.0,0.0,0.0,0.0,0.0,0.0,0.0,0.0,0.0,0.0,0.0,0.0,0.0,0.0,0.0,0.0,0.0,0.0,0.0,0.0,0.0,0.0,0.0,0.0,0.0,0.0,0.0,0.0,0.0,0.0,0.0,0.0,0.0,0.0,0.0,0.0,0.0,0.0,0.0,0.0,0.0,0.0,0.0,0.0,0.0,0.0,0.0,0.0,0.0,0.0,0.0,0.0,0.0,0.0,0.0,0.0,0.0,0.0,0.0,0.0,0.0,0.0,0.0,0.0,0.0,0.0,0.0,0.0,0.0,0.0,0.0,0.0,0.0,0.0,0.0,0.0,0.0,0.0,0.0,0.0,0.0,0.0,0.0,0.0,0.0,0.0,0.0,0.0,0.0,0.0,0.0,0.0,0.0,0.0,0.0,0.0,0.0,0.0,0.0,0.0,0.0,0.0,0.0,0.0,0.0,0.0,0.0,0.0,0.0,0.0,0.0,0.0,0.0,0.0,0.0,0.0,0.0,0.0,0.0,0.0,0.0,0.0,0.0,0.0,0.0,0.0,0.0,0.0,0.0,0.0,0.0,0.0,0.0,0.0,0.0,0.0,0.0,0.0,0.0,0.0,0.0,0.0,0.0,0.0,0.0,0.0,0.0,0.0,0.0,0.0,0.0,0.0,0.0,0.0,0.0,0.0,0.0,0.0,0.0,0.0,0.0,0.0,0.0,0.0,0.0,0.0,0.0,0.0,0.0,0.0,0.0,0.0,0.0,0.0,0.0,0.0,0.0,0.0,0.0,0.0,0.0,0.0,0.0,0.0,0.0,0.0,0.0,0.0,0.0,0.0,0.0,0.0,0.0,0.0,0.0,0.0,0.0,0.0,0.0,0.0,0.0,0.0,0.0,0.0,0.0,0.0,0.0,0.0,0.0,0.0,0.0,0.0,0.0,0.0,0.0,0.0,0.0,0.0,0.0,0.0,0.0,0.0,0.0,0.0,0.0,0.0,0.0,0.0,0.0,0.0,0.0,0.0,0.0,0.0,0.0,0.0,0.0,0.0,0.0,0.0,0.0,0.0,0.0,0.0,0.0,0.0,0.0,0.0,0.0,0.0,0.0,0.0,0.0,0.0,0.0,0.0,0.0,0.0,0.0,0.0,0.0,0.0,0.0,0.0,0.0,0.0,0.0,0.0,0.0,0.0,0.0,0.0,0.0,0.0,0.0,0.0,0.0,0.0,0.0,0.0,0.0,0.0,0.0,0.0,0.0,0.0,0.0,0.0,0.0,0.0,0.0,0.0,0.0,0.0,0.0,0.0,0.0,0.0,0.0,0.0,0.0,0.0,0.0,0.0,0.0,0.0,0.0,0.0,0.0,0.0,0.0,0.0,0.0,0.0,0.0,0.0,0.0,0.0,0.0,0.0,0.0,0.0,0.0,0.0,0.0,0.0,0.0,0.0,0.0,0.0,0.0,0.0,0.0,0.0,0.0,0.0,0.0,0.0,0.0,0.0,0.0,0.0,0.0,0.0,0.0,0.0,0.0,0.0,0.0,0.0,0.0,0.0,0.0,0.0,0.0,0.0,0.0,0.0,0.0,0.0,0.0,0.0,0.0,0.0,0.0,0.0,0.0,0.0,0.0,0.0,0.0,0.0,0.0,0.0,0.0,0.0,0.0,0.0,0.0,0.0,0.0,0.0,0.0,0.0,0.0,0.0,0.0,0.0,0.0,0.0,0.0,0.0,0.0,0.0,0.0,0.0,0.0,0.0,0.0,0.0,0.0,0.0,0.0,0.0,0.0,0.0,0.0,0.0,0.0,0.0,0.0,0.0,0.0,0.0,0.0,0.0,0.0,0.0,0.0,0.0,0.0,0.0,0.0,0.0,0.0,0.0,0.0,0.0,0.0,0.0,0.0,0.0,0.0,0.0,0.0,0.0,0.0,0.0,0.0,0.0,0.0,0.0,0.0,0.0,0.0,0.0,0.0,0.0,0.0,0.0,0.0,0.0,0.0,0.0,0.0,0.0,0.0,0.0,0.0,0.0,0.0,0.0,0.0,0.0,0.0,0.0,0.0,0.0,0.0,0.0,0.0,0.0,0.0,0.0,0.0,0.0,0.0,0.0,0.0,0.0,0.0,0.0,0.0,0.0,0.0,0.0,0.0,0.0,0.0,0.0,0.0,0.0,0.0,0.0,0.0,0.0,0.0,0.0,0.0,0.0,0.0,0.0,0.0,0.0,0.0,0.0,0.0,0.0,0.0,0.0,0.0,0.0,0.0,0.0,0.0,0.0,0.0,0.0,0.0,0.0,0.0,0.0,0.0,0.0,0.0,0.0,0.0,0.0,0.0,0.0,0.0,0.0,0.0,0.0,0.0,0.0,0.0,0.0,0.0,0.0,0.0,0.0,0.0,0.0,0.0,0.0,0.0,0.0,0.0,0.0,0.0,0.0,0.0,0.0,0.0,0.0,0.0,0.0,0.0,0.0,0.0,0.0,0.0,0.0,0.0,0.0,0.0,0.0,0.0,0.0,0.0,0.0,0.0,0.0,0.0,0.0,0.0,0.0,0.0,0.0,0.0,0.0,0.0,0.0,0.0,0.0,0.0,0.0,0.0,0.0,0.0,0.0,0.0,0.0,0.0,0.0,0.0,0.0,0.0,0.0,0.0,0.0,0.0,0.0,0.0,0.0,0.0,0.0,0.0,0.0,0.0,0.0,0.0,0.0,0.0,0.0,0.0,0.0,0.0,0.0,0.0,0.0,0.0,0.0,0.0,0.0,0.0,0.0,0.0,0.0,0.0,0.0,0.0,0.0,0.0,0.0,0.0,0.0,0.0,0.0,0.0,0.0,0.0,0.0,0.0,0.0,0.0,0.0,0.0,0.0,0.0,0.0,0.0,0.0,0.0,0.0,0.0,0.0,0.0,0.0,0.0,0.0,0.0,0.0,0.0,0.0,0.0,0.0,0.0,0.0,0.0,0.0,0.0,0.0,0.0,0.0,0.0,0.0,0.0,0.0,0.0,0.0,0.0,0.0,0.0,0.0,0.0,0.0,0.0,0.0,0.0,0.0,0.0,0.0,0.0,0.0,0.0,0.0,0.0,0.0,0.0,0.0,0.0,0.0,0.0,0.0,0.0,0.0,0.0,0.0,0.0,0.0,0.0,0.0,0.0,0.0,0.0,0.0,0.0,0.0,0.0,0.0,0.0,0.0,0.0,0.0,0.0,0.0,0.0,0.0,0.0,0.0,0.0,0.0,0.0,0.0,0.0,0.0,0.0,0.0,0.0,0.0,0.0,0.0,0.0,0.0,0.0,0.0,0.0,0.0,0.0,0.0,0.0,0.0,0.0,0.0,0.0,0.0,0.0,0.0,0.0,0.0,0.0,0.0,0.0,0.0,0.0,0.0,0.0,0.0,0.0,0.0,0.0,0.0,0.0,0.0,0.0,0.0,0.0,0.0,0.0,0.0,0.0,0.0,0.0,0.0,0.0,0.0,0.0,0.0,0.0,0.0,0.0,0.0,0.0,0.0,0.0,0.0,0.0,0.0,0.0,0.0,0.0,0.0,0.0,0.0,0.0,0.0,0.0,0.0,0.0,0.0,0.0,0.0,0.0,0.0,0.0,0.0,0.0,0.0,0.0,0.0,0.0,0.0,0.0,0.0,0.0,0.0,0.0,0.0,0.0,0.0,0.0,0.0,0.0,0.0,0.0,0.0,0.0,0.0,0.0,0.0,0.0,0.0,0.0,0.0,0.0,0.0,0.0,0.0,0.0,0.0,0.0,0.0,0.0,0.0,0.0,0.0,0.0,-1.9974,0.0,0.0,0.0,0.0,0.0,0.0,0.0,0.0,0.0,0.0,0.0,0.0,0.0,0.0,0.0,0.0,0.0,0.0,0.0,0.0,0.0,0.0,0.0,0.0,0.0,0.0,0.0,0.0,0.0,0.0,0.0,0.0,0.0,0.0,0.0,0.0,0.0,0.0,0.0,0.0,0.0,0.0,0.0,0.0,0.0,0.0,0.0,0.0,0.0,0.0,0.0,0.0,0.0,0.0,0.0,0.0,0.0,0.0,0.0,0.0,0.0,0.0,0.0,0.0,0.0,0.0,0.0,0.0,0.0,0.0,0.0,0.0,0.0,0.0,0.0,0.0,0.0,0.0,0.0,0.0,0.0,0.0,0.0,0.0,0.0,0.0,0.0,0.0,0.0,0.0,0.0,0.0,0.0,0.0,0.0,0.0,0.0,0.0,0.0,0.0,0.0,0.0,0.0,0.0,0.0,0.0,0.0,0.0,0.0,0.0,-2.0304,-2.0209,-2.0218,-2.0175,-2.0096,0.0,0.0,0.0,0.0,0.0,0.0,0.0,0.0,0.0,0.0,0.0,0.0,0.0,0.0,0.0,0.0,0.0,0.0,0.0,0.0,0.0,0.0,0.0,0.0,0.0,0.0,0.0,0.0,0.0,0.0,0.0,0.0,0.0,0.0,0.0,0.0,0.0,0.0,0.0,0.0,0.0,0.0,0.0,0.0,0.0,0.0,0.0,0.0,0.0,0.0,0.0,0.0,0.0,0.0,0.0,0.0,0.0,0.0,0.0,0.0,0.0,0.0,0.0,0.0,0.0,0.0,0.0,0.0,0.0,0.0,0.0,0.0,0.0,0.0,0.0,0.0,0.0,0.0,0.0,0.0,0.0,0.0,0.0,0.0,0.0,0.0,0.0,0.0,0.0,0.0,0.0,0.0,0.0,0.0,0.0,0.0,0.0,0.0,0.0,0.0,0.0,0.0,0.0,0.0,0.0,0.0,0.0,0.0,0.0,0.0,0.0,0.0,-2.0269,-2.0254,-2.0169,0.0,0.0,0.0,0.0,0.0,0.0,0.0,0.0,0.0,0.0,0.0,0.0,0.0,0.0,0.0,0.0,0.0,0.0,0.0,0.0,0.0,0.0,0.0,0.0,0.0,0.0,0.0,0.0,0.0,0.0,0.0,0.0,0.0,0.0,0.0,0.0,0.0,0.0,0.0,0.0,0.0,0.0,0.0,0.0,0.0,0.0,0.0,0.0,0.0,0.0,0.0,0.0,0.0,0.0,0.0,0.0,0.0,0.0,0.0,0.0,0.0,0.0,0.0,0.0,0.0,0.0,0.0,0.0,0.0,0.0,0.0,0.0,0.0,0.0,0.0,0.0,0.0,0.0,0.0,0.0,0.0,0.0,0.0,0.0,0.0,0.0,0.0,0.0,0.0,0.0,0.0,0.0,0.0,0.0,0.0,0.0,0.0,0.0,0.0,0.0,0.0,0.0,0.0,0.0,0.0,0.0,0.0,0.0,0.0,0.0,-2.0242,-2.0135,-2.0192,0.0,-2.003,0.0,0.0,0.0,0.0,0.0,0.0,0.0,0.0,0.0,0.0,0.0,0.0,0.0,0.0,0.0,0.0,0.0,0.0,0.0,0.0,0.0,0.0,0.0,0.0,0.0,0.0,0.0,0.0,0.0,0.0,0.0,0.0,0.0,0.0,0.0,0.0,0.0,0.0,0.0,0.0,0.0,0.0,0.0,0.0,0.0,0.0,0.0,0.0,0.0,0.0,0.0,0.0,0.0,0.0,0.0,0.0,0.0,0.0,0.0,0.0,0.0,0.0,0.0,0.0,0.0,0.0,0.0,0.0,0.0,0.0,0.0,0.0,0.0,0.0,0.0,0.0,0.0,0.0,0.0,0.0,0.0,0.0,0.0,0.0,0.0,0.0,0.0,0.0,0.0,0.0,0.0,0.0,0.0,0.0,0.0,0.0,0.0,0.0,0.0,0.0,0.0,0.0,0.0,0.0,0.0,0.0,0.0,0.0,0.0,0.0,-2.0308,-2.0211,-2.0252,-2.0208,0.0,0.0,0.0,0.0,0.0,0.0,0.0,0.0,0.0,0.0,0.0,0.0,0.0,0.0,0.0,0.0,0.0,0.0,0.0,0.0,0.0,0.0,0.0,0.0,0.0,0.0,0.0,0.0,0.0,0.0,0.0,0.0,0.0,0.0,0.0,0.0,0.0,0.0,0.0,0.0,0.0,0.0,0.0,0.0,0.0,0.0,0.0,0.0,0.0,0.0,0.0,0.0,0.0,0.0,0.0,0.0,0.0,0.0,0.0,0.0,0.0,0.0,0.0,0.0,0.0,0.0,0.0,0.0,0.0,0.0,0.0,0.0,0.0,0.0,0.0,0.0,0.0,0.0,0.0,0.0,0.0,0.0,0.0,0.0,0.0,0.0,0.0,0.0,0.0,0.0,0.0,0.0,0.0,0.0,0.0,0.0,0.0,0.0,0.0,0.0,0.0,0.0,0.0,0.0,0.0,0.0,0.0,0.0,0.0,0.0,-2.0388,-2.0328,-2.0248,-2.0227,-2.0134,-2.0058,0.0,0.0,0.0,0.0,0.0,0.0,0.0,0.0,0.0,0.0,0.0,0.0,0.0,0.0,0.0,0.0,0.0,0.0,0.0,0.0,0.0,0.0,0.0,0.0,0.0,0.0,0.0,0.0,0.0,0.0,0.0,0.0,0.0,0.0,0.0,0.0,0.0,0.0,0.0,0.0,0.0,0.0,0.0,0.0,0.0,0.0,0.0,0.0,0.0,0.0,0.0,0.0,0.0,0.0,0.0,0.0,0.0,0.0,0.0,0.0,0.0,0.0,0.0,0.0,0.0,0.0,0.0,0.0,0.0,0.0,0.0,0.0,0.0,0.0,0.0,0.0,0.0,0.0,0.0,0.0,0.0,0.0,0.0,0.0,0.0,0.0,0.0,0.0,0.0,0.0,0.0,0.0,0.0,0.0,0.0,0.0,0.0,0.0,0.0,0.0,0.0,0.0,0.0,0.0,0.0,0.0,0.0,0.0,-2.0386,-2.0315,-2.0238,-2.0127,-1.9988,-1.9911,0.0,0.0,0.0,0.0,0.0,0.0,0.0,0.0,0.0,0.0,0.0,0.0,0.0,0.0,0.0,0.0,0.0,0.0,0.0,0.0,0.0,0.0,0.0,0.0,0.0,0.0,0.0,0.0,0.0,0.0,0.0,0.0,0.0,0.0,0.0,0.0,0.0,0.0,0.0,0.0,0.0,0.0,0.0,0.0,0.0,0.0,0.0,0.0,0.0,0.0,0.0,0.0,0.0,0.0,0.0,0.0,0.0,0.0,0.0,0.0,0.0,0.0,0.0,0.0,0.0,0.0,0.0,0.0,0.0,0.0,0.0,0.0,0.0,0.0,0.0,0.0,0.0,0.0,0.0,0.0,0.0,0.0,0.0,0.0,0.0,0.0,0.0,0.0,0.0,0.0,0.0,0.0,0.0,0.0,0.0,0.0,0.0,0.0,0.0,0.0,0.0,0.0,0.0,0.0,0.0,0.0,0.0,0.0,0.0,-2.0396,-2.0321,-2.0258,-2.0159,-2.0031,-1.9926,0.0,0.0,0.0,0.0,0.0,0.0,0.0,0.0,0.0,0.0,0.0,0.0,0.0,0.0,0.0,0.0,0.0,0.0,0.0,0.0,0.0,0.0,0.0,0.0,0.0,0.0,0.0,0.0,0.0,0.0,0.0,0.0,0.0,0.0,0.0,0.0,0.0,0.0,0.0,0.0,0.0,0.0,0.0,0.0,0.0,0.0,0.0,0.0,0.0,0.0,0.0,0.0,0.0,0.0,0.0,0.0,0.0,0.0,0.0,0.0,0.0,0.0,0.0,0.0,0.0,0.0,0.0,0.0,0.0,0.0,0.0,0.0,0.0,0.0,0.0,0.0,0.0,0.0,0.0,0.0,0.0,0.0,0.0,0.0,0.0,0.0,0.0,0.0,0.0,0.0,0.0,0.0,0.0,0.0,0.0,0.0,0.0,0.0,0.0,0.0,0.0,0.0,0.0,0.0,0.0,0.0,0.0,0.0,0.0,-2.0429,0.0,-2.0265,-2.0192,-2.006,-1.9928,0.0,0.0,0.0,0.0,0.0,0.0,0.0,0.0,0.0,0.0,0.0,0.0,0.0,0.0,0.0,0.0,0.0,0.0,0.0,0.0,0.0,0.0,0.0,0.0,0.0,0.0,0.0,0.0,0.0,0.0,0.0,0.0,0.0,0.0,0.0,0.0,0.0,0.0,0.0,0.0,0.0,0.0,0.0,0.0,0.0,0.0,0.0,0.0,0.0,0.0,0.0,0.0,0.0,0.0,0.0,0.0,0.0,0.0,0.0,0.0,0.0,0.0,0.0,0.0,0.0,0.0,0.0,0.0,0.0,0.0,0.0,0.0,0.0,0.0,0.0,0.0,0.0,0.0,0.0,0.0,0.0,0.0,0.0,0.0,0.0,0.0,0.0,0.0,0.0,0.0,0.0,0.0,0.0,0.0,0.0,0.0,0.0,0.0,0.0,0.0,0.0,0.0,0.0,0.0,0.0,0.0,0.0,0.0,-2.0569,-2.0506,-2.0421,-2.0371,-2.0159,-2.0108,-1.9945,0.0,0.0,0.0,0.0,0.0,0.0,0.0,0.0,0.0,0.0,0.0,0.0,0.0,0.0,0.0,0.0,0.0,0.0,0.0,0.0,0.0,0.0,0.0,0.0,0.0,0.0,0.0,0.0,0.0,0.0,0.0,0.0,0.0,0.0,0.0,0.0,0.0,0.0,0.0,0.0,0.0,0.0,0.0,0.0,0.0,0.0,0.0,0.0,0.0,0.0,0.0,0.0,0.0,0.0,0.0,0.0,0.0,0.0,0.0,0.0,0.0,0.0,0.0,0.0,0.0,0.0,0.0,0.0,0.0,0.0,0.0,0.0,0.0,0.0,0.0,0.0,0.0,0.0,0.0,0.0,0.0,0.0,0.0,0.0,0.0,0.0,0.0,0.0,0.0,0.0,0.0,0.0,0.0,0.0,0.0,0.0,0.0,0.0,0.0,0.0,0.0,0.0,0.0,0.0,0.0,0.0,0.0,0.0,0.0,-2.1418,-2.19,-2.2107,-2.1941,-2.1272,-2.0817,0.0,0.0,0.0,0.0,0.0,0.0,0.0,0.0,0.0,0.0,0.0,0.0,0.0,0.0,0.0,0.0,0.0,0.0,0.0,0.0,0.0,0.0,0.0,0.0,0.0,0.0,0.0,0.0,0.0,0.0,0.0,0.0,0.0,0.0,0.0,0.0,0.0,0.0,0.0,0.0,0.0,0.0,0.0,0.0,0.0,0.0,0.0,0.0,0.0,0.0,0.0,0.0,0.0,0.0,0.0,0.0,0.0,0.0,0.0,0.0,0.0,0.0,0.0,0.0,0.0,0.0,0.0,0.0,0.0,0.0,0.0,0.0,0.0,0.0,0.0,0.0,0.0,0.0,0.0,0.0,0.0,0.0,0.0,0.0,0.0,0.0,0.0,0.0,0.0,0.0,0.0,0.0,0.0,0.0,0.0,0.0,0.0,0.0,0.0,0.0,0.0,0.0,0.0,0.0,0.0,0.0,0.0,0.0,0.0,-2.3727,-2.3864,-2.3772,-2.3325,-2.2964,-2.2411,-2.1668,0.0,0.0,0.0,0.0,0.0,0.0,0.0,0.0,0.0,0.0,0.0,0.0,0.0,0.0,0.0,0.0,0.0,0.0,0.0,0.0,0.0,0.0,0.0,0.0,0.0,0.0,0.0,0.0,0.0,0.0,0.0,0.0,0.0,0.0,0.0,0.0,0.0,0.0,0.0,0.0,0.0,0.0,0.0,0.0,0.0,0.0,0.0,0.0,0.0,0.0,0.0,0.0,0.0,0.0,0.0,0.0,0.0,0.0,0.0,0.0,0.0,0.0,0.0,0.0,0.0,0.0,0.0,0.0,0.0,0.0,0.0,0.0,0.0,0.0,0.0,0.0,0.0,0.0,0.0,0.0,0.0,0.0,0.0,0.0,0.0,0.0,0.0,0.0,0.0,0.0,0.0,0.0,0.0,0.0,0.0,0.0,0.0,0.0,0.0,0.0,0.0,0.0,0.0,0.0,0.0,0.0,0.0,0.0,-2.6955,-2.6364,-2.5554,-2.4464,-2.5031,-2.4495,0.0,0.0,0.0,0.0,0.0,0.0,0.0,0.0,0.0,0.0,0.0,0.0,0.0,0.0,0.0,0.0,0.0,0.0,0.0,0.0,0.0,0.0,0.0,0.0,0.0,0.0,0.0,0.0,0.0,0.0,0.0,0.0,0.0,0.0,0.0,0.0,0.0,0.0,0.0,0.0,0.0,0.0,0.0,0.0,0.0,0.0,0.0,0.0,0.0,0.0,0.0,0.0,0.0,0.0,0.0,0.0,0.0,0.0,0.0,0.0,0.0,0.0,0.0,0.0,0.0,0.0,0.0,0.0,0.0,0.0,0.0,0.0,0.0,0.0,0.0,0.0,0.0,0.0,0.0,0.0,0.0,0.0,0.0,0.0,0.0,0.0,0.0,0.0,0.0,0.0,0.0,0.0,0.0,0.0,0.0,0.0,0.0,0.0,0.0,0.0,0.0,0.0,0.0,0.0,0.0,0.0,0.0,0.0,0.0,-2.7866,-3.0022,-2.9862,-2.7147,-2.6621,-2.5473,0.0,0.0,0.0,0.0,0.0,0.0,0.0,0.0,0.0,0.0,0.0,0.0,0.0,0.0,0.0,0.0,0.0,0.0,0.0,0.0,0.0,0.0,0.0,0.0,0.0,0.0,0.0,0.0,0.0,0.0,0.0,0.0,0.0,0.0,0.0,0.0,0.0,0.0,0.0,0.0,0.0,0.0,0.0,0.0,0.0,0.0,0.0,0.0,0.0,0.0,0.0,0.0,0.0,0.0,0.0,0.0,0.0,0.0,0.0,0.0,0.0,0.0,0.0,0.0,0.0,0.0,0.0,0.0,0.0,0.0,0.0,0.0,0.0,0.0,0.0,0.0,0.0,0.0,0.0,0.0,0.0,0.0,0.0,0.0,0.0,0.0,0.0,0.0,0.0,0.0,0.0,0.0,0.0,0.0,0.0,0.0,0.0,0.0,0.0,0.0,0.0,0.0,0.0,0.0,0.0,0.0,0.0,0.0,-2.8782,-2.977,-3.204,-3.2078,-2.9691,-2.883,-2.7492,0.0,0.0,0.0,0.0,0.0,0.0,0.0,0.0,0.0,0.0,0.0,0.0,0.0,0.0,0.0,0.0,0.0,0.0,0.0,0.0,0.0,0.0,0.0,0.0,0.0,0.0,0.0,0.0,0.0,0.0,0.0,0.0,0.0,0.0,0.0,0.0,0.0,0.0,0.0,0.0,0.0,0.0,0.0,0.0,0.0,0.0,0.0,0.0,0.0,0.0,0.0,0.0,0.0,0.0,0.0,0.0,0.0,0.0,0.0,0.0,0.0,0.0,0.0,0.0,0.0,0.0,0.0,0.0,0.0,0.0,0.0,0.0,0.0,0.0,0.0,0.0,0.0,0.0,0.0,0.0,0.0,0.0,0.0,0.0,0.0,0.0,0.0,0.0,0.0,0.0,0.0,0.0,0.0,0.0,0.0,0.0,0.0,0.0,0.0,0.0,0.0,0.0,0.0,0.0,0.0,0.0,0.0,0.0,-2.9698,-3.202,-3.3035,-3.3115,-3.2171,-3.1142,-2.9753,0.0,0.0,0.0,0.0,0.0,0.0,0.0,0.0,0.0,0.0,0.0,0.0,0.0,0.0,0.0,0.0,0.0,0.0,0.0,0.0,0.0,0.0,0.0,0.0,0.0,0.0,0.0,0.0,0.0,0.0,0.0,0.0,0.0,0.0,0.0,0.0,0.0,0.0,0.0,0.0,0.0,0.0,0.0,0.0,0.0,0.0,0.0,0.0,0.0,0.0,0.0,0.0,0.0,0.0,0.0,0.0,0.0,0.0,0.0,0.0,0.0,0.0,0.0,0.0,0.0,0.0,0.0,0.0,0.0,0.0,0.0,0.0,0.0,0.0,0.0,0.0,0.0,0.0,0.0,0.0,0.0,0.0,0.0,0.0,0.0,0.0,0.0,0.0,0.0,0.0,0.0,0.0,0.0,0.0,0.0,0.0,0.0,0.0,0.0,0.0,0.0,0.0,0.0,0.0,0.0,0.0,0.0,0.0,-3.0708,-3.1871,-3.4041,-3.4704,-3.373,-3.1753,-2.9819,0.0,0.0,0.0,0.0,0.0,0.0,0.0,0.0,0.0,0.0,0.0,0.0,0.0,0.0,0.0,0.0,0.0,0.0,0.0,0.0,0.0,0.0,0.0,0.0,0.0,0.0,0.0,0.0,0.0,0.0,0.0,0.0,0.0,0.0,0.0,0.0,0.0,0.0,0.0,0.0,0.0,0.0,0.0,0.0,0.0,0.0,0.0,0.0,-2.5626,0.0,0.0,0.0,0.0,0.0,0.0,0.0,0.0,0.0,0.0,0.0,0.0,0.0,0.0,0.0,0.0,0.0,0.0,0.0,0.0,0.0,0.0,0.0,0.0,0.0,0.0,0.0,0.0,0.0,0.0,0.0,0.0,0.0,0.0,0.0,0.0,0.0,0.0,0.0,0.0,0.0,0.0,0.0,0.0,0.0,0.0,0.0,0.0,0.0,0.0,0.0,0.0,0.0,0.0,0.0,0.0,0.0,0.0,0.0,-3.1489,-3.3108,-3.4107,-3.4341,-3.3738,-3.181,-3.0247,0.0,0.0,0.0,0.0,0.0,0.0,0.0,0.0,0.0,0.0,0.0,0.0,0.0,0.0,0.0,0.0,0.0,0.0,0.0,0.0,0.0,0.0,0.0,0.0,0.0,0.0,0.0,0.0,0.0,0.0,0.0,0.0,0.0,0.0,0.0,0.0,0.0,0.0,0.0,0.0,0.0,0.0,0.0,0.0,0.0,0.0,0.0,0.0,0.0,0.0,0.0,0.0,0.0,0.0,0.0,0.0,0.0,0.0,0.0,0.0,0.0,0.0,0.0,0.0,0.0,0.0,0.0,0.0,0.0,0.0,0.0,0.0,0.0,0.0,0.0,0.0,0.0,0.0,0.0,0.0,0.0,0.0,0.0,0.0,0.0,0.0,0.0,0.0,0.0,0.0,0.0,0.0,0.0,0.0,0.0,0.0,0.0,0.0,0.0,0.0,0.0,0.0,0.0,0.0,0.0,0.0,0.0,-3.0489,-3.2107,-3.4521,-3.4092,-3.3629,-3.3285,-3.1917,-3.096,-3.0512,0.0,0.0,0.0,0.0,0.0,0.0,0.0,0.0,0.0,0.0,0.0,0.0,0.0,0.0,0.0,0.0,0.0,0.0,0.0,0.0,0.0,0.0,0.0,0.0,0.0,0.0,0.0,0.0,0.0,0.0,0.0,0.0,0.0,0.0,0.0,0.0,0.0,0.0,-2.557,-2.6135,0.0,0.0,0.0,0.0,0.0,0.0,0.0,0.0,-2.6618,0.0,0.0,0.0,0.0,0.0,0.0,0.0,0.0,0.0,0.0,0.0,0.0,0.0,0.0,0.0,0.0,0.0,0.0,0.0,0.0,0.0,0.0,0.0,0.0,0.0,0.0,0.0,0.0,0.0,0.0,0.0,0.0,0.0,0.0,0.0,0.0,0.0,0.0,0.0,0.0,0.0,0.0,0.0,0.0,0.0,0.0,0.0,0.0,0.0,0.0,0.0,0.0,0.0,0.0,0.0,0.0,-3.047,-3.1307,-3.2654,-3.4576,-3.5131,-3.4711,-3.329,-3.2959,-3.2143,-3.0696,0.0,0.0,0.0,0.0,0.0,0.0,0.0,0.0,0.0,0.0,0.0,0.0,0.0,0.0,0.0,0.0,0.0,0.0,0.0,0.0,0.0,0.0,0.0,0.0,0.0,0.0,0.0,0.0,0.0,0.0,0.0,0.0,0.0,0.0,0.0,0.0,0.0,0.0,0.0,-2.7438,-2.7791,0.0,0.0,0.0,0.0,0.0,0.0,0.0,0.0,-2.7552,0.0,0.0,0.0,0.0,0.0,0.0,0.0,0.0,0.0,0.0,0.0,0.0,0.0,0.0,0.0,0.0,0.0,0.0,0.0,0.0,0.0,0.0,0.0,0.0,0.0,0.0,0.0,0.0,0.0,0.0,0.0,0.0,0.0,0.0,0.0,0.0,0.0,0.0,0.0,0.0,0.0,0.0,0.0,0.0,0.0,0.0,0.0,0.0,0.0,0.0,0.0,0.0,0.0,0.0,0.0,-3.0541,-3.1451,-3.2721,-3.4489,-3.4961,-3.4565,-3.3297,-3.2397,-3.1562,0.0,0.0,0.0,0.0,0.0,0.0,0.0,0.0,0.0,0.0,0.0,0.0,0.0,0.0,0.0,0.0,0.0,0.0,0.0,0.0,0.0,0.0,0.0,0.0,0.0,0.0,0.0,0.0,0.0,0.0,0.0,0.0,0.0,0.0,0.0,0.0,0.0,0.0,0.0,0.0,-2.8229,-2.828,-2.8461,0.0,0.0,0.0,0.0,0.0,0.0,-2.924,-2.904,0.0,0.0,0.0,0.0,0.0,0.0,0.0,0.0,0.0,0.0,0.0,0.0,0.0,0.0,0.0,0.0,0.0,0.0,0.0,0.0,0.0,0.0,0.0,0.0,0.0,0.0,0.0,0.0,0.0,0.0,0.0,0.0,0.0,0.0,0.0,0.0,0.0,0.0,0.0,0.0,0.0,0.0,0.0,0.0,0.0,0.0,0.0,0.0,0.0,0.0,0.0,0.0,0.0,0.0,0.0,-3.0731,-3.1479,-3.2582,-3.4164,-3.4456,-3.4072,-3.3035,-3.2051,-3.1324,0.0,0.0,0.0,0.0,0.0,0.0,0.0,0.0,0.0,0.0,0.0,0.0,0.0,0.0,0.0,0.0,0.0,0.0,0.0,0.0,0.0,0.0,0.0,0.0,0.0,0.0,0.0,0.0,0.0,0.0,0.0,0.0,0.0,0.0,0.0,0.0,0.0,0.0,0.0,0.0,0.0,-2.8787,-2.8572,-2.9889,0.0,0.0,0.0,0.0,-3.065,-3.0409,0.0,0.0,0.0,0.0,0.0,0.0,0.0,0.0,0.0,0.0,0.0,0.0,0.0,0.0,0.0,0.0,0.0,0.0,0.0,0.0,0.0,0.0,0.0,0.0,0.0,0.0,0.0,0.0,0.0,0.0,0.0,0.0,0.0,0.0,0.0,0.0,0.0,0.0,0.0,0.0,0.0,0.0,0.0,0.0,0.0,0.0,0.0,0.0,0.0,0.0,0.0,0.0,0.0,0.0,0.0,0.0,-3.1468,-3.1718,-3.2302,-3.3322,-3.4107,-3.3738,-3.2138,-3.3355,-3.3009,0.0,0.0,0.0,0.0,0.0,0.0,0.0,0.0,0.0,0.0,0.0,0.0,0.0,0.0,0.0,0.0,0.0,0.0,0.0,0.0,0.0,0.0,0.0,0.0,0.0,0.0,0.0,0.0,0.0,0.0,0.0,0.0,0.0,0.0,0.0,0.0,0.0,0.0,0.0,0.0,0.0,-2.9703,-2.9631,-3.0391,-3.094,0.0,0.0,-2.9751,-3.0577,-3.0277,0.0,0.0,0.0,0.0,0.0,0.0,0.0,0.0,0.0,0.0,0.0,0.0,0.0,0.0,0.0,0.0,0.0,0.0,0.0,0.0,0.0,0.0,0.0,0.0,0.0,0.0,0.0,0.0,0.0,0.0,0.0,0.0,0.0,0.0,0.0,0.0,0.0,0.0,0.0,0.0,0.0,0.0,0.0,0.0,0.0,0.0,0.0,0.0,0.0,0.0,0.0,0.0,0.0,0.0,0.0,-2.8338,-3.0783,-3.0406,-3.0821,-3.2127,-3.2687,-3.228,-3.0868,-3.225,-3.226,0.0,0.0,0.0,0.0,0.0,0.0,0.0,0.0,0.0,0.0,0.0,0.0,0.0,0.0,0.0,0.0,0.0,0.0,0.0,0.0,0.0,0.0,0.0,0.0,0.0,0.0,0.0,0.0,0.0,0.0,0.0,0.0,0.0,0.0,0.0,0.0,0.0,0.0,0.0,0.0,0.0,0.0,-2.9767,-3.0734,0.0,0.0,0.0,-3.1771,-3.3008,0.0,0.0,0.0,0.0,0.0,0.0,0.0,0.0,0.0,0.0,0.0,0.0,0.0,0.0,0.0,0.0,0.0,0.0,0.0,0.0,0.0,0.0,0.0,0.0,0.0,0.0,0.0,0.0,0.0,0.0,0.0,0.0,0.0,0.0,0.0,0.0,0.0,0.0,0.0,0.0,0.0,0.0,0.0,0.0,0.0,0.0,0.0,0.0,0.0,0.0,0.0,0.0,0.0,0.0,0.0,0.0,0.0,-3.0497,-2.9442,-2.956,-3.0977,-3.127,-3.084,-2.9726,-3.0417,0.0,0.0,0.0,0.0,0.0,0.0,0.0,0.0,0.0,0.0,0.0,0.0,0.0,0.0,0.0,0.0,0.0,0.0,0.0,0.0,0.0,0.0,0.0,0.0,0.0,0.0,0.0,-2.5696,0.0,0.0,0.0,0.0,0.0,0.0,0.0,0.0,0.0,0.0,0.0,0.0,0.0,0.0,-3.0713,-3.0333,-3.1449,-3.2094,0.0,0.0,-3.3199,-3.3783,-3.2316,-3.1547,0.0,0.0,0.0,0.0,0.0,0.0,0.0,0.0,0.0,0.0,0.0,0.0,0.0,0.0,0.0,0.0,0.0,0.0,0.0,0.0,0.0,0.0,0.0,0.0,0.0,0.0,0.0,0.0,0.0,0.0,0.0,0.0,0.0,0.0,0.0,0.0,0.0,0.0,0.0,0.0,0.0,0.0,0.0,0.0,0.0,0.0,0.0,0.0,0.0,0.0,0.0,0.0,0.0,0.0,0.0,-3.1155,-2.9603,-2.9163,-3.006,-3.0156,-2.9751,-2.8817,-2.8204,-2.8691,0.0,0.0,0.0,0.0,0.0,0.0,0.0,0.0,0.0,0.0,0.0,0.0,0.0,0.0,0.0,0.0,0.0,0.0,0.0,0.0,0.0,0.0,0.0,0.0,0.0,0.0,0.0,0.0,0.0,0.0,0.0,0.0,0.0,0.0,0.0,0.0,0.0,0.0,0.0,0.0,0.0,-3.1238,-3.2011,-3.2845,-3.2711,0.0,0.0,-3.2568,-3.0825,-3.0834,-3.1338,-3.2311,0.0,0.0,0.0,0.0,0.0,0.0,0.0,0.0,0.0,0.0,0.0,0.0,0.0,0.0,0.0,0.0,0.0,0.0,0.0,0.0,0.0,0.0,0.0,0.0,0.0,0.0,0.0,0.0,0.0,0.0,0.0,0.0,0.0,0.0,0.0,0.0,0.0,0.0,0.0,0.0,0.0,0.0,0.0,0.0,0.0,0.0,0.0,0.0,0.0,0.0,0.0,0.0,0.0,-2.8779,-3.1355,-2.9049,-2.8509,-2.9799,-2.9509,-2.878,-2.7761,-2.817,-2.8983,0.0,0.0,0.0,0.0,0.0,0.0,0.0,0.0,0.0,0.0,0.0,0.0,0.0,0.0,0.0,0.0,0.0,0.0,0.0,0.0,0.0,0.0,0.0,0.0,0.0,0.0,0.0,0.0,-2.6378,-2.7186,-2.9082,0.0,0.0,0.0,0.0,0.0,0.0,0.0,0.0,0.0,0.0,-3.2241,-3.1487,-3.1676,0.0,0.0,-3.1871,-3.2493,-3.29,-3.2373,-3.252,-3.4225,-3.4521,0.0,0.0,0.0,0.0,0.0,0.0,0.0,0.0,0.0,0.0,0.0,0.0,0.0,0.0,0.0,0.0,0.0,0.0,0.0,0.0,0.0,0.0,0.0,0.0,0.0,0.0,0.0,0.0,0.0,0.0,0.0,0.0,0.0,0.0,0.0,0.0,0.0,0.0,0.0,0.0,0.0,0.0,0.0,0.0,0.0,0.0,0.0,0.0,0.0,0.0,0.0,0.0,-2.8879,-3.1776,-2.8802,-2.8041,-2.9699,-2.9044,-2.8164,-2.7157,-2.7717,-2.8483,0.0,0.0,0.0,0.0,0.0,0.0,0.0,0.0,0.0,0.0,0.0,0.0,0.0,0.0,0.0,0.0,0.0,0.0,0.0,0.0,0.0,0.0,0.0,0.0,0.0,0.0,0.0,0.0,-2.7665,-2.8548,-3.0131,0.0,0.0,0.0,0.0,0.0,0.0,0.0,0.0,0.0,0.0,-3.26,-3.2128,-3.2317,-3.2693,-3.322,-3.3784,-3.4399,-3.5156,-3.4385,-3.4265,-3.5844,0.0,0.0,0.0,0.0,0.0,0.0,0.0,0.0,0.0,0.0,0.0,0.0,0.0,0.0,0.0,0.0,0.0,0.0,0.0,0.0,0.0,0.0,0.0,0.0,0.0,0.0,0.0,0.0,0.0,0.0,-2.4268,0.0,0.0,0.0,0.0,0.0,0.0,0.0,0.0,0.0,0.0,0.0,0.0,0.0,0.0,0.0,0.0,0.0,0.0,0.0,0.0,0.0,0.0,-2.9174,-3.2447,-2.8974,-2.794,-2.9532,-2.8801,-2.7996,-2.7121,-2.6439,-2.6605,-2.7759,0.0,0.0,0.0,0.0,0.0,0.0,0.0,0.0,0.0,0.0,0.0,0.0,0.0,0.0,0.0,0.0,0.0,0.0,0.0,0.0,0.0,0.0,0.0,0.0,0.0,0.0,-3.1369,-3.1475,-3.1078,0.0,0.0,0.0,0.0,0.0,0.0,0.0,0.0,0.0,0.0,-3.2712,-3.2125,-3.4529,-3.5628,-3.6234,-3.6757,-3.824,-3.8683,-3.6782,-3.6507,-3.6578,0.0,0.0,0.0,0.0,0.0,0.0,0.0,0.0,0.0,0.0,0.0,0.0,0.0,0.0,0.0,0.0,0.0,0.0,0.0,0.0,0.0,0.0,0.0,0.0,0.0,0.0,0.0,-2.6746,-2.6757,0.0,0.0,0.0,0.0,0.0,0.0,0.0,0.0,0.0,0.0,0.0,-3.0665,-3.1503,0.0,0.0,0.0,0.0,0.0,0.0,0.0,0.0,0.0,0.0,0.0,0.0,-2.9844,-3.235,-2.9023,-2.7975,-2.9589,-2.8838,-2.8014,-2.7193,-2.6443,-2.6635,-2.7871,0.0,0.0,0.0,0.0,0.0,0.0,0.0,0.0,0.0,0.0,0.0,0.0,0.0,0.0,0.0,0.0,0.0,0.0,0.0,0.0,0.0,0.0,0.0,0.0,0.0,-3.12,0.0,0.0,0.0,0.0,0.0,0.0,0.0,0.0,0.0,0.0,0.0,-3.5299,-3.5437,-3.5784,-3.609,-3.6371,-3.6696,-3.6543,0.0,0.0,0.0,0.0,0.0,0.0,0.0,0.0,0.0,0.0,0.0,0.0,0.0,0.0,-3.6662,-3.5401,-3.4743,-3.4369,-3.4267,0.0,0.0,0.0,0.0,0.0,0.0,0.0,0.0,0.0,0.0,0.0,0.0,0.0,0.0,0.0,0.0,-2.8232,0.0,0.0,0.0,0.0,0.0,0.0,0.0,0.0,-3.1045,-3.1898,-3.2815,-3.3382,-3.3992,0.0,-3.4039,-3.4081,0.0,0.0,0.0,0.0,0.0,0.0,0.0,0.0,-3.0599,-3.2861,-2.9491,-2.8293,-2.9608,-2.9157,-2.8333,-2.7249,-2.6242,-2.6309,-2.7488,-2.9289,-3.0788,0.0,0.0,0.0,0.0,0.0,0.0,0.0,0.0,0.0,0.0,0.0,0.0,0.0,0.0,0.0,0.0,0.0,0.0,0.0,0.0,0.0,0.0,0.0,-3.1648,0.0,0.0,0.0,0.0,0.0,0.0,0.0,0.0,0.0,-3.5601,-3.5541,-3.5681,-3.6129,-3.6769,-3.7476,-3.8268,0.0,0.0,0.0,0.0,0.0,0.0,0.0,-4.0568,-4.1099,-4.0807,-4.0473,-4.0244,-3.9987,-3.9784,-3.9661,0.0,0.0,-3.6256,-3.5701,-3.5377,-3.5241,-3.6239,-3.7255,-3.7559,-3.818,-3.8694,0.0,0.0,0.0,0.0,0.0,0.0,0.0,0.0,-2.8376,-2.8886,0.0,-2.874,0.0,0.0,0.0,0.0,0.0,-3.1794,0.0,0.0,-3.1099,-3.1976,-3.4475,-3.462,-3.5514,-3.7075,-3.7031,-3.7027,-3.682,-3.2093,0.0,0.0,0.0,0.0,0.0,0.0,-3.1507,-3.3703,-3.0265,-2.8838,-2.9701,-2.9701,-2.8895,-2.7325,-2.596,-2.5697,-2.6672,-2.841,-2.9392,-2.9528,-3.3418,0.0,0.0,0.0,0.0,0.0,0.0,0.0,0.0,0.0,0.0,0.0,0.0,0.0,0.0,0.0,0.0,0.0,0.0,0.0,0.0,-3.1104,0.0,0.0,0.0,0.0,0.0,0.0,0.0,0.0,0.0,0.0,-3.719,-3.5784,-3.5244,-3.6876,0.0,0.0,0.0,0.0,-4.0018,-4.3651,-4.4308,-4.4148,-4.3986,-4.3271,-4.2177,-4.0681,0.0,0.0,-3.864,-3.961,-4.033,-4.0183,-3.8906,-3.7828,-3.7577,-3.7453,-3.7363,-3.7272,-3.7787,-3.8729,-3.9554,-3.9832,-4.0405,-3.6319,0.0,0.0,0.0,0.0,-3.3489,-3.3507,-3.3321,-3.39,-3.3654,-3.2837,-3.2018,0.0,0.0,0.0,0.0,0.0,0.0,-3.3178,-3.3824,-3.4662,-3.5484,-3.622,-3.6859,-3.742,-3.7873,-3.7304,-3.6755,-3.6082,-3.3526,-3.3307,-3.5407,0.0,0.0,0.0,0.0,-3.2384,-3.2847,-2.9986,-2.9082,-3.0527,-2.9983,-2.9264,-2.8358,-2.7395,-2.7131,-2.7672,-2.8189,-2.9045,-3.0283,-3.1565,0.0,0.0,0.0,0.0,0.0,0.0,0.0,0.0,0.0,0.0,0.0,0.0,0.0,0.0,0.0,0.0,0.0,0.0,0.0,-3.3882,-3.2986,-3.3264,0.0,0.0,0.0,0.0,0.0,0.0,0.0,0.0,0.0,-3.8742,-3.8426,-3.8677,0.0,0.0,-4.1461,-4.32,-4.2596,-4.1919,-4.1678,-4.21,0.0,0.0,-4.1052,-4.142,-4.0927,-4.039,-4.0008,-3.994,-3.9696,-3.9482,-3.9427,-3.86,-3.7846,-3.765,-3.6807,-3.6195,-3.6109,-3.6682,-3.7255,-3.7596,-3.8205,-3.8778,-3.89,-3.6353,-3.6514,-3.6382,-3.6103,-3.6648,-3.6677,-3.6381,-3.6822,-3.654,-3.5673,-3.4851,-3.4471,-3.4439,-3.4007,0.0,0.0,0.0,-3.5068,-3.5553,-3.6551,-3.7353,-3.7967,-3.847,-3.8914,-3.9204,-3.8748,-3.8252,-3.7781,-3.7143,-3.7453,-3.8576,0.0,0.0,-3.5833,-3.3877,-3.3176,-3.3659,-3.1035,-3.0082,-3.1066,-2.9925,-2.9113,-2.8703,-2.794,-2.7685,-2.8017,-2.833,-2.9009,-3.0127,-3.1188,-3.2556,0.0,0.0,0.0,0.0,0.0,0.0,0.0,0.0,0.0,0.0,0.0,-3.166,0.0,0.0,0.0,0.0,-3.2861,-3.3887,-3.4715,-3.4753,0.0,0.0,0.0,0.0,0.0,0.0,0.0,-4.0295,-3.9211,-3.8818,-4.0334,-4.0509,-4.0615,-4.0926,-4.1217,-4.1813,-4.2873,0.0,-4.1023,-4.0458,-4.0919,-4.0942,-3.9798,-4.0024,-4.0258,-3.9847,-3.9603,-3.9463,-3.9445,-3.8924,-3.8582,-3.8456,-3.8133,-3.7739,-3.7685,-3.6915,-3.6341,-3.6358,-3.6717,-3.7129,-3.7487,-3.7954,-3.8313,-4.1067,-4.045,-4.0733,-4.0288,-3.9386,-3.9369,-3.8919,-3.8175,-3.8202,-3.8169,-3.8117,-3.7242,-3.7364,-3.818,-3.8332,0.0,-3.7204,-3.7185,-3.722,-3.7288,-3.7248,-3.8106,-3.9681,-3.9642,-4.0029,-4.079,-4.079,-4.0797,-4.0804,-4.1546,-4.1594,-4.0676,-3.5318,-3.3804,-3.5992,-3.4439,-3.4206,-3.5531,-3.305,-3.1628,-3.135,-2.9691,-2.876,-2.8701,-2.7979,-2.7758,-2.8106,-2.8799,-2.93,-2.9554,-3.1724,-3.2731,-3.2248,0.0,0.0,0.0,0.0,0.0,0.0,0.0,0.0,0.0,0.0,0.0,0.0,0.0,0.0,0.0,-3.2105,0.0,-3.3837,-3.6096,0.0,0.0,0.0,-3.7085,-3.5571,-3.5875,-3.7162,-3.9615,0.0,0.0,-4.1543,-4.1724,-4.1116,-3.9502,-3.9058,-3.9289,-4.0506,-3.9245,-3.8469,-3.9719,-4.0171,-4.0382,-3.9911,-3.9452,-3.8791,-3.8059,-3.7863,-3.7918,-3.7863,-3.7685,-3.7614,-3.7614,-3.756,-3.7505,-3.7559,-3.7559,-3.7577,-3.7542,-3.7577,-3.7809,-3.8437,-3.8653,-3.8689,-4.4289,-4.4711,-4.4782,-4.3266,-4.0804,-4.1414,-4.1546,-4.1366,-4.199,-4.1641,-4.052,-3.9658,-3.884,-3.8112,-3.8166,-3.8138,-3.8103,-3.8032,-3.841,-3.9066,-3.9004,-3.9579,-4.0648,-4.0609,-4.0667,-4.0848,-4.0829,-4.0836,-4.0849,-4.0442,-4.0179,-3.9961,-3.7933,-3.755,-3.8714,-3.8234,-3.745,-3.648,-3.5091,-3.335,-3.1293,-3.0173,-2.9593,-2.9585,-2.9396,-2.9432,-2.9721,-2.9902,-3.01,-3.0318,-3.0905,-3.1753,-3.294,-3.4331,0.0,0.0,0.0,0.0,0.0,0.0,0.0,0.0,0.0,-3.3621,-3.5292,0.0,-3.5457,0.0,-3.5105,-3.4287,-3.3887,-3.4882,0.0,0.0,-3.7335,-3.8004,-3.8706,-3.7318,-3.7449,-4.0447,-3.9148,-3.8291,-3.9129,-3.9307,-3.8884,-3.7729,-3.957,-4.0902,-4.0486,-3.9509,-3.8572,-3.7943,-3.7497,-3.7057,-3.6946,-3.7068,-3.7234,-3.7018,-3.738,-3.7506,-3.7004,-3.6808,-3.6702,-3.6702,-3.6702,-3.6899,-3.7506,-3.7577,-3.7577,-3.7577,-3.7577,-3.7667,-3.7863,-3.7899,-3.7953,-4.6089,-4.6222,-4.6563,-4.5653,-4.4004,-4.4464,-4.4464,-4.4137,-4.4611,-4.3919,-4.2376,-4.1568,-4.0803,-4.013,-4.0256,-4.0389,-4.0546,-4.0538,-4.0867,-4.1362,-4.1347,-4.1417,-4.1533,-4.1507,-4.1468,-4.1448,-4.1809,-4.2196,-4.2576,-4.2524,-4.2136,-4.1393,-4.0873,-4.0679,-4.0714,-3.9994,-3.9277,-3.8675,-3.6939,-3.455,-3.1499,-3.0841,-3.0929,-3.167,-3.1293,-3.1937,-3.374,-3.3089,-3.3091,-3.4004,-3.3323,-3.3556,-3.4917,-3.5776,-3.627,0.0,0.0,0.0,0.0,0.0,0.0,0.0,0.0,0.0,0.0,0.0,-3.5605,-3.7171,-3.5668,-3.5035,-3.6119,-3.6873,-3.7258,-3.7177,-3.7177,-3.7182,-3.7204,-3.6045,-3.616,-3.8534,-3.7629,-3.7017,-3.7648,-3.808,-3.804,-3.727,-3.9064,-3.99,-3.835,-3.7479,-3.6828,-3.6091,-3.5797,-3.5602,-3.5372,-3.6003,-3.6397,-3.6199,-3.6898,-3.7363,-3.6666,-3.6756,-3.6934,-3.6916,-3.6934,-3.7041,-3.7487,-3.7577,-3.7577,-3.7577,-3.7577,-3.7577,-3.7577,-3.7577,-3.7613,-4.7055,-4.6563,-4.7283,-4.7624,-4.7719,-4.77,-4.7207,-4.6354,-4.6335,-4.552,-4.4137,-4.3501,-4.3226,-4.3266,-4.3559,-4.3689,-4.3689,-4.38,-4.3788,-4.366,-4.3649,-4.3191,-4.2378,-4.2343,-4.2318,-4.2311,-4.3106,-4.387,-4.455,-4.537,-4.5028,-4.3608,-4.3569,-4.3191,-4.2421,-4.1059,-4.0569,-4.0955,-3.8447,-3.5588,-3.2366,-3.227,-3.2986,-3.436,-3.3674,-3.4778,-3.799,-3.6738,-3.67,-3.8212,-3.6848,-3.6163,-3.6604,-3.7532,-3.7531,0.0,-3.7908,0.0,0.0,0.0,0.0,0.0,0.0,0.0,0.0,-3.3903,-3.538,-3.6368,-3.5316,-3.5681,-3.8293,-3.9224,-3.8772,-3.6626,-3.6339,-3.5761,-3.4431,-3.4217,-3.4734,-3.6171,-3.6222,-3.6321,-3.6887,-3.7505,-3.7761,-3.7386,-3.7831,-3.7702,-3.5874,-3.5326,-3.5169,-3.4727,-3.4972,-3.5238,-3.5275,-3.5882,-3.6167,-3.5703,-3.6613,-3.7273,-3.6542,-3.6916,-3.7398,-3.738,-3.7309,-3.7416,-3.7541,-3.7577,-3.7577,-3.7577,-3.7577,-3.7577,-3.7577,-3.7577,-3.7577,-4.7719,-4.823,-4.8382,-4.8818,-4.9424,-4.9405,-4.8553,-4.7169,-4.7169,-4.6999,-4.6695,-4.6562,-4.6582,-4.6733,-4.6801,-4.6602,-4.621,-4.6246,-4.5615,-4.4479,-4.449,-4.4054,-4.3278,-4.3205,-4.3198,-4.3234,-4.3377,-4.352,-4.3724,-4.386,-4.4128,-4.4511,-4.4492,-4.4395,-4.4289,0.0,0.0,0.0,-3.9059,-3.7319,-3.5922,-3.6561,-3.6988,-3.7155,-3.7043,0.0,-3.814,-3.787,-3.7906,-3.8335,-3.7419,0.0,0.0,0.0,0.0,0.0,0.0,0.0,0.0,0.0,0.0,0.0,-3.601,-3.6209,-3.5894,-3.7424,-3.7675,-3.5944,-3.665,-3.6656,-3.5211,-3.5776,-3.6048,-3.5607,-3.553,-3.5883,-3.6812,-3.6272,-3.6369,-3.7881,-3.7351,-3.6808,-3.6894,-3.6868,-3.6758,-3.6638,-3.634,-3.605,-3.5701,-3.6001,-3.6002,-3.5319,-3.513,-3.5204,-3.5204,-3.5864,-3.6345,-3.6328,-3.6916,-3.722,-3.6613,-3.6524,-3.6649,-3.6702,-3.6613,-3.6881,-3.7452,-3.7577,-3.7577,-3.7577,-3.7577,-3.7577,-3.7577,-3.7577,-3.7577,-4.8647,0.0,-4.9121,-4.9519,0.0,-4.9879,-4.9424,-4.859,-4.8211,-4.7795,-4.7397,-4.7384,-4.7479,-4.7566,-4.7656,-4.7543,-4.7298,-4.7377,-4.699,-4.629,-4.6414,-4.6022,-4.5218,-4.489,-4.472,-4.4667,-4.4267,-4.4313,-4.4767,-4.4738,-4.4764,-4.4866,-4.475,-4.4498,-4.4105,-4.3653,-4.259,-4.0984,-4.0038,-3.8516,-3.6377,-3.6619,-3.7023,-3.743,0.0,0.0,0.0,0.0,0.0,0.0,0.0,0.0,0.0,0.0,0.0,-3.471,-3.5725,-3.5863,-3.4628,-3.4514,-3.4331,-3.3923,-3.4997,-3.5823,-3.6158,-3.5879,-3.5411,-3.485,-3.5597,-3.5751,-3.4851,-3.545,-3.5978,-3.6041,-3.6387,-3.6926,-3.7429,-3.7185,-3.7108,-3.7555,-3.7282,-3.6919,-3.6814,-3.696,-3.6905,-3.674,-3.6767,-3.6741,-3.657,-3.6231,-3.5751,-3.5257,-3.5204,-3.5204,-3.5275,-3.5882,-3.6238,-3.6042,-3.6809,-3.7166,-3.6542,-3.672,-3.6988,-3.6988,-3.697,-3.7148,-3.7452,-3.7577,-3.7577,-3.7577,-3.7577,-3.7577,-3.7577,-3.7577,-3.7577,-4.95,-4.8969,-4.9614,-4.9879,-4.9879,-4.9879,-4.9879,-4.9841,0.0,0.0,0.0,-4.7839,-4.782,-4.7851,-4.8041,-4.8125,-4.8147,-4.8264,-4.8235,-4.8142,-4.8367,-4.8002,-4.7156,-4.6684,-4.6395,-4.6293,-4.5582,-4.5581,-4.6287,-4.6169,-4.5746,-4.5149,-4.5021,-4.4505,-4.362,-4.2705,-4.1944,-4.135,-4.117,-3.9654,-3.6744,-3.6613,-3.7027,-3.7897,-3.6966,-3.7884,-4.0828,-3.9605,-3.949,-4.0784,-3.9305,-3.8492,-3.8671,-3.7946,-3.7309,-3.6882,-3.7005,-3.6281,-3.4519,-3.4384,-3.3912,-3.274,-3.3746,-3.4762,-3.5535,-3.3691,-3.3026,-3.4371,-3.4576,-3.4974,-3.568,-3.637,-3.6857,-3.6949,-3.755,-3.7795,-3.7662,-3.768,-3.7633,-3.7384,-3.7412,-3.7261,-3.7233,-3.7498,-3.7617,-3.7447,-3.7627,-3.7915,-3.7506,-3.6559,-3.5863,-3.5792,-3.5846,-3.5703,-3.5739,-3.6203,-3.631,-3.5989,-3.6809,-3.7291,-3.6916,-3.7148,-3.7523,-3.7505,-3.7577,-3.7559,-3.7577,-3.7577,-3.7577,-3.7577,-3.7577,-3.7577,-3.7577,-3.7577,-3.7577,-4.9822,-4.9728,-4.9841,-4.9879,-4.9879,-4.9879,-4.9879,-4.9879,-4.9765,-4.9652,-4.9538,-4.9565,-4.9557,-4.9557,-4.9576,-4.9689,-4.9844,-4.9849,-4.958,0.0,-4.9046,-4.8624,-4.7799,-4.7815,-4.787,-4.7882,-4.7217,-4.6945,-4.7028,-4.6436,-4.6033,-4.5924,-4.5916,-4.5434,-4.4504,-4.3581,-4.3073,-4.295,-4.2267,-4.136,-4.0224,-4.087,-4.1306,-4.1425,-4.0508,-4.0324,-4.0865,-4.0611,-4.0674,-4.0931,-3.9335,-3.7476,-3.5448,-3.4626,-3.3137,-3.1094,-3.1553,-3.2418,-3.3494,-3.3553,-3.4098,-3.5183,-3.4808,-3.4826,-3.5592,-3.5314,-3.5432,-3.6229,-3.6267,-3.6656,-3.7332,-3.7526,-3.7587,-3.7517,-3.7615,-3.7831,-3.8362,-3.8288,-3.8413,-3.8933,-3.8936,-3.872,-3.8637,-3.8588,-3.8444,-3.8232,-3.7993,-3.7898,-3.7613,-3.7416,-3.7255,-3.7255,-3.7255,-3.7255,-3.7095,-3.7291,-3.7273,-3.7273,-3.7362,-3.7541,-3.7362,-3.7452,-3.7577,-3.7577,-3.7577,-3.7577,-3.7577,-3.7577,-3.7577,-3.7577,-3.7577,-3.7577,-3.7577,-3.7577,-3.7577,-4.9879,-4.9879,-4.9879,-4.9879,-4.9879,-4.9879,-4.9879,-4.9879,-4.9879,-4.9879,-4.9879,-4.9879,-4.9879,-4.9879,-4.9879,-4.9952,-5.0057,-5.0038,-4.9879,-4.961,-4.9667,-4.9522,-4.9163,-4.8833,-4.8721,-4.8718,-4.759,-4.7071,-4.7061,-4.6416,-4.606,-4.6101,-4.6111,-4.5871,-4.5421,-4.4529,-4.4065,-4.4026,-4.3206,-4.2147,-4.0897,-4.1228,-4.0777,-3.9373,-3.8914,-3.8512,-3.8091,-3.8091,-3.8098,-3.8122,-3.7383,-3.6426,-3.5384,-3.496,-3.4433,-3.3788,-3.4137,-3.4508,-3.4766,-3.4372,-3.4803,-3.6382,-3.6134,-3.6173,-3.6936,-3.5991,-3.5686,-3.6403,-3.6881,-3.7269,-3.7602,-3.8075,-3.836,-3.8288,-3.8613,-3.8895,-3.9028,-3.9001,-3.9064,-3.9223,-3.9165,-3.9101,-3.9101,-3.8902,-3.8683,-3.8433,-3.8052,-3.7739,-3.7631,-3.7577,-3.7577,-3.7577,-3.7577,-3.7577,-3.7577,-3.7577,-3.7577,-3.7577,-3.7577,-3.7577,-3.7577,-3.7577,-3.7577,-3.7577,-3.7577,-3.7577,-3.7577,-3.7577,-3.7577,-3.7577,-3.7577,-3.7577,-3.7577,-3.7577,-3.7577,-5.0334,-5.0201,-5.0182,-5.0069,-4.9898,-5.0107,-5.0088,-4.9898,-4.9879,-4.9879,-4.9879,-4.9879,-4.9879,-4.9879,-4.9879,-4.9879,-4.9879,-4.9879,-4.9879,-4.9906,-5.0063,-5.0139,-5.0081,-4.9618,-4.942,-4.9288,-4.8049,-4.7463,-4.7407,-4.683,-4.646,-4.6391,-4.6368,-4.628,-4.6094,-4.5374,-4.5022,-4.4968,-4.4311,-4.2995,-4.1139,-4.0906,-3.9707,-3.7696,-3.7328,-3.6933,-3.6314,-3.6314,-3.6329,-3.6292,-3.6125,-3.6094,-3.6166,-3.6013,-3.623,-3.6855,-3.6983,-3.6802,-3.6325,-3.5864,-3.6094,-3.7265,-3.7347,-3.7495,-3.7836,-3.6784,-3.6224,-3.6859,-3.749,-3.7813,-3.8057,-3.8572,-3.9031,-3.903,-3.9458,-3.9566,-3.9451,-3.9414,-3.935,-3.911,-3.9101,-3.9101,-3.9073,-3.896,-3.8773,-3.8415,-3.7949,-3.7649,-3.7791,-3.7774,-3.763,-3.7791,-3.7719,-3.7577,-3.7577,-3.7577,-3.7577,-3.7577,-3.7577,-3.7577,-3.7577,-3.7577,-3.7577,-3.7577,-3.7577,-3.7577,-3.7577,-3.7577,-3.7577,-3.7577,-3.7577,-3.7666,-3.7898,-3.7933,-3.7773,-5.1717,-5.1149,-5.1016,-5.0618,-5.0012,-5.0694,-5.058,-4.9936,-4.9879,-4.9879,-4.9879,-4.9879,-4.9879,-4.9879,-4.9879,-4.9879,-4.9879,-4.9879,-4.9879,-4.9879,-4.9906,-4.9906,-4.9978,-5.0043,-5.0097,-4.9988,-4.9248,-4.8833,-4.8797,-4.8282,-4.7743,-4.7255,-4.7192,-4.6816,-4.6184,-4.6006,-4.5959,-4.5969,-4.5891,-4.4576,-4.2028,-4.1177,-4.0288,-3.9301,-3.8539,-3.8144,-3.7984,-3.8109,-3.8132,-3.8105,-3.7422,-3.7061,-3.7011,-3.6401,-3.6057,-3.6177,-3.6191,-3.6404,-3.7145,-3.7848,-3.8209,-3.8259,-3.8268,-3.8148,-3.7964,-3.8136,-3.8383,-3.8595,-3.8454,-3.8641,-3.9358,-3.9439,-3.9349,-3.9233,-3.9314,-3.9298,-3.9173,-3.9137,-3.9129,-3.9082,-3.9101,-3.9101,-3.9101,-3.9045,-3.8873,-3.8446,-3.8126,-3.8025,-3.8454,-3.8276,-3.8114,-3.8435,-3.813,-3.772,-3.7649,-3.7577,-3.7577,-3.7577,-3.7577,-3.7577,-3.7577,-3.7577,-3.7577,-3.7577,-3.7577,-3.7577,-3.7577,-3.7577,-3.7577,-3.7577,-3.7648,-3.7809,-3.8451,-3.8629,-3.8397,-5.1509,-5.1149,-5.0656,-5.022,-4.9974,-5.0296,-5.022,-4.9898,-4.9879,-4.9879,-4.9879,-4.9879,-4.9879,-4.9879,-4.9879,-4.9879,-4.9879,-4.9879,-4.9879,-4.9879,-4.9879,-4.9879,-4.9906,-4.9959,-5.0031,-4.9981,-4.9353,-4.9003,-4.8917,-4.8451,-4.8063,-4.7845,-4.7475,-4.7092,-4.678,-4.6347,-4.6335,-4.6819,-4.6364,-4.5551,-4.4424,-4.3102,-4.1738,-4.0474,-3.9572,-3.8858,-3.8424,-3.8397,-3.8414,-3.8432,-3.8133,-3.7988,-3.802,-3.7717,-3.777,-3.8258,-3.8316,-3.8668,-3.9488,-3.9379,-3.9409,-3.9762,-3.9749,-3.9573,-3.9265,-3.9298,-3.9364,-3.9361,-3.9119,-3.9096,-3.9439,-3.9427,-3.935,-3.9298,-3.9219,-3.9175,-3.9101,-3.9101,-3.9101,-3.9101,-3.9101,-3.912,-3.9073,-3.8989,-3.8803,-3.8551,-3.8549,-3.8903,-3.905,-3.9265,-3.9571,-3.9661,-3.9445,-3.8743,-3.7953,-3.7577,-3.7612,-3.7594,-3.7577,-3.7577,-3.7648,-3.7594,-3.7577,-3.763,-3.7648,-3.7648,-3.7577,-3.7577,-3.7577,-3.7666,-3.7684,-3.7933,-3.92,-3.9093,-3.8808,-5.2096,-5.1774,-5.094,-5.0448,-5.0258,-5.0258,-5.0107,-4.9898,-4.9879,-4.9879,-4.9879,-4.9879,-4.9879,-4.9879,-4.9879,-4.9879,-4.9879,-4.9879,-4.9879,-4.9879,-4.9879,-4.9879,-4.9879,-4.9879,-4.9879,-4.9811,-4.9429,-4.9224,-4.922,-4.8886,-4.8643,-4.8478,-4.8052,-4.774,-4.7533,-4.7,-4.6967,-4.7261,-4.6765,-4.6371,-4.5947,-4.4686,-4.3199,-4.1776,-4.0865,-4.0104,-3.9501,-3.9266,-3.9155,-3.9215,-3.9219,-3.9234,-3.9276,-3.9292,-3.9569,-4.0135,-4.0235,-4.0464,-4.1031,-4.0435,-4.0263,-4.0707,-4.0662,-4.0457,-4.012,-3.9859,-3.966,-3.9532,-3.9563,-3.9618,-3.9653,-3.9832,-3.9935,-3.9917,-3.9826,-3.977,-3.9825,-3.9788,-3.9825,-3.977,-3.9955,-3.9788,-3.9779,-3.969,-3.9504,-3.9415,-3.9634,-4.0024,-3.9981,-4.045,-4.0702,-4.0709,-4.0528,-3.9805,-3.8507,-3.8344,-3.8219,-3.8219,-3.8344,-3.8362,-3.8219,-3.8237,-3.8237,-3.8647,-3.8201,-3.8094,-3.8415,-3.8326,-3.8094,-3.8219,-3.838,-3.879,-4.0021,-3.9718,-3.9753,-5.4295,-5.3461,-5.2627,-5.1755,-5.1149,-5.1073,-5.0637,-4.9879,-4.9879,-4.9879,-4.9879,-4.9879,-4.9879,-4.9879,-4.9879,-4.9879,-4.9879,-4.9879,-4.9879,-4.9879,-4.9879,-4.9879,-4.9879,-4.9879,-4.9879,-4.9879,-4.9811,-4.986,-5.0049,-5.0059,-4.9771,-4.9179,-4.9195,-4.8957,-4.8358,-4.8302,-4.8072,-4.745,-4.7359,-4.7035,-4.6229,-4.5384,-4.442,-4.3438,-4.2595,-4.2092,-4.1966,-4.134,-4.0949,-4.0977,-4.0899,-4.0915,-4.0932,-4.0912,-4.0915,-4.098,-4.1004,-4.1003,-4.0987,-4.0894,-4.0848,-4.0738,-4.0579,-4.0243,-4.0089,-3.9901,-3.9677,-3.9258,-4.0049,-4.0486,-4.0626,-4.0999,-4.1285,-4.1303,-4.1415,-4.1367,-4.1386,-4.1219,-4.1441,-4.1367,-4.1256,-4.12,-4.1349,-4.1249,-4.0972,-4.0859,-4.0826,-4.0967,-4.146,-4.1259,-4.1247,-4.1325,-4.1034,-4.0292,-3.9884,-3.9432,-3.9539,-3.9486,-3.9289,-3.9629,-3.9771,-3.9825,-3.9736,-3.9575,-3.9075,-3.9004,-3.945,-3.9504,-3.9289,-3.9432,-3.9932,-4.0538,-4.0895,-4.1002,-4.0967,-5.3631,-5.2798,-5.1983,-5.1452,-5.1168,-5.0599,-5.0163,-4.9898,-4.9879,-4.9879,-4.9879,-4.9879,-4.9879,-4.9879,-4.9879,-4.9879,-4.9879,-4.9879,-4.9879,-4.9879,-4.9879,-4.9879,-4.9879,-4.9879,-4.9879,-4.9879,-4.9879,-4.9933,-5.0012,-5.0139,-5.0102,-4.9809,-4.9449,-4.9162,-4.8979,-4.8616,-4.8275,-4.8041,-4.7634,-4.7231,-4.6944,-4.6143,-4.5488,-4.5078,-4.3844,-4.3198,-4.3196,-4.2382,-4.1953,-4.1927,-4.14,-4.1108,-4.1104,-4.1057,-4.1,-4.0915,-4.0894,-4.0894,-4.0859,-4.0839,-4.0955,-4.1253,-4.1119,-4.1035,-4.1137,-4.1067,-4.0929,-4.0877,-4.1423,-4.1917,-4.189,-4.1787,-4.159,-4.159,-4.1609,-4.1664,-4.159,-4.159,-4.159,-4.159,-4.159,-4.159,-4.1702,-4.1531,-4.1391,-4.1304,-4.1723,-4.2083,-4.2276,-4.2507,-4.2684,-4.2613,-4.2359,-4.2012,-4.1489,-4.0431,-3.9896,-3.9878,-3.986,-3.9878,-3.9985,-4.011,-4.0039,-4.0092,-3.9736,-3.9629,-3.9968,-4.0075,-3.9985,-4.0449,-4.0985,-4.1217,-4.1663,-4.1502,-4.1556,-5.3764,-5.3082,-5.204,-5.1755,-5.185,-5.0789,-5.0486,-5.0637,-5.0429,-5.0315,-5.0277,-5.0012,-4.9879,-4.9879,-4.9879,-4.9879,-4.9879,-4.9879,-4.9879,-4.9879,-4.9879,-4.9879,-4.9879,-4.9879,-4.9879,-4.9879,-4.9879,-5.0012,-5.0285,-5.0171,-5.026,-5.0475,-4.9843,-4.9556,-4.9566,-4.92,-4.8957,-4.8717,-4.8275,-4.7953,-4.7699,-4.6912,-4.6477,-4.6234,-4.5136,-4.4292,-4.4044,-4.3167,-4.2563,-4.2251,-4.1724,-4.1301,-4.1042,-4.0974,-4.0894,-4.081,-4.1062,-4.1203,-4.1207,-4.1287,-4.1547,-4.1888,-4.1721,-4.168,-4.1867,-4.1836,-4.1736,-4.1816,-4.2314,-4.2779,-4.2772,-4.2519,-4.237,-4.237,-4.237,-4.237,-4.237,-4.2389,-4.2407,-4.2445,-4.2482,-4.2426,-4.237,-4.2407,-4.2347,-4.21,-4.2761,-4.3058,-4.3087,-4.3389,-4.373,-4.3286,-4.3014,-4.2623,-4.2217,-4.1341,-4.0949,-4.0913,-4.077,-4.061,-4.0485,-4.0538,-4.0556,-4.0574,-4.0485,-4.036,-4.0378,-4.0521,-4.086,-4.1306,-4.1448,-4.1627,-4.1805,-4.1841,-4.1877,-5.4863,-5.4541,-5.3101,-5.2854,-5.3215,-5.1755,-5.1604,-5.1926,-5.1357,-5.0921,-5.077,-5.022,-4.9879,-4.9879,-4.9879,-4.9879,-4.9879,-4.9879,-4.9879,-4.9879,-4.9879,-4.9879,-4.9879,-4.9879,-4.9879,-4.9898,-4.9917,-5.0334,-5.0884,-5.0456,-5.0513,-5.09,-5.0469,-5.0155,-5.0174,-5.0131,-4.995,-4.9431,-4.9261,-4.901,-4.8484,-4.7661,-4.7293,-4.7207,-4.6377,-4.5556,-4.4782,-4.3918,-4.3063,-4.2316,-4.2082,-4.1684,-4.1033,-4.0927,-4.0859,-4.1092,-4.1655,-4.2,-4.1977,-4.2341,-4.256,-4.2619,-4.2243,-4.2025,-4.2144,-4.1987,-4.188,-4.2047,-4.2463,-4.2872,-4.3032,-4.3392,-4.3763,-4.3949,-4.3726,-4.3708,-4.3801,-4.3931,-4.3968,-4.3838,-4.3745,-4.3949,-4.3949,-4.3745,-4.3602,-4.3658,-4.3751,-4.3806,-4.3706,-4.3689,-4.3511,-4.3214,-4.2957,-4.2691,-4.2472,-4.2251,-4.2216,-4.2162,-4.1984,-4.1823,-4.1663,-4.1645,-4.1573,-4.1538,-4.127,-4.1145,-4.1163,-4.1324,-4.1627,-4.1966,-4.2002,-4.1948,-4.2002,-4.2073,-4.2126,-5.4901,-5.4769,-5.3745,-5.3442,-5.348,-5.1926,-5.1376,-5.149,-5.0675,-5.0315,-5.0239,-5.0012,-4.9879,-4.9879,-4.9879,-4.9879,-4.9879,-4.9879,-4.9879,-4.9879,-4.9898,-4.9917,-4.9917,-4.9898,-4.9879,-5.0012,-5.0523,-5.0599,-5.0561,-5.1187,-5.13,-5.0532,-5.073,-5.0634,-5.0264,-5.024,-4.9953,-4.9354,-4.9279,-4.895,-4.8287,-4.7995,-4.7915,-4.789,-4.7129,-4.653,-4.6194,-4.4943,-4.3869,-4.3015,-4.2413,-4.1936,-4.1637,-4.1567,-4.1828,-4.2348,-4.2609,-4.2668,-4.2483,-4.2622,-4.2883,-4.2961,-4.2878,-4.3016,-4.3312,-4.3248,-4.3206,-4.3225,-4.3503,-4.3633,-4.3689,-4.3819,-4.4005,-4.4005,-4.4005,-4.4005,-4.3974,-4.4005,-4.4005,-4.4005,-4.4005,-4.4005,-4.4005,-4.4005,-4.3974,-4.3974,-4.3974,-4.3923,-4.3763,-4.3631,-4.3373,-4.2939,-4.275,-4.2613,-4.2432,-4.2287,-4.2287,-4.2287,-4.2287,-4.2287,-4.2287,-4.2287,-4.2287,-4.2216,-4.1966,-4.1877,-4.1912,-4.2019,-4.2216,-4.2287,-4.218,-4.218,-4.2269,-4.2287,-4.2287,-5.4901,-5.4806,-5.4048,-5.3878,-5.3935,-5.2362,-5.185,-5.1983,-5.1206,-5.0656,-5.0448,-5.0391,-5.0201,-4.9936,-4.9879,-4.9879,-4.9879,-4.9879,-4.9879,-4.9974,-5.0296,-5.0372,-5.0372,-5.0391,-5.058,-5.0789,-5.1073,-5.1282,-5.1357,-5.1964,-5.2021,-5.1509,-5.1263,-5.1014,-5.0558,-5.0222,-4.9863,-4.9602,-4.9589,-4.9367,-4.8971,-4.8587,-4.8433,-4.8299,-4.73,-4.6685,-4.649,-4.5316,-4.4394,-4.3718,-4.2918,-4.2454,-4.2353,-4.2275,-4.2431,-4.2846,-4.312,-4.3176,-4.3031,-4.3247,-4.3407,-4.3611,-4.3559,-4.3621,-4.3924,-4.4005,-4.4005,-4.4005,-4.3986,-4.4005,-4.4005,-4.3892,-4.391,-4.4005,-4.4005,-4.3955,-4.391,-4.3923,-4.3923,-4.391,-4.3923,-4.3974,-4.4005,-4.391,-4.386,-4.3846,-4.3781,-4.3682,-4.3461,-4.3338,-4.3032,-4.275,-4.2595,-4.2454,-4.2369,-4.2287,-4.2287,-4.2287,-4.2287,-4.2287,-4.2287,-4.2287,-4.2287,-4.2287,-4.2126,-4.2091,-4.2126,-4.2162,-4.2287,-4.2287,-4.2287,-4.2287,-4.2287,-4.2287,-4.2287,-5.4958,-5.4806,-5.4086,-5.4219,-5.4598,-5.3158,-5.2779,-5.3271,-5.2551,-5.1642,-5.1111,-5.1035,-5.0732,-5.0126,-5.022,-5.0296,-5.0088,-5.0239,-5.0296,-5.0486,-5.0978,-5.1376,-5.1092,-5.1187,-5.1566,-5.2021,-5.1736,-5.2153,-5.2968,-5.2911,-5.2873,-5.3063,-5.204,-5.1338,-5.1177,-5.0429,-5.0164,-5.0234,-5.0144,-5.0126,-5.015,-4.943,-4.8938,-4.8815,-4.7372,-4.6445,-4.6182,-4.5318,-4.4622,-4.419,-4.334,-4.29,-4.3037,-4.2891,-4.2793,-4.3021,-4.3339,-4.3554,-4.3661,-4.3938,-4.4204,-4.4196,-4.402,-4.4005,-4.4005,-4.4005,-4.4005,-4.4005,-4.4005,-4.3974,-4.3923,-4.3744,-4.373,-4.3892,-4.391,-4.3828,-4.3631,-4.3763,-4.3763,-4.3664,-4.3814,-4.3942,-4.3878,-4.3697,-4.3597,-4.3563,-4.341,-4.3304,-4.3142,-4.2976,-4.2788,-4.2595,-4.2454,-4.2391,-4.2287,-4.2287,-4.2287,-4.2287,-4.2287,-4.2287,-4.2287,-4.2287,-4.2287,-4.2287,-4.2287,-4.2287,-4.2287,-4.2287,-4.2287,-4.2287,-4.2287,-4.2287,-4.2287,-4.2287,-4.2287,-5.5489,-5.4882,-5.4674,-5.4712,-5.4769,-5.3783,-5.3101,-5.2684,-5.1926,-5.1225,-5.0561,-5.094,-5.1149,-5.094,-5.1452,-5.1736,-5.1642,-5.1661,-5.1736,-5.1888,-5.2646,-5.2248,-5.1585,-5.185,-5.2267,-5.257,-5.2892,-5.2949,-5.2854,-5.3726,-5.3707,-5.276,-5.2968,-5.2646,-5.2077,-5.1263,-5.093,-5.0833,-5.0244,-4.9993,-4.9974,-4.9778,-4.9645,-4.9505,-4.8476,-4.7566,-4.6885,-4.5558,-4.4445,-4.3726,-4.293,-4.2816,-4.3352,-4.3342,-4.3506,-4.4037,-4.4275,-4.4336,-4.4199,-4.4261,-4.4318,-4.4121,-4.4048,-4.4005,-4.4005,-4.4005,-4.4005,-4.4005,-4.4005,-4.391,-4.3763,-4.3631,-4.3563,-4.3426,-4.3563,-4.3579,-4.3391,-4.3356,-4.3356,-4.3321,-4.3375,-4.3444,-4.3444,-4.3356,-4.3304,-4.3304,-4.3196,-4.3087,-4.2882,-4.275,-4.2595,-4.2454,-4.231,-4.2328,-4.2287,-4.2287,-4.2287,-4.2287,-4.2287,-4.2287,-4.2287,-4.2287,-4.2287,-4.2287,-4.2287,-4.2287,-4.2287,-4.2287,-4.2287,-4.2287,-4.2287,-4.2287,-4.2287,-4.2287,-4.2287,-5.5564,-5.5394,-5.5053,-5.4901,-5.4806,-5.4029,-5.3404,-5.293,-5.2456,-5.1755,-5.1282,-5.1869,-5.204,-5.1774,-5.2172,-5.239,-5.239,-5.239,-5.2381,-5.2608,-5.3613,-5.3821,-5.3461,-5.3575,-5.3802,-5.4427,-5.4257,-5.4162,-5.4143,-5.4693,-5.4276,-5.3707,-5.3594,-5.3404,-5.2949,-5.2029,-5.1395,-5.1036,-5.0459,-5.0052,-4.9703,-4.9627,-4.9598,-4.9409,-4.872,-4.7825,-4.6892,-4.5679,-4.4689,-4.4096,-4.3639,-4.3564,-4.3961,-4.3939,-4.4115,-4.4624,-4.4538,-4.4355,-4.4279,-4.4221,-4.4181,-4.4036,-4.4005,-4.4005,-4.4005,-4.4005,-4.3974,-4.3828,-4.3828,-4.3697,-4.3495,-4.3426,-4.325,-4.292,-4.3069,-4.316,-4.2995,-4.3105,-4.3105,-4.3069,-4.3123,-4.3214,-4.3214,-4.3087,-4.2995,-4.2957,-4.2862,-4.2709,-4.2591,-4.2534,-4.2494,-4.2351,-4.2287,-4.2287,-4.2287,-4.2287,-4.2287,-4.2287,-4.2287,-4.2287,-4.2287,-4.2287,-4.2287,-4.2287,-4.2287,-4.2287,-4.2287,-4.2287,-4.2287,-4.2287,-4.2287,-4.2287,-4.2287,-4.2287,-4.2287,-5.5432,-5.5981,-5.5204,-5.4901,-5.4806,-5.4143,-5.3783,-5.3688,-5.3575,-5.3082,-5.257,-5.3252,-5.3082,-5.2542,-5.2836,-5.275,-5.2769,-5.292,-5.2836,-5.3328,-5.4314,-5.5185,-5.5564,-5.528,-5.5773,-5.6569,-5.5735,-5.5583,-5.5659,-5.5413,-5.5185,-5.492,-5.4427,-5.4095,-5.3894,-5.2961,-5.1994,-5.1386,-5.1011,-5.0535,-5.0053,-4.9864,-4.9837,-4.9622,-4.8623,-4.7681,-4.6815,-4.5922,-4.5286,-4.4997,-4.4833,-4.4537,-4.4594,-4.4419,-4.4337,-4.4299,-4.421,-4.4048,-4.4036,-4.4067,-4.3986,-4.3942,-4.3942,-4.3942,-4.3878,-4.3795,-4.3763,-4.3563,-4.3545,-4.3426,-4.3178,-4.3123,-4.2862,-4.253,-4.2573,-4.2634,-4.2729,-4.2938,-4.2975,-4.2711,-4.2938,-4.305,-4.305,-4.2882,-4.2673,-4.2652,-4.2591,-4.2512,-4.2432,-4.2391,-4.2391,-4.2328,-4.2287,-4.2287,-4.2287,-4.2287,-4.2287,-4.2287,-4.2287,-4.2287,-4.2287,-4.2287,-4.2287,-4.2287,-4.2287,-4.2287,-4.2287,-4.2287,-4.2287,-4.2287,-4.2287,-4.2287,-4.2287,-4.2287,-4.2287,-5.5621,-5.5166,-5.4996,-5.4901,-5.4882,-5.4712,-5.4295,-5.3726,-5.3726,-5.3309,-5.2779,-5.3347,-5.3594,-5.3461,-5.3992,-5.4371,-5.4284,-5.4265,-5.4371,-5.4522,-5.5394,-5.5943,-5.6323,-5.6474,-5.7024,-5.7308,-5.7099,-5.6664,-5.6398,-5.6588,-5.6493,-5.5925,-5.6114,-5.6147,-5.5227,-5.4346,-5.3591,-5.2691,-5.1954,-5.1438,-5.1095,-5.0934,-5.0885,-5.0687,-4.9408,-4.8296,-4.746,-4.6661,-4.6206,-4.5867,-4.4983,-4.4349,-4.4322,-4.4188,-4.4091,-4.406,-4.4048,-4.3974,-4.3974,-4.3942,-4.391,-4.3697,-4.3664,-4.3597,-4.3375,-4.341,-4.3375,-4.3304,-4.3268,-4.316,-4.2864,-4.2613,-4.2472,-4.2369,-4.2369,-4.2391,-4.2391,-4.2472,-4.2472,-4.2472,-4.2472,-4.253,-4.253,-4.2512,-4.2391,-4.2391,-4.2351,-4.2328,-4.2287,-4.2287,-4.2287,-4.2287,-4.2287,-4.2287,-4.2287,-4.2287,-4.2287,-4.2287,-4.2287,-4.2287,-4.2287,-4.2287,-4.2287,-4.2287,-4.2287,-4.2287,-4.2287,-4.2287,-4.2287,-4.2287,-4.2287,-4.2287,-4.2287,-4.2287,-4.2287,-5.5239,-5.5126,-5.4566,-5.4449,-5.4616,-5.4597,-5.4465,-5.4284,-5.4276,-5.4029,-5.3745,-5.4105,-5.4257,-5.4333,-5.511,-5.5508,-5.5477,-5.5397,-5.512,-5.5025,-5.5593,-5.6028,-5.6248,-5.6974,-5.7554,-5.7895,-5.799,-5.7706,-5.7535,-5.7289,-5.6891,-5.6341,-5.7024,-5.6362,-5.5578,-5.5174,-5.427,-5.3144,-5.2501,-5.2039,-5.1614,-5.1504,-5.1487,-5.123,-5.0189,-4.9169,-4.864,-4.7439,-4.6851,-4.6338,-4.5401,-4.4672,-4.448,-4.4114,-4.3846,-4.3795,-4.3664,-4.3631,-4.3631,-4.3597,-4.3529,-4.3426,-4.3391,-4.3321,-4.3232,-4.3214,-4.3123,-4.3013,-4.2975,-4.2844,-4.2534,-4.2432,-4.2328,-4.2287,-4.2287,-4.2287,-4.2287,-4.2287,-4.2287,-4.2287,-4.2328,-4.2328,-4.2287,-4.2287,-4.2287,-4.2328,-4.2328,-4.2287,-4.2287,-4.2287,-4.2287,-4.2287,-4.2287,-4.2287,-4.2287,-4.2287,-4.2287,-4.2287,-4.2287,-4.2287,-4.2287,-4.2287,-4.2287,-4.2287,-4.2287,-4.2287,-4.2287,-4.2287,-4.2287,-4.2287,-4.2287,-4.2287,-4.2287,-4.2287,-4.2287,-5.4777,-5.5341,-5.4295,-5.4069,-5.4349,-5.4416,-5.4597,-5.4833,-5.4769,-5.4484,-5.4636,-5.4636,-5.4238,-5.4787,-5.528,-5.5773,-5.5851,-5.5888,-5.5441,-5.4773,-5.547,-5.5678,-5.5861,-5.6525,-5.7302,-5.8243,-5.8502,-5.8483,-5.818,-5.8047,-5.7687,-5.6948,-5.7409,-5.713,-5.581,-5.5585,-5.5301,-5.3961,-5.3591,-5.3051,-5.2419,-5.2233,-5.2141,-5.1509,-5.0731,-4.9954,-4.9306,-4.8199,-4.7204,-4.6879,-4.613,-4.5718,-4.5268,-4.4417,-4.3695,-4.3713,-4.3484,-4.3304,-4.3322,-4.3268,-4.3232,-4.316,-4.3123,-4.3087,-4.305,-4.2994,-4.2862,-4.2729,-4.2652,-4.2573,-4.2328,-4.2287,-4.2287,-4.2287,-4.2287,-4.2287,-4.2287,-4.2287,-4.2287,-4.2287,-4.2287,-4.2287,-4.2287,-4.2287,-4.2287,-4.2287,-4.2287,-4.2287,-4.2287,-4.2305,-4.2323,-4.2287,-4.2287,-4.2287,-4.2287,-4.2287,-4.2287,-4.2287,-4.2287,-4.2287,-4.2287,-4.2287,-4.2287,-4.2287,-4.2287,-4.2287,-4.2287,-4.2287,-4.2287,-4.2287,-4.2287,-4.2287,-4.2287,-4.2287,-4.2287,-5.4867,-5.4962,-5.4767,-5.4761,-5.4791,-5.4791,-5.4761,-5.4769,-5.4216,-5.3916,-5.3848,-5.3215,-5.3451,-5.3954,-5.4029,-5.4424,-5.5171,-5.5621,-5.5423,-5.4702,-5.5157,-5.5322,-5.504,-5.5729,-5.6266,-5.679,-5.768,-5.818,-5.8237,-5.8691,-5.8597,-5.8451,-5.8788,-5.8355,-5.7465,-5.7379,-5.6668,-5.5471,-5.5263,-5.4853,-5.4221,-5.3887,-5.3478,-5.2512,-5.1451,-5.0501,-4.9614,-4.8614,-4.7831,-4.7718,-4.6971,-4.659,-4.6117,-4.4984,-4.4327,-4.409,-4.367,-4.3414,-4.336,-4.3269,-4.3086,-4.2864,-4.2878,-4.2724,-4.2606,-4.249,-4.2512,-4.2472,-4.2391,-4.2351,-4.2328,-4.2287,-4.2287,-4.2287,-4.2358,-4.2376,-4.2376,-4.2465,-4.2519,-4.2626,-4.2501,-4.2376,-4.2465,-4.2483,-4.243,-4.2412,-4.2376,-4.2323,-4.2287,-4.2358,-4.243,-4.2358,-4.2287,-4.2287,-4.2287,-4.2287,-4.2287,-4.2287,-4.2287,-4.2287,-4.2287,-4.2287,-4.2287,-4.2287,-4.2287,-4.2287,-4.2287,-4.2287,-4.2287,-4.2287,-4.2287,-4.2287,-4.2287,-4.2287,-4.2287,-5.3961,-5.3961,-5.3739,-5.4019,-5.4447,-5.4111,-5.4331,-5.475,-5.4056,-5.3833,-5.3836,-5.3604,-5.3931,-5.4635,-5.4855,-5.4988,-5.5273,-5.5889,-5.55,-5.4664,-5.4608,-5.4664,-5.4306,-5.4976,-5.515,-5.5624,-5.6646,-5.7763,-5.8085,-5.8786,-5.9038,-5.8845,-5.9235,-5.8815,-5.7697,-5.7529,-5.7188,-5.6546,-5.6302,-5.593,-5.5057,-5.4704,-5.4035,-5.3641,-5.2302,-5.1059,-5.0035,-4.8949,-4.8079,-4.7511,-4.7071,-4.6891,-4.6495,-4.5869,-4.4953,-4.4693,-4.4198,-4.388,-4.3899,-4.3935,-4.389,-4.3678,-4.3373,-4.3077,-4.2828,-4.265,-4.2394,-4.2323,-4.2287,-4.2287,-4.2287,-4.2341,-4.2287,-4.2376,-4.2644,-4.2894,-4.3001,-4.3251,-4.3322,-4.3215,-4.2804,-4.2715,-4.2894,-4.2822,-4.2644,-4.2537,-4.2501,-4.2465,-4.2448,-4.2555,-4.2751,-4.2876,-4.2876,-4.284,-4.2697,-4.243,-4.2465,-4.2448,-4.2287,-4.2287,-4.2287,-4.2287,-4.2287,-4.2287,-4.2287,-4.2287,-4.2287,-4.2287,-4.2287,-4.2287,-4.2287,-4.2287,-4.2287,-4.2287,-4.2287,-5.3244,-5.3222,-5.304,-5.3431,-5.4007,-5.3681,-5.3927,-5.4405,-5.387,-5.3697,-5.3984,-5.4067,-5.4576,-5.5395,-5.5664,-5.5695,-5.5578,-5.5958,-5.5155,-5.4335,-5.4111,-5.4073,-5.4127,-5.4352,-5.4595,-5.475,-5.5448,-5.6765,-5.8009,-5.8602,-5.8637,-5.8842,-5.9335,-5.8782,-5.7622,-5.7881,-5.7353,-5.7088,-5.6766,-5.6339,-5.554,-5.4816,-5.4481,-5.4775,-5.3219,-5.1697,-5.0714,-4.9466,-4.838,-4.767,-4.7321,-4.7186,-4.6908,-4.6391,-4.5881,-4.5462,-4.495,-4.4624,-4.4553,-4.4543,-4.4443,-4.4346,-4.4018,-4.3804,-4.3625,-4.3286,-4.2876,-4.2751,-4.2822,-4.2912,-4.3001,-4.284,-4.284,-4.2947,-4.3393,-4.375,-4.3839,-4.4018,-4.4232,-4.3911,-4.3233,-4.3233,-4.3607,-4.359,-4.35,-4.3304,-4.3251,-4.3215,-4.3179,-4.3144,-4.3304,-4.3536,-4.3607,-4.3572,-4.3268,-4.2662,-4.2715,-4.2822,-4.2501,-4.2287,-4.2287,-4.2287,-4.2287,-4.2287,-4.2287,-4.2287,-4.2287,-4.2287,-4.2287,-4.2287,-4.2287,-4.2287,-4.2287,-4.2287,-4.2287,-5.3644,-5.368,-5.4306,-5.4309,-5.3938,-5.4325,-5.4292,-5.3868,-5.3474,-5.3075,-5.3153,-5.3447,-5.4011,-5.4797,-5.5589,-5.5617,-5.5285,-5.5006,-5.4559,-5.3944,-5.387,-5.387,-5.3926,-5.4252,-5.4303,-5.4303,-5.467,-5.5826,-5.7175,-5.7985,-5.871,-5.9112,-5.8878,-5.8818,-5.8254,-5.821,-5.8535,-5.8345,-5.8252,-5.7862,-5.71,-5.6243,-5.5631,-5.4855,-5.3641,-5.239,-5.1435,-5.0172,-4.8948,-4.8293,-4.8068,-4.7693,-4.7122,-4.6926,-4.6837,-4.6364,-4.557,-4.4624,-4.4767,-4.4874,-4.491,-4.4928,-4.4607,-4.4517,-4.4303,-4.425,-4.4071,-4.4339,-4.425,-4.4125,-4.4036,-4.4196,-4.4285,-4.425,-4.4303,-4.4482,-4.4571,-4.4963,-4.5142,-4.5071,-4.4553,-4.4464,-4.4607,-4.4517,-4.4392,-4.4178,-4.4,-4.3946,-4.3964,-4.3946,-4.4268,-4.4624,-4.4428,-4.4321,-4.4143,-4.3483,-4.309,-4.3215,-4.2876,-4.243,-4.2287,-4.2287,-4.2287,-4.2287,-4.2287,-4.2287,-4.2287,-4.2287,-4.2287,-4.2287,-4.2287,-4.2287,-4.2287,-4.2287,-4.2287,-5.3011,-5.3048,-5.3396,-5.3891,-5.4294,-5.4054,-5.4252,-5.4441,-5.37,-5.3088,-5.3065,-5.3885,-5.4776,-5.5636,-5.6762,-5.6479,-5.5491,-5.5193,-5.467,-5.3905,-5.3813,-5.3813,-5.3888,-5.4073,-5.4163,-5.4198,-5.4431,-5.5107,-5.621,-5.6741,-5.7369,-5.8371,-5.8034,-5.7806,-5.8231,-5.807,-5.7695,-5.7416,-5.7305,-5.7398,-5.7286,-5.6781,-5.6255,-5.6016,-5.4391,-5.3308,-5.2397,-5.0886,-4.9924,-4.9424,-4.9156,-4.8443,-4.7872,-4.7622,-4.7497,-4.6908,-4.6409,-4.6016,-4.5998,-4.5927,-4.5856,-4.5784,-4.5534,-4.5106,-4.4785,-4.466,-4.4678,-4.4589,-4.4589,-4.4642,-4.4678,-4.4607,-4.4607,-4.4714,-4.5124,-4.5249,-4.541,-4.5856,-4.6105,-4.6016,-4.5909,-4.5731,-4.5463,-4.5106,-4.5071,-4.5088,-4.4732,-4.4428,-4.4607,-4.4839,-4.532,-4.598,-4.557,-4.5106,-4.4892,-4.45,-4.375,-4.3643,-4.3411,-4.2965,-4.2412,-4.2287,-4.2519,-4.2448,-4.2341,-4.2323,-4.2323,-4.2287,-4.2287,-4.2287,-4.2287,-4.2287,-4.2287,-4.2287,-4.2287,-5.2498,-5.2516,-5.2715,-5.3403,-5.4266,-5.3595,-5.3769,-5.4257,-5.3853,-5.3199,-5.3275,-5.4502,-5.5955,-5.685,-5.7497,-5.6825,-5.5429,-5.5614,-5.4927,-5.4147,-5.3813,-5.3813,-5.387,-5.4018,-5.4091,-5.4018,-5.4217,-5.4624,-5.4907,-5.5357,-5.5995,-5.7378,-5.7022,-5.7037,-5.7382,-5.7583,-5.7453,-5.7379,-5.7026,-5.723,-5.7561,-5.72,-5.6921,-5.6379,-5.5413,-5.4213,-5.3544,-5.2391,-5.1494,-5.0994,-5.0388,-4.9674,-4.9014,-4.8586,-4.8104,-4.7586,-4.7176,-4.7033,-4.6873,-4.6783,-4.698,-4.6819,-4.6569,-4.5909,-4.5481,-4.5213,-4.5231,-4.5392,-4.5392,-4.5338,-4.5213,-4.5285,-4.541,-4.5624,-4.5802,-4.5963,-4.6123,-4.6409,-4.6623,-4.6551,-4.6516,-4.6676,-4.632,-4.5749,-4.5659,-4.5891,-4.557,-4.5017,-4.5195,-4.557,-4.6034,-4.6587,-4.6052,-4.5659,-4.5749,-4.5374,-4.466,-4.4161,-4.3929,-4.3661,-4.3233,-4.309,-4.3268,-4.3036,-4.2697,-4.2697,-4.2876,-4.2573,-4.2287,-4.2287,-4.2287,-4.2287,-4.2287,-4.2287,-4.2287,-5.2498,-5.2552,-5.3277,-5.3241,-5.287,-5.3796,-5.3316,-5.2633,-5.3495,-5.3404,-5.31,-5.4883,-5.6781,-5.7825,-5.7134,-5.6559,-5.606,-5.4648,-5.4147,-5.3943,-5.3813,-5.3813,-5.387,-5.3944,-5.4018,-5.3907,-5.4037,-5.4074,-5.4038,-5.4261,-5.5174,-5.6313,-5.6049,-5.6695,-5.71,-5.7138,-5.749,-5.7509,-5.736,-5.7565,-5.8058,-5.7962,-5.7578,-5.684,-5.6091,-5.5324,-5.4571,-5.3788,-5.326,-5.2671,-5.1833,-5.0994,-5.0227,-4.9567,-4.8907,-4.8282,-4.8086,-4.7854,-4.7515,-4.714,-4.6998,-4.6962,-4.6855,-4.6694,-4.6427,-4.6676,-4.6766,-4.6551,-4.6373,-4.6516,-4.6605,-4.6783,-4.6444,-4.6427,-4.6427,-4.6498,-4.6623,-4.6712,-4.689,-4.6962,-4.6998,-4.6998,-4.698,-4.6373,-4.6212,-4.6427,-4.6248,-4.5713,-4.5873,-4.6212,-4.6534,-4.6766,-4.6248,-4.6141,-4.6551,-4.6105,-4.5356,-4.4981,-4.4767,-4.4553,-4.4285,-4.4214,-4.3929,-4.3893,-4.3625,-4.3518,-4.3304,-4.2947,-4.2644,-4.2394,-4.2287,-4.2287,-4.2287,-4.2287,-4.2287,-5.2498,-5.2516,-5.2842,-5.3059,-5.3251,-5.3755,-5.3754,-5.3562,-5.4019,-5.4392,-5.4336,-5.5046,-5.6066,-5.7032,-5.7106,-5.6173,-5.5519,-5.4964,-5.4277,-5.3924,-5.3813,-5.3813,-5.3832,-5.3832,-5.3888,-5.3832,-5.3888,-5.3926,-5.3869,-5.3868,-5.4074,-5.4725,-5.5077,-5.567,-5.619,-5.645,-5.6692,-5.71,-5.7119,-5.7212,-5.7798,-5.8098,-5.7822,-5.7306,-5.6249,-5.5875,-5.5542,-5.4561,-5.4259,-5.3956,-5.3082,-5.2208,-5.1405,-5.0602,-4.9781,-4.9032,-4.8907,-4.8586,-4.8122,-4.7568,-4.7015,-4.6998,-4.698,-4.6998,-4.6998,-4.6998,-4.6998,-4.6962,-4.6998,-4.6998,-4.6962,-4.6962,-4.689,-4.6962,-4.6998,-4.6998,-4.6998,-4.6998,-4.6998,-4.6998,-4.6998,-4.6998,-4.6998,-4.6926,-4.689,-4.6908,-4.6694,-4.6516,-4.6587,-4.6623,-4.6855,-4.6998,-4.6551,-4.6427,-4.6801,-4.6444,-4.598,-4.5784,-4.557,-4.5338,-4.5071,-4.4624,-4.441,-4.4464,-4.4428,-4.4107,-4.375,-4.3322,-4.2912,-4.2465,-4.2305,-4.2287,-4.2287,-4.2287,-4.2287,-5.2643,-5.2806,-5.2589,-5.2824,-5.3298,-5.3484,-5.3613,-5.3795,-5.4056,-5.4652,-5.5325,-5.4883,-5.5367,-5.6239,-5.6153,-5.5835,-5.5092,-5.4667,-5.4296,-5.3998,-5.3813,-5.3813,-5.3813,-5.3813,-5.3813,-5.3813,-5.3813,-5.3813,-5.3813,-5.4035,-5.4314,-5.4444,-5.4463,-5.5391,-5.5484,-5.5726,-5.5912,-5.6747,-5.6803,-5.7,-5.7696,-5.7829,-5.7737,-5.7346,-5.6461,-5.6132,-5.6045,-5.5419,-5.5205,-5.4973,-5.4384,-5.3439,-5.2618,-5.1797,-5.0869,-5.0191,-4.9603,-4.9299,-4.8728,-4.8157,-4.7229,-4.7051,-4.6998,-4.6998,-4.6998,-4.6998,-4.6998,-4.6998,-4.6998,-4.6998,-4.6998,-4.6998,-4.6998,-4.6998,-4.6998,-4.6998,-4.6998,-4.6998,-4.6998,-4.6998,-4.7015,-4.7105,-4.7461,-4.7497,-4.7283,-4.7194,-4.689,-4.6766,-4.6801,-4.6855,-4.6908,-4.6998,-4.689,-4.689,-4.6962,-4.6659,-4.6427,-4.6427,-4.623,-4.6034,-4.5731,-4.532,-4.5249,-4.5552,-4.5356,-4.4714,-4.4143,-4.3679,-4.3054,-4.243,-4.2341,-4.2287,-4.2287,-4.2287,-4.2287,-5.2951,-5.3548,-5.2824,-5.2534,-5.2707,-5.298,-5.2747,-5.2472,-5.3302,-5.4041,-5.4553,-5.4802,-5.5157,-5.5441,-5.4949,-5.4707,-5.4603,-5.4125,-5.3791,-5.3754,-5.3756,-5.3813,-5.3813,-5.3813,-5.3813,-5.3813,-5.3831,-5.3831,-5.3943,-5.4481,-5.4797,-5.5169,-5.5484,-5.5726,-5.5224,-5.5912,-5.7063,-5.8234,-5.7658,-5.7696,-5.7855,-5.7812,-5.7468,-5.7033,-5.6634,-5.6367,-5.6241,-5.6151,-5.5955,-5.5883,-5.5277,-5.4688,-5.4474,-5.3171,-5.2225,-5.1565,-5.0209,-4.9228,-4.8354,-4.8193,-4.7783,-4.714,-4.6998,-4.7051,-4.7033,-4.7015,-4.7212,-4.7426,-4.714,-4.7069,-4.7015,-4.6998,-4.7015,-4.7033,-4.7033,-4.7229,-4.7247,-4.7533,-4.7658,-4.7729,-4.7408,-4.7283,-4.7818,-4.8086,-4.7747,-4.7479,-4.7122,-4.6998,-4.7015,-4.6998,-4.6998,-4.6998,-4.6998,-4.6998,-4.6998,-4.6998,-4.6908,-4.6926,-4.6801,-4.6551,-4.6516,-4.6373,-4.6427,-4.6659,-4.623,-4.5534,-4.4749,-4.4018,-4.3251,-4.2519,-4.2358,-4.2287,-4.2287,-4.2287,-4.2287,-5.2969,-5.3621,-5.2842,-5.2741,-5.3085,-5.3014,-5.2656,-5.2397,-5.2889,-5.3357,-5.3745,-5.3958,-5.403,-5.4018,-5.3963,-5.3701,-5.3542,-5.3717,-5.3481,-5.3481,-5.3678,-5.3756,-5.3813,-5.3813,-5.3831,-5.3813,-5.385,-5.4203,-5.463,-5.5094,-5.5447,-5.5837,-5.6283,-5.6134,-5.6172,-5.6655,-5.7528,-5.7769,-5.7617,-5.7677,-5.8013,-5.7755,-5.7388,-5.7003,-5.66,-5.6401,-5.6383,-5.6383,-5.6383,-5.6311,-5.5669,-5.533,-5.5062,-5.3831,-5.2903,-5.2368,-5.1333,-5.0298,-4.9371,-4.8835,-4.8282,-4.7551,-4.714,-4.7372,-4.764,-4.7212,-4.7568,-4.7943,-4.7568,-4.7533,-4.7658,-4.7212,-4.7105,-4.7176,-4.7301,-4.7711,-4.7961,-4.8443,-4.8728,-4.8764,-4.8586,-4.8496,-4.88,-4.8925,-4.8657,-4.8211,-4.789,-4.7283,-4.714,-4.7033,-4.6998,-4.6998,-4.6998,-4.6998,-4.6998,-4.7051,-4.7015,-4.6962,-4.6944,-4.6873,-4.6926,-4.6998,-4.6944,-4.6819,-4.6623,-4.6337,-4.5356,-4.4357,-4.3322,-4.2662,-4.2465,-4.2323,-4.2287,-4.2287,-4.2287,-5.2951,-5.3519,-5.2777,-5.281,-5.3219,-5.289,-5.2545,-5.2462,-5.279,-5.3023,-5.3033,-5.3153,-5.3116,-5.3069,-5.2965,-5.2997,-5.2806,-5.3023,-5.3151,-5.3193,-5.3481,-5.3561,-5.3639,-5.3811,-5.4054,-5.4073,-5.4296,-5.463,-5.5466,-5.5763,-5.6395,-5.7026,-5.7119,-5.7268,-5.7286,-5.7509,-5.7575,-5.7714,-5.7796,-5.7689,-5.7645,-5.7419,-5.7206,-5.6847,-5.6546,-5.6383,-5.6383,-5.6383,-5.6383,-5.6222,-5.5955,-5.5616,-5.5187,-5.4545,-5.3724,-5.3457,-5.2297,-5.103,-4.9727,-4.9258,-4.8704,-4.8086,-4.78,-4.8032,-4.8407,-4.8193,-4.8443,-4.8603,-4.8211,-4.8086,-4.8068,-4.7568,-4.7515,-4.7604,-4.7783,-4.8211,-4.8675,-4.9139,-4.9317,-4.9406,-4.946,-4.9513,-4.9692,-4.971,-4.9638,-4.9156,-4.8675,-4.805,-4.7426,-4.7283,-4.7301,-4.739,-4.7301,-4.7301,-4.7247,-4.714,-4.7105,-4.7015,-4.7051,-4.7105,-4.6998,-4.6998,-4.6998,-4.6998,-4.6819,-4.6462,-4.5677,-4.4732,-4.3661,-4.2912,-4.2555,-4.2412,-4.2305,-4.2287,-4.2287,-5.2857,-5.3351,-5.2636,-5.2582,-5.292,-5.2396,-5.2232,-5.2415,-5.2997,-5.284,-5.2246,-5.2681,-5.2605,-5.23,-5.2214,-5.2371,-5.2627,-5.2717,-5.2806,-5.2937,-5.3217,-5.33,-5.3521,-5.3716,-5.4034,-5.4611,-5.4964,-5.5169,-5.6246,-5.6952,-5.7769,-5.8266,-5.8169,-5.8169,-5.8034,-5.7802,-5.7734,-5.7888,-5.7857,-5.7637,-5.732,-5.7087,-5.6899,-5.66,-5.6437,-5.6383,-5.6383,-5.6383,-5.6383,-5.6347,-5.6311,-5.6329,-5.6097,-5.5616,-5.5348,-5.4438,-5.2689,-5.0976,-4.9852,-4.9543,-4.9454,-4.9156,-4.9353,-4.9388,-4.9246,-4.9139,-4.9281,-4.9406,-4.921,-4.8817,-4.8496,-4.8354,-4.8229,-4.83,-4.8371,-4.8782,-4.9264,-4.9549,-4.9656,-4.9727,-4.9763,-4.9942,-5.0423,-5.0548,-5.0423,-5.0209,-4.971,-4.9156,-4.8514,-4.7818,-4.789,-4.8122,-4.7979,-4.7729,-4.7658,-4.7747,-4.7765,-4.7872,-4.739,-4.7319,-4.7176,-4.7051,-4.6998,-4.6998,-4.6998,-4.6569,-4.5802,-4.491,-4.3946,-4.334,-4.2876,-4.2519,-4.2412,-4.2305,-4.2287,-5.281,-5.3376,-5.2522,-5.2179,-5.2117,-5.137,-5.1352,-5.192,-5.2158,-5.2032,-5.184,-5.1972,-5.2022,-5.1871,-5.1835,-5.1933,-5.2078,-5.2286,-5.2563,-5.2787,-5.3091,-5.34,-5.36,-5.3754,-5.3998,-5.4333,-5.4816,-5.5577,-5.6469,-5.7565,-5.8326,-5.86,-5.8449,-5.8363,-5.8139,-5.7794,-5.7867,-5.7895,-5.7784,-5.7419,-5.7051,-5.6879,-5.6653,-5.6474,-5.6294,-5.6311,-5.6383,-5.6383,-5.6383,-5.6383,-5.6383,-5.6383,-5.6329,-5.5616,-5.4937,-5.3457,-5.1904,-5.0566,-5.0245,-5.0156,-5.0138,-5.0298,-5.0584,-5.0566,-5.0263,-4.9906,-4.9959,-5.0156,-5.0031,-4.9585,-4.9353,-4.9228,-4.9067,-4.9049,-4.921,-4.9638,-5.0102,-5.0405,-5.0513,-5.0566,-5.0584,-5.0655,-5.1137,-5.1191,-5.1083,-5.103,-5.0762,-5.0191,-4.9531,-4.88,-4.8568,-4.8835,-4.871,-4.8461,-4.8657,-4.8782,-4.8764,-4.8675,-4.8086,-4.7658,-4.7622,-4.7461,-4.714,-4.6998,-4.6998,-4.6569,-4.5909,-4.5124,-4.4535,-4.3804,-4.3304,-4.2876,-4.2519,-4.2448,-4.2323,-5.1777,-5.2372,-5.1832,-5.1454,-5.1267,-5.0758,-5.0816,-5.1226,-5.1547,-5.1833,-5.2101,-5.1869,-5.169,-5.169,-5.174,-5.174,-5.179,-5.1969,-5.2173,-5.2545,-5.298,-5.3277,-5.3521,-5.3754,-5.4073,-5.4407,-5.5113,-5.606,-5.6915,-5.7821,-5.8656,-5.8406,-5.8168,-5.8033,-5.7831,-5.7576,-5.7449,-5.7516,-5.7419,-5.7138,-5.6879,-5.6561,-5.6313,-5.6402,-5.6204,-5.6133,-5.6365,-5.6383,-5.6383,-5.6383,-5.6383,-5.6383,-5.6365,-5.5847,-5.5259,-5.4045,-5.3314,-5.2297,-5.1744,-5.1547,-5.1315,-5.1173,-5.1405,-5.1315,-5.1101,-5.0762,-5.0994,-5.1191,-5.0709,-5.0316,-5.0209,-5.0102,-4.9942,-4.9799,-5.0191,-5.0584,-5.0976,-5.1369,-5.1512,-5.1583,-5.1583,-5.1565,-5.1654,-5.169,-5.1672,-5.1476,-5.1351,-5.1101,-5.0388,-4.9585,-4.9478,-4.9674,-4.946,-4.9228,-4.9429,-4.9475,-4.931,-4.9019,-4.8407,-4.8068,-4.8115,-4.7658,-4.7122,-4.6998,-4.6998,-4.6605,-4.6248,-4.5873,-4.532,-4.4607,-4.4036,-4.3732,-4.3233,-4.2662,-4.2519,-5.0389,-5.0933,-5.0593,-5.0462,-5.0388,-5.0281,-5.0388,-5.0655,-5.1298,-5.2011,-5.244,-5.2011,-5.169,-5.1726,-5.1869,-5.1815,-5.1833,-5.1933,-5.2143,-5.2268,-5.2698,-5.3066,-5.3381,-5.3619,-5.4016,-5.4909,-5.5779,-5.6503,-5.7446,-5.8164,-5.8363,-5.806,-5.7941,-5.7802,-5.7516,-5.7138,-5.6984,-5.6984,-5.6984,-5.6794,-5.6385,-5.5955,-5.5616,-5.6133,-5.5955,-5.5687,-5.6204,-5.6383,-5.6383,-5.6383,-5.6383,-5.6383,-5.6347,-5.6115,-5.5598,-5.5152,-5.442,-5.3742,-5.2939,-5.2618,-5.2279,-5.1976,-5.1744,-5.1637,-5.1422,-5.1315,-5.1512,-5.1583,-5.1137,-5.0959,-5.0834,-5.078,-5.0655,-5.0602,-5.0816,-5.1083,-5.1351,-5.1601,-5.1637,-5.169,-5.169,-5.169,-5.169,-5.169,-5.169,-5.1672,-5.1637,-5.1565,-5.099,-5.0154,-5.0051,-5.0193,-4.99,-4.9621,-4.9796,-4.9831,-4.9661,-4.9297,-4.8823,-4.8514,-4.8532,-4.7872,-4.7033,-4.6998,-4.6998,-4.6998,-4.6748,-4.6373,-4.5998,-4.5499,-4.4999,-4.4714,-4.4125,-4.3393,-4.3161,-5.0782,-5.0771,-4.937,-4.9079,-4.9495,-4.8978,-4.9799,-5.1315,-5.0923,-5.1262,-5.1833,-5.1797,-5.169,-5.1744,-5.2297,-5.2261,-5.1833,-5.2222,-5.235,-5.2419,-5.2645,-5.2967,-5.3295,-5.3632,-5.3958,-5.45,-5.5482,-5.6844,-5.7605,-5.7991,-5.8078,-5.769,-5.7498,-5.727,-5.7138,-5.6742,-5.66,-5.6582,-5.66,-5.66,-5.6366,-5.6311,-5.6258,-5.6329,-5.6097,-5.6026,-5.6347,-5.6383,-5.6383,-5.6383,-5.6383,-5.6383,-5.6383,-5.5865,-5.5473,-5.5152,-5.4777,-5.4295,-5.376,-5.3278,-5.285,-5.2457,-5.2118,-5.1833,-5.1672,-5.169,-5.169,-5.169,-5.1654,-5.1512,-5.1422,-5.1369,-5.1333,-5.1333,-5.1351,-5.1512,-5.1654,-5.1672,-5.169,-5.169,-5.169,-5.169,-5.169,-5.164,-5.169,-5.169,-5.169,-5.1536,-5.1035,-5.04,-5.0171,-5.0205,-5.0021,-4.9913,-5.0132,-5.0382,-5.0287,-5.0016,-4.9635,-4.9328,-4.9032,-4.8122,-4.7265,-4.7069,-4.6998,-4.7069,-4.7087,-4.6908,-4.6534,-4.6105,-4.5838,-4.5481,-4.5088,-4.4428,-4.425,-5.0006,-5.0157,-4.9162,-4.871,-4.871,-4.8354,-4.9139,-5.0423,-5.053,-5.0959,-5.1619,-5.169,-5.169,-5.1815,-5.2529,-5.2529,-5.2011,-5.2511,-5.2458,-5.2437,-5.277,-5.2953,-5.3305,-5.3631,-5.4013,-5.4482,-5.578,-5.6947,-5.7316,-5.7694,-5.7653,-5.6993,-5.6747,-5.6863,-5.6776,-5.6492,-5.6383,-5.6383,-5.6383,-5.6383,-5.6311,-5.6151,-5.6186,-5.6186,-5.6133,-5.6115,-5.6347,-5.6347,-5.6151,-5.5972,-5.5812,-5.6151,-5.6204,-5.6079,-5.5633,-5.5366,-5.508,-5.4759,-5.417,-5.3689,-5.3242,-5.285,-5.2172,-5.1762,-5.169,-5.169,-5.169,-5.169,-5.169,-5.1583,-5.1583,-5.1547,-5.1547,-5.1547,-5.1547,-5.1637,-5.1672,-5.169,-5.169,-5.169,-5.169,-5.169,-5.1589,-5.1263,-5.1245,-5.107,-5.1175,-5.0929,-5.055,-5.0272,-5.0159,-5.0085,-4.9838,-5.0124,-5.0465,-5.0823,-5.1152,-5.0779,-5.03,-4.9759,-4.9228,-4.8282,-4.7533,-4.7551,-4.7461,-4.7301,-4.7283,-4.7176,-4.698,-4.6587,-4.6391,-4.623,-4.5802,-4.5481,-4.5463,-4.8918,-4.9424,-4.924,-4.8853,-4.8336,-4.8068,-4.855,-4.9406,-5.0049,-5.0762,-5.1458,-5.1619,-5.1708,-5.2101,-5.26,-5.2386,-5.2547,-5.3296,-5.305,-5.2875,-5.3291,-5.3342,-5.3335,-5.3571,-5.3983,-5.4553,-5.5551,-5.5941,-5.6164,-5.6507,-5.6503,-5.5974,-5.6217,-5.6634,-5.6456,-5.6383,-5.6383,-5.6383,-5.6383,-5.6383,-5.6097,-5.5758,-5.599,-5.5972,-5.5758,-5.5705,-5.6133,-5.6151,-5.583,-5.5794,-5.5616,-5.5776,-5.6062,-5.6115,-5.6008,-5.5723,-5.5883,-5.5419,-5.4813,-5.4367,-5.3778,-5.3135,-5.2261,-5.1833,-5.1797,-5.169,-5.169,-5.169,-5.169,-5.169,-5.169,-5.169,-5.169,-5.169,-5.169,-5.169,-5.169,-5.169,-5.169,-5.169,-5.169,-5.169,-5.1315,-5.1035,-5.0803,-5.0567,-5.031,-4.9936,-4.9705,-4.9546,-4.9385,-4.9504,-4.9487,-4.9913,-5.0345,-5.091,-5.1193,-5.1065,-5.0515,-5.0008,-4.9478,-4.8746,-4.83,-4.83,-4.8193,-4.7997,-4.764,-4.7444,-4.7212,-4.6934,-4.6783,-4.6623,-4.6605,-4.6373,-4.6641,-4.8837,-4.9264,-4.8657,-4.8639,-4.8853,-4.7783,-4.8015,-4.9192,-4.9478,-4.9995,-5.0798,-5.1512,-5.1993,-5.2689,-5.3457,-5.3528,-5.3421,-5.4117,-5.4117,-5.39,-5.3954,-5.3706,-5.3592,-5.3707,-5.3954,-5.4409,-5.4729,-5.4729,-5.5178,-5.5323,-5.5346,-5.5293,-5.5436,-5.5902,-5.642,-5.6383,-5.6383,-5.6383,-5.6383,-5.6383,-5.6383,-5.6222,-5.6276,-5.6079,-5.5669,-5.5865,-5.6026,-5.5705,-5.5847,-5.6008,-5.6044,-5.5847,-5.5919,-5.6115,-5.6097,-5.599,-5.6186,-5.5919,-5.533,-5.4955,-5.4367,-5.3528,-5.2761,-5.219,-5.2029,-5.169,-5.169,-5.169,-5.169,-5.164,-5.164,-5.1589,-5.1589,-5.164,-5.164,-5.169,-5.169,-5.169,-5.169,-5.164,-5.1589,-5.1315,-5.091,-5.0622,-5.0384,-5.0142,-4.9838,-4.947,-4.9127,-4.89,-4.8668,-4.8855,-4.9023,-4.9067,-4.9248,-5.0384,-5.0804,-5.0805,-5.073,-5.0243,-4.9773,-4.9388,-4.9085,-4.9103,-4.893,-4.8687,-4.8342,-4.7696,-4.7404,-4.7144,-4.7005,-4.6926,-4.6998,-4.6998,-4.6998]}]]